[[{"header":{"parameterUnit":"m.s-1","parameterCategory":1,"la1":31.0,"la2":29.5877,"lo1":-88.7671,"lo2":-86.6584,"dy":0.0162,"dx":0.0185,"nx":115,"ny":88,"refTime":"2023-10-24T00:00:00:Z","depth":0,"parameterNumber":2,"parameterNumberName":"U-component_of_WINDS"},"data":[0.0,0.0,0.0,0.0,0.0,0.0,0.0,0.0,0.0,0.0,0.0,0.0,0.0,0.0,0.0,0.0,0.0,0.0,0.0,0.0,0.0,0.0,0.0,0.0,0.0,0.0,0.0,0.0,0.0,0.0,0.0,0.0,0.0,0.0,0.0,0.0,0.0,0.0,0.0,0.0,0.0,0.0,0.0,0.0,0.0,0.0,0.0,0.0,0.0,0.0,0.0,0.0,0.0,0.0,0.0,0.0,0.0,0.0,0.0,0.0,0.0,0.0,0.0,0.0,0.0,0.0,0.0,0.0,0.0,0.0,0.0,0.0,0.0,0.0,0.0,0.0,0.0,0.0,0.0,0.0,0.0,0.0,0.0,0.0,0.0,0.0,0.0,0.0,0.0,0.0,0.0,0.0,0.0,0.0,0.0,0.0,0.0,0.0,0.0,0.0,0.0,0.0,0.0,0.0,0.0,0.0,0.0,0.0,0.0,0.0,0.0,0.0,0.0,0.0,0.0,0.0,0.0,0.0,0.0,0.0,0.0,0.0,0.0,0.0,0.0,0.0,0.0,0.0,0.0,0.0,0.0,0.0,0.0,0.0,0.0,0.0,0.0,0.0,0.0,0.0,0.0,0.0,0.0,0.0,0.0,0.0,0.0,0.0,0.0,0.0,0.0,0.0,0.0,0.0,0.0,0.0,0.0,0.0,0.0,0.0,0.0,0.0,0.0,0.0,0.0,0.0,0.0,0.0,0.0,0.0,0.0,0.0,0.0,0.0,0.0,0.0,0.0,0.0,0.0,0.0,0.0,0.0,0.0,0.0,0.0,0.0,0.0,0.0,0.0,0.0,0.0,0.0,0.0,0.0,0.0,0.0,0.0,0.0,0.0,0.0,0.0,0.0,0.0,0.0,0.0,0.0,0.0,0.0,0.0,0.0,0.0,0.0,0.0,0.0,0.0,0.0,0.0,0.0,0.0,0.0,0.0,0.0,0.0,0.0,0.0,0.0,0.0,0.0,0.0,0.0,0.0,0.0,0.0,0.0,0.0,0.0,0.0,0.0,0.0,0.0,0.0,0.0,0.0,0.0,0.0,0.0,0.0,0.0,0.0,0.0,0.0,0.0,0.0,0.0,0.0,0.0,0.0,0.0,0.0,0.0,0.0,0.0,0.0,0.0,0.0,0.0,0.0,0.0,0.0,0.0,0.0,0.0,0.0,0.0,0.0,0.0,0.0,0.0,0.0,0.0,0.0,0.0,0.0,0.0,0.0,0.0,0.0,0.0,0.0,0.0,0.0,0.0,0.0,0.0,0.0,0.0,0.0,0.0,0.0,0.0,0.0,0.0,0.0,0.0,0.0,0.0,0.0,0.0,0.0,0.0,0.0,0.0,0.0,0.0,0.0,0.0,0.0,0.0,0.0,0.0,0.0,0.0,0.0,0.0,0.0,0.0,0.0,0.0,0.0,0.0,0.0,0.0,0.0,0.0,0.0,0.0,0.0,0.0,0.0,0.0,0.0,0.0,0.0,0.0,0.0,0.0,0.0,0.0,0.0,0.0,0.0,0.0,0.0,0.0,0.0,0.0,0.0,0.0,0.0,0.0,0.0,0.0,0.0,0.0,0.0,0.0,0.0,0.0,0.0,0.0,0.0,0.0,0.0,0.0,0.0,0.0,0.0,0.0,0.0,0.0,0.0,0.0,0.0,0.0,0.0,0.0,0.0,0.0,0.0,0.0,0.0,0.0,0.0,0.0,0.0,0.0,0.0,0.0,0.0,0.0,0.0,0.0,0.0,0.0,0.0,0.0,0.0,0.0,0.0,0.0,0.0,0.0,0.0,0.0,0.0,0.0,0.0,0.0,0.0,0.0,0.0,0.0,0.0,0.0,0.0,0.0,0.0,0.0,0.0,0.0,0.0,0.0,0.0,0.0,0.0,0.0,0.0,0.0,0.0,0.0,0.0,0.0,0.0,0.0,0.0,0.0,0.0,0.0,0.0,0.0,0.0,0.0,0.0,0.0,0.0,0.0,0.0,0.0,0.0,0.0,0.0,0.0,0.0,0.0,0.0,0.0,0.0,0.0,0.0,0.0,0.0,0.0,0.0,0.0,0.0,0.0,0.0,0.0,0.0,0.0,0.0,0.0,0.0,0.0,0.0,0.0,0.0,0.0,0.0,0.0,0.0,0.0,0.0,0.0,0.0,0.0,0.0,0.0,0.0,0.0,0.0,0.0,0.0,0.0,0.0,0.0,0.0,0.0,0.0,0.0,0.0,0.0,0.0,0.0,0.0,0.0,0.0,0.0,0.0,0.0,0.0,0.0,0.0,0.0,0.0,0.0,0.0,0.0,0.0,0.0,0.0,0.0,0.0,0.0,0.0,0.0,0.0,0.0,0.0,0.0,0.0,0.0,0.0,0.0,0.0,0.0,0.0,0.0,0.0,0.0,0.0,0.0,0.0,0.0,0.0,0.0,0.0,0.0,0.0,0.0,0.0,0.0,0.0,0.0,0.0,0.0,0.0,0.0,0.0,0.0,0.0,0.0,0.0,0.0,0.0,0.0,0.0,0.0,0.0,0.0,0.0,0.0,0.0,0.0,0.0,0.0,0.0,0.0,0.0,0.0,0.0,0.0,0.0,0.0,0.0,0.0,0.0,0.0,0.0,0.0,0.0,0.0,0.0,0.0,0.0,0.0,0.0,0.0,0.0,0.0,0.0,0.0,0.0,0.0,0.0,0.0,0.0,0.0,0.0,0.0,0.0,0.0,0.0,0.0,0.0,0.0,0.0,0.0,0.0,0.0,0.0,0.0,0.0,0.0,0.0,0.0,0.0,0.0,0.0,0.0,0.0,0.0,0.0,0.0,0.0,0.0,0.0,0.0,0.0,0.0,0.0,0.0,0.0,0.0,0.0,0.0,0.0,0.0,0.0,0.0,0.0,0.0,0.0,0.0,0.0,0.0,0.0,0.0,0.0,0.0,0.0,0.0,0.0,0.0,0.0,0.0,0.0,0.0,0.0,0.0,0.0,0.0,0.0,0.0,0.0,0.0,0.0,0.0,0.0,0.0,0.0,0.0,0.0,0.0,0.0,0.0,0.0,0.0,0.0,0.0,0.0,0.0,0.0,0.0,0.0,0.0,0.0,0.0,0.0,0.0,0.0,0.0,0.0,0.0,0.0,0.0,0.0,0.0,0.0,0.0,0.0,0.0,0.0,0.0,0.0,0.0,0.0,0.0,0.0,0.0,0.0,0.0,0.0,0.0,0.0,0.0,0.0,0.0,0.0,0.0,0.0,0.0,0.0,0.0,0.0,0.0,0.0,0.0,0.0,0.0,0.0,0.0,0.0,0.0,0.0,0.0,0.0,0.0,0.0,0.0,0.0,0.0,0.0,0.0,0.0,0.0,0.0,0.0,0.0,0.0,0.0,0.0,0.0,0.0,0.0,0.0,0.0,0.0,0.0,0.0,0.0,0.0,0.0,0.0,0.0,0.0,0.0,0.0,0.0,0.0,0.0,0.0,0.0,0.0,0.0,0.0,0.0,0.0,0.0,0.0,0.0,0.0,0.0,0.0,0.0,0.0,0.0,0.0,0.0,0.0,0.0,0.0,0.0,0.0,0.0,0.0,0.0,0.0,0.0,0.0,0.0,0.0,0.0,0.0,0.0,0.0,0.0,0.0,0.0,0.0,0.0,0.0,0.0,0.0,0.0,0.0,0.0,0.0,0.0,0.0,0.0,0.0,0.0,0.0,0.0,0.0,0.0,0.0,0.0,0.0,0.0,0.0,0.0,0.0,0.0,0.0,0.0,0.0,0.0,0.0,0.0,0.0,0.0,0.0,0.0,0.0,0.0,0.0,0.0,0.0,0.0,0.0,0.0,0.0,0.0,0.0,0.0,0.0,0.0,0.0,0.0,0.0,0.0,0.0,0.0,0.0,0.0,0.0,0.0,0.0,0.0,0.0,0.0,0.0,0.0,0.0,0.0,0.0,0.0,0.0,0.0,0.0,0.0,0.0,0.0,0.0,0.0,0.0,0.0,0.0,0.0,0.0,0.0,0.0,0.0,0.0,0.0,0.0,0.0,0.0,0.0,0.0,0.0,0.0,0.0,0.0,0.0,0.0,0.0,0.0,0.0,0.0,0.0,0.0,0.0,0.0,0.0,0.0,0.0,0.0,0.0,0.0,0.0,0.0,0.0,0.0,0.0,0.0,0.0,0.0,0.0,0.0,0.0,0.0,0.0,0.0,0.0,0.0,0.0,0.0,0.0,0.0,0.0,0.0,0.0,0.0,-3.2082,0.0,0.0,0.0,0.0,0.0,0.0,0.0,0.0,0.0,0.0,0.0,0.0,0.0,0.0,0.0,0.0,0.0,0.0,0.0,0.0,0.0,0.0,0.0,0.0,0.0,0.0,0.0,0.0,0.0,0.0,0.0,0.0,0.0,0.0,0.0,0.0,0.0,0.0,0.0,0.0,0.0,0.0,0.0,0.0,0.0,0.0,0.0,0.0,0.0,0.0,0.0,0.0,0.0,0.0,0.0,0.0,0.0,0.0,0.0,0.0,0.0,0.0,0.0,0.0,0.0,0.0,0.0,0.0,0.0,0.0,0.0,0.0,0.0,0.0,0.0,0.0,0.0,0.0,0.0,0.0,0.0,0.0,0.0,0.0,0.0,0.0,0.0,0.0,0.0,0.0,0.0,0.0,0.0,0.0,0.0,0.0,0.0,0.0,0.0,0.0,0.0,0.0,0.0,0.0,0.0,0.0,0.0,0.0,0.0,0.0,-3.2634,-3.2874,-3.289,-3.2999,-3.3181,0.0,0.0,0.0,0.0,0.0,0.0,0.0,0.0,0.0,0.0,0.0,0.0,0.0,0.0,0.0,0.0,0.0,0.0,0.0,0.0,0.0,0.0,0.0,0.0,0.0,0.0,0.0,0.0,0.0,0.0,0.0,0.0,0.0,0.0,0.0,0.0,0.0,0.0,0.0,0.0,0.0,0.0,0.0,0.0,0.0,0.0,0.0,0.0,0.0,0.0,0.0,0.0,0.0,0.0,0.0,0.0,0.0,0.0,0.0,0.0,0.0,0.0,0.0,0.0,0.0,0.0,0.0,0.0,0.0,0.0,0.0,0.0,0.0,0.0,0.0,0.0,0.0,0.0,0.0,0.0,0.0,0.0,0.0,0.0,0.0,0.0,0.0,0.0,0.0,0.0,0.0,0.0,0.0,0.0,0.0,0.0,0.0,0.0,0.0,0.0,0.0,0.0,0.0,0.0,0.0,0.0,0.0,0.0,0.0,0.0,0.0,0.0,-3.3492,-3.3575,-3.3707,0.0,0.0,0.0,0.0,0.0,0.0,0.0,0.0,0.0,0.0,0.0,0.0,0.0,0.0,0.0,0.0,0.0,0.0,0.0,0.0,0.0,0.0,0.0,0.0,0.0,0.0,0.0,0.0,0.0,0.0,0.0,0.0,0.0,0.0,0.0,0.0,0.0,0.0,0.0,0.0,0.0,0.0,0.0,0.0,0.0,0.0,0.0,0.0,0.0,0.0,0.0,0.0,0.0,0.0,0.0,0.0,0.0,0.0,0.0,0.0,0.0,0.0,0.0,0.0,0.0,0.0,0.0,0.0,0.0,0.0,0.0,0.0,0.0,0.0,0.0,0.0,0.0,0.0,0.0,0.0,0.0,0.0,0.0,0.0,0.0,0.0,0.0,0.0,0.0,0.0,0.0,0.0,0.0,0.0,0.0,0.0,0.0,0.0,0.0,0.0,0.0,0.0,0.0,0.0,0.0,0.0,0.0,0.0,0.0,0.0,-3.408,-3.4116,-3.4383,0.0,-3.3663,0.0,0.0,0.0,0.0,0.0,0.0,0.0,0.0,0.0,0.0,0.0,0.0,0.0,0.0,0.0,0.0,0.0,0.0,0.0,0.0,0.0,0.0,0.0,0.0,0.0,0.0,0.0,0.0,0.0,0.0,0.0,0.0,0.0,0.0,0.0,0.0,0.0,0.0,0.0,0.0,0.0,0.0,0.0,0.0,0.0,0.0,0.0,0.0,0.0,0.0,0.0,0.0,0.0,0.0,0.0,0.0,0.0,0.0,0.0,0.0,0.0,0.0,0.0,0.0,0.0,0.0,0.0,0.0,0.0,0.0,0.0,0.0,0.0,0.0,0.0,0.0,0.0,0.0,0.0,0.0,0.0,0.0,0.0,0.0,0.0,0.0,0.0,0.0,0.0,0.0,0.0,0.0,0.0,0.0,0.0,0.0,0.0,0.0,0.0,0.0,0.0,0.0,0.0,0.0,0.0,0.0,0.0,0.0,0.0,0.0,-3.5525,-3.5232,-3.4888,-3.4685,0.0,0.0,0.0,0.0,0.0,0.0,0.0,0.0,0.0,0.0,0.0,0.0,0.0,0.0,0.0,0.0,0.0,0.0,0.0,0.0,0.0,0.0,0.0,0.0,0.0,0.0,0.0,0.0,0.0,0.0,0.0,0.0,0.0,0.0,0.0,0.0,0.0,0.0,0.0,0.0,0.0,0.0,0.0,0.0,0.0,0.0,0.0,0.0,0.0,0.0,0.0,0.0,0.0,0.0,0.0,0.0,0.0,0.0,0.0,0.0,0.0,0.0,0.0,0.0,0.0,0.0,0.0,0.0,0.0,0.0,0.0,0.0,0.0,0.0,0.0,0.0,0.0,0.0,0.0,0.0,0.0,0.0,0.0,0.0,0.0,0.0,0.0,0.0,0.0,0.0,0.0,0.0,0.0,0.0,0.0,0.0,0.0,0.0,0.0,0.0,0.0,0.0,0.0,0.0,0.0,0.0,0.0,0.0,0.0,0.0,-3.6914,-3.6793,-3.6454,-3.5827,-3.5584,-3.5694,0.0,0.0,0.0,0.0,0.0,0.0,0.0,0.0,0.0,0.0,0.0,0.0,0.0,0.0,0.0,0.0,0.0,0.0,0.0,0.0,0.0,0.0,0.0,0.0,0.0,0.0,0.0,0.0,0.0,0.0,0.0,0.0,0.0,0.0,0.0,0.0,0.0,0.0,0.0,0.0,0.0,0.0,0.0,0.0,0.0,0.0,0.0,0.0,0.0,0.0,0.0,0.0,0.0,0.0,0.0,0.0,0.0,0.0,0.0,0.0,0.0,0.0,0.0,0.0,0.0,0.0,0.0,0.0,0.0,0.0,0.0,0.0,0.0,0.0,0.0,0.0,0.0,0.0,0.0,0.0,0.0,0.0,0.0,0.0,0.0,0.0,0.0,0.0,0.0,0.0,0.0,0.0,0.0,0.0,0.0,0.0,0.0,0.0,0.0,0.0,0.0,0.0,0.0,0.0,0.0,0.0,0.0,0.0,-3.7198,-3.7443,-3.7662,-3.7924,-3.7611,-3.7107,0.0,0.0,0.0,0.0,0.0,0.0,0.0,0.0,0.0,0.0,0.0,0.0,0.0,0.0,0.0,0.0,0.0,0.0,0.0,0.0,0.0,0.0,0.0,0.0,0.0,0.0,0.0,0.0,0.0,0.0,0.0,0.0,0.0,0.0,0.0,0.0,0.0,0.0,0.0,0.0,0.0,0.0,0.0,0.0,0.0,0.0,0.0,0.0,0.0,0.0,0.0,0.0,0.0,0.0,0.0,0.0,0.0,0.0,0.0,0.0,0.0,0.0,0.0,0.0,0.0,0.0,0.0,0.0,0.0,0.0,0.0,0.0,0.0,0.0,0.0,0.0,0.0,0.0,0.0,0.0,0.0,0.0,0.0,0.0,0.0,0.0,0.0,0.0,0.0,0.0,0.0,0.0,0.0,0.0,0.0,0.0,0.0,0.0,0.0,0.0,0.0,0.0,0.0,0.0,0.0,0.0,0.0,0.0,0.0,-3.9049,-3.8861,-3.9035,-3.9554,-3.8572,-3.7962,0.0,0.0,0.0,0.0,0.0,0.0,0.0,0.0,0.0,0.0,0.0,0.0,0.0,0.0,0.0,0.0,0.0,0.0,0.0,0.0,0.0,0.0,0.0,0.0,0.0,0.0,0.0,0.0,0.0,0.0,0.0,0.0,0.0,0.0,0.0,0.0,0.0,0.0,0.0,0.0,0.0,0.0,0.0,0.0,0.0,0.0,0.0,0.0,0.0,0.0,0.0,0.0,0.0,0.0,0.0,0.0,0.0,0.0,0.0,0.0,0.0,0.0,0.0,0.0,0.0,0.0,0.0,0.0,0.0,0.0,0.0,0.0,0.0,0.0,0.0,0.0,0.0,0.0,0.0,0.0,0.0,0.0,0.0,0.0,0.0,0.0,0.0,0.0,0.0,0.0,0.0,0.0,0.0,0.0,0.0,0.0,0.0,0.0,0.0,0.0,0.0,0.0,0.0,0.0,0.0,0.0,0.0,0.0,0.0,-4.0194,0.0,-4.0018,-4.0496,-3.9515,-3.8967,0.0,0.0,0.0,0.0,0.0,0.0,0.0,0.0,0.0,0.0,0.0,0.0,0.0,0.0,0.0,0.0,0.0,0.0,0.0,0.0,0.0,0.0,0.0,0.0,0.0,0.0,0.0,0.0,0.0,0.0,0.0,0.0,0.0,0.0,0.0,0.0,0.0,0.0,0.0,0.0,0.0,0.0,0.0,0.0,0.0,0.0,0.0,0.0,0.0,0.0,0.0,0.0,0.0,0.0,0.0,0.0,0.0,0.0,0.0,0.0,0.0,0.0,0.0,0.0,0.0,0.0,0.0,0.0,0.0,0.0,0.0,0.0,0.0,0.0,0.0,0.0,0.0,0.0,0.0,0.0,0.0,0.0,0.0,0.0,0.0,0.0,0.0,0.0,0.0,0.0,0.0,0.0,0.0,0.0,0.0,0.0,0.0,0.0,0.0,0.0,0.0,0.0,0.0,0.0,0.0,0.0,0.0,0.0,-3.9875,-4.0462,-4.0485,-4.0542,-4.0686,-4.0511,-4.0111,0.0,0.0,0.0,0.0,0.0,0.0,0.0,0.0,0.0,0.0,0.0,0.0,0.0,0.0,0.0,0.0,0.0,0.0,0.0,0.0,0.0,0.0,0.0,0.0,0.0,0.0,0.0,0.0,0.0,0.0,0.0,0.0,0.0,0.0,0.0,0.0,0.0,0.0,0.0,0.0,0.0,0.0,0.0,0.0,0.0,0.0,0.0,0.0,0.0,0.0,0.0,0.0,0.0,0.0,0.0,0.0,0.0,0.0,0.0,0.0,0.0,0.0,0.0,0.0,0.0,0.0,0.0,0.0,0.0,0.0,0.0,0.0,0.0,0.0,0.0,0.0,0.0,0.0,0.0,0.0,0.0,0.0,0.0,0.0,0.0,0.0,0.0,0.0,0.0,0.0,0.0,0.0,0.0,0.0,0.0,0.0,0.0,0.0,0.0,0.0,0.0,0.0,0.0,0.0,0.0,0.0,0.0,0.0,0.0,-4.0617,-4.0662,-4.0649,-4.0692,-4.0649,-4.0481,0.0,0.0,0.0,0.0,0.0,0.0,0.0,0.0,0.0,0.0,0.0,0.0,0.0,0.0,0.0,0.0,0.0,0.0,0.0,0.0,0.0,0.0,0.0,0.0,0.0,0.0,0.0,0.0,0.0,0.0,0.0,0.0,0.0,0.0,0.0,0.0,0.0,0.0,0.0,0.0,0.0,0.0,0.0,0.0,0.0,0.0,0.0,0.0,0.0,0.0,0.0,0.0,0.0,0.0,0.0,0.0,0.0,0.0,0.0,0.0,0.0,0.0,0.0,0.0,0.0,0.0,0.0,0.0,0.0,0.0,0.0,0.0,0.0,0.0,0.0,0.0,0.0,0.0,0.0,0.0,0.0,0.0,0.0,0.0,0.0,0.0,0.0,0.0,0.0,0.0,0.0,0.0,0.0,0.0,0.0,0.0,0.0,0.0,0.0,0.0,0.0,0.0,0.0,0.0,0.0,0.0,0.0,0.0,0.0,-4.1485,-4.1222,-4.1139,-4.1201,-4.1139,-4.0938,-4.0581,0.0,0.0,0.0,0.0,0.0,0.0,0.0,0.0,0.0,0.0,0.0,0.0,0.0,0.0,0.0,0.0,0.0,0.0,0.0,0.0,0.0,0.0,0.0,0.0,0.0,0.0,0.0,0.0,0.0,0.0,0.0,0.0,0.0,0.0,0.0,0.0,0.0,0.0,0.0,0.0,0.0,0.0,0.0,0.0,0.0,0.0,0.0,0.0,0.0,0.0,0.0,0.0,0.0,0.0,0.0,0.0,0.0,0.0,0.0,0.0,0.0,0.0,0.0,0.0,0.0,0.0,0.0,0.0,0.0,0.0,0.0,0.0,0.0,0.0,0.0,0.0,0.0,0.0,0.0,0.0,0.0,0.0,0.0,0.0,0.0,0.0,0.0,0.0,0.0,0.0,0.0,0.0,0.0,0.0,0.0,0.0,0.0,0.0,0.0,0.0,0.0,0.0,0.0,0.0,0.0,0.0,0.0,0.0,-4.2992,-4.2423,-4.214,-4.2157,-4.1955,-4.1516,0.0,0.0,0.0,0.0,0.0,0.0,0.0,0.0,0.0,0.0,0.0,0.0,0.0,0.0,0.0,0.0,0.0,0.0,0.0,0.0,0.0,0.0,0.0,0.0,0.0,0.0,0.0,0.0,0.0,0.0,0.0,0.0,0.0,0.0,0.0,0.0,0.0,0.0,0.0,0.0,0.0,0.0,0.0,0.0,0.0,0.0,0.0,0.0,0.0,0.0,0.0,0.0,0.0,0.0,0.0,0.0,0.0,0.0,0.0,0.0,0.0,0.0,0.0,0.0,0.0,0.0,0.0,0.0,0.0,0.0,0.0,0.0,0.0,0.0,0.0,0.0,0.0,0.0,0.0,0.0,0.0,0.0,0.0,0.0,0.0,0.0,0.0,0.0,0.0,0.0,0.0,0.0,0.0,0.0,0.0,0.0,0.0,0.0,0.0,0.0,0.0,0.0,0.0,0.0,0.0,0.0,0.0,0.0,0.0,-4.5319,-4.5495,-4.5024,-4.3892,-4.315,-4.2379,0.0,0.0,0.0,0.0,0.0,0.0,0.0,0.0,0.0,0.0,0.0,0.0,0.0,0.0,0.0,0.0,0.0,0.0,0.0,0.0,0.0,0.0,0.0,0.0,0.0,0.0,0.0,0.0,0.0,0.0,0.0,0.0,0.0,0.0,0.0,0.0,0.0,0.0,0.0,0.0,0.0,0.0,0.0,0.0,0.0,0.0,0.0,0.0,0.0,0.0,0.0,0.0,0.0,0.0,0.0,0.0,0.0,0.0,0.0,0.0,0.0,0.0,0.0,0.0,0.0,0.0,0.0,0.0,0.0,0.0,0.0,0.0,0.0,0.0,0.0,0.0,0.0,0.0,0.0,0.0,0.0,0.0,0.0,0.0,0.0,0.0,0.0,0.0,0.0,0.0,0.0,0.0,0.0,0.0,0.0,0.0,0.0,0.0,0.0,0.0,0.0,0.0,0.0,0.0,0.0,0.0,0.0,0.0,-4.5454,-4.6109,-4.7515,-4.7636,-4.6334,-4.4429,-4.3068,0.0,0.0,0.0,0.0,0.0,0.0,0.0,0.0,0.0,0.0,0.0,0.0,0.0,0.0,0.0,0.0,0.0,0.0,0.0,0.0,0.0,0.0,0.0,0.0,0.0,0.0,0.0,0.0,0.0,0.0,0.0,0.0,0.0,0.0,0.0,0.0,0.0,0.0,0.0,0.0,0.0,0.0,0.0,0.0,0.0,0.0,0.0,0.0,0.0,0.0,0.0,0.0,0.0,0.0,0.0,0.0,0.0,0.0,0.0,0.0,0.0,0.0,0.0,0.0,0.0,0.0,0.0,0.0,0.0,0.0,0.0,0.0,0.0,0.0,0.0,0.0,0.0,0.0,0.0,0.0,0.0,0.0,0.0,0.0,0.0,0.0,0.0,0.0,0.0,0.0,0.0,0.0,0.0,0.0,0.0,0.0,0.0,0.0,0.0,0.0,0.0,0.0,0.0,0.0,0.0,0.0,0.0,0.0,-4.6684,-4.6135,-4.8669,-4.9681,-4.8831,-4.5737,-4.3761,0.0,0.0,0.0,0.0,0.0,0.0,0.0,0.0,0.0,0.0,0.0,0.0,0.0,0.0,0.0,0.0,0.0,0.0,0.0,0.0,0.0,0.0,0.0,0.0,0.0,0.0,0.0,0.0,0.0,0.0,0.0,0.0,0.0,0.0,0.0,0.0,0.0,0.0,0.0,0.0,0.0,0.0,0.0,0.0,0.0,0.0,0.0,0.0,0.0,0.0,0.0,0.0,0.0,0.0,0.0,0.0,0.0,0.0,0.0,0.0,0.0,0.0,0.0,0.0,0.0,0.0,0.0,0.0,0.0,0.0,0.0,0.0,0.0,0.0,0.0,0.0,0.0,0.0,0.0,0.0,0.0,0.0,0.0,0.0,0.0,0.0,0.0,0.0,0.0,0.0,0.0,0.0,0.0,0.0,0.0,0.0,0.0,0.0,0.0,0.0,0.0,0.0,0.0,0.0,0.0,0.0,0.0,0.0,-4.6838,-4.7339,-4.8828,-4.9542,-4.9353,-4.6411,-4.4337,0.0,0.0,0.0,0.0,0.0,0.0,0.0,0.0,0.0,0.0,0.0,0.0,0.0,0.0,0.0,0.0,0.0,0.0,0.0,0.0,0.0,0.0,0.0,0.0,0.0,0.0,0.0,0.0,0.0,0.0,0.0,0.0,0.0,0.0,0.0,0.0,0.0,0.0,0.0,0.0,0.0,0.0,0.0,0.0,0.0,0.0,0.0,0.0,-3.6215,0.0,0.0,0.0,0.0,0.0,0.0,0.0,0.0,0.0,0.0,0.0,0.0,0.0,0.0,0.0,0.0,0.0,0.0,0.0,0.0,0.0,0.0,0.0,0.0,0.0,0.0,0.0,0.0,0.0,0.0,0.0,0.0,0.0,0.0,0.0,0.0,0.0,0.0,0.0,0.0,0.0,0.0,0.0,0.0,0.0,0.0,0.0,0.0,0.0,0.0,0.0,0.0,0.0,0.0,0.0,0.0,0.0,0.0,0.0,-4.6706,-4.7686,-4.8696,-4.9218,-4.9106,-4.6958,-4.5342,0.0,0.0,0.0,0.0,0.0,0.0,0.0,0.0,0.0,0.0,0.0,0.0,0.0,0.0,0.0,0.0,0.0,0.0,0.0,0.0,0.0,0.0,0.0,0.0,0.0,0.0,0.0,0.0,0.0,0.0,0.0,0.0,0.0,0.0,0.0,0.0,0.0,0.0,0.0,0.0,0.0,0.0,0.0,0.0,0.0,0.0,0.0,0.0,0.0,0.0,0.0,0.0,0.0,0.0,0.0,0.0,0.0,0.0,0.0,0.0,0.0,0.0,0.0,0.0,0.0,0.0,0.0,0.0,0.0,0.0,0.0,0.0,0.0,0.0,0.0,0.0,0.0,0.0,0.0,0.0,0.0,0.0,0.0,0.0,0.0,0.0,0.0,0.0,0.0,0.0,0.0,0.0,0.0,0.0,0.0,0.0,0.0,0.0,0.0,0.0,0.0,0.0,0.0,0.0,0.0,0.0,0.0,-4.5517,-4.6486,-4.7755,-4.8441,-4.8813,-4.8813,-4.7293,-4.6249,-4.5772,0.0,0.0,0.0,0.0,0.0,0.0,0.0,0.0,0.0,0.0,0.0,0.0,0.0,0.0,0.0,0.0,0.0,0.0,0.0,0.0,0.0,0.0,0.0,0.0,0.0,0.0,0.0,0.0,0.0,0.0,0.0,0.0,0.0,0.0,0.0,0.0,0.0,0.0,-3.5126,-3.5579,0.0,0.0,0.0,0.0,0.0,0.0,0.0,0.0,-3.6884,0.0,0.0,0.0,0.0,0.0,0.0,0.0,0.0,0.0,0.0,0.0,0.0,0.0,0.0,0.0,0.0,0.0,0.0,0.0,0.0,0.0,0.0,0.0,0.0,0.0,0.0,0.0,0.0,0.0,0.0,0.0,0.0,0.0,0.0,0.0,0.0,0.0,0.0,0.0,0.0,0.0,0.0,0.0,0.0,0.0,0.0,0.0,0.0,0.0,0.0,0.0,0.0,0.0,0.0,0.0,0.0,-4.5003,-4.5607,-4.6654,-4.8162,-4.831,-4.8383,-4.8383,-4.7066,-4.619,-4.5805,0.0,0.0,0.0,0.0,0.0,0.0,0.0,0.0,0.0,0.0,0.0,0.0,0.0,0.0,0.0,0.0,0.0,0.0,0.0,0.0,0.0,0.0,0.0,0.0,0.0,0.0,0.0,0.0,0.0,0.0,0.0,0.0,0.0,0.0,0.0,0.0,0.0,0.0,0.0,-3.7261,-3.7095,0.0,0.0,0.0,0.0,0.0,0.0,0.0,0.0,-3.7584,0.0,0.0,0.0,0.0,0.0,0.0,0.0,0.0,0.0,0.0,0.0,0.0,0.0,0.0,0.0,0.0,0.0,0.0,0.0,0.0,0.0,0.0,0.0,0.0,0.0,0.0,0.0,0.0,0.0,0.0,0.0,0.0,0.0,0.0,0.0,0.0,0.0,0.0,0.0,0.0,0.0,0.0,0.0,0.0,0.0,0.0,0.0,0.0,0.0,0.0,0.0,0.0,0.0,0.0,0.0,-4.4535,-4.5234,-4.6095,-4.727,-4.7306,-4.7306,-4.7306,-4.6313,-4.5651,0.0,0.0,0.0,0.0,0.0,0.0,0.0,0.0,0.0,0.0,0.0,0.0,0.0,0.0,0.0,0.0,0.0,0.0,0.0,0.0,0.0,0.0,0.0,0.0,0.0,0.0,0.0,0.0,0.0,0.0,0.0,0.0,0.0,0.0,0.0,0.0,0.0,0.0,0.0,0.0,-3.8078,-3.8118,-3.8815,0.0,0.0,0.0,0.0,0.0,0.0,-3.8937,-3.8362,0.0,0.0,0.0,0.0,0.0,0.0,0.0,0.0,0.0,0.0,0.0,0.0,0.0,0.0,0.0,0.0,0.0,0.0,0.0,0.0,0.0,0.0,0.0,0.0,0.0,0.0,0.0,0.0,0.0,0.0,0.0,0.0,0.0,0.0,0.0,0.0,0.0,0.0,0.0,0.0,0.0,0.0,0.0,0.0,0.0,0.0,0.0,0.0,0.0,0.0,0.0,0.0,0.0,0.0,0.0,-4.393,-4.4763,-4.5587,-4.6354,-4.6389,-4.6389,-4.6389,-4.5435,-4.4884,0.0,0.0,0.0,0.0,0.0,0.0,0.0,0.0,0.0,0.0,0.0,0.0,0.0,0.0,0.0,0.0,0.0,0.0,0.0,0.0,0.0,0.0,0.0,0.0,0.0,0.0,0.0,0.0,0.0,0.0,0.0,0.0,0.0,0.0,0.0,0.0,0.0,0.0,0.0,0.0,0.0,-3.9103,-3.9433,-3.9715,0.0,0.0,0.0,0.0,-4.0358,-3.9918,0.0,0.0,0.0,0.0,0.0,0.0,0.0,0.0,0.0,0.0,0.0,0.0,0.0,0.0,0.0,0.0,0.0,0.0,0.0,0.0,0.0,0.0,0.0,0.0,0.0,0.0,0.0,0.0,0.0,0.0,0.0,0.0,0.0,0.0,0.0,0.0,0.0,0.0,0.0,0.0,0.0,0.0,0.0,0.0,0.0,0.0,0.0,0.0,0.0,0.0,0.0,0.0,0.0,0.0,0.0,0.0,-4.3412,-4.4613,-4.5587,-4.6354,-4.6389,-4.6389,-4.6354,-4.4539,-4.3769,0.0,0.0,0.0,0.0,0.0,0.0,0.0,0.0,0.0,0.0,0.0,0.0,0.0,0.0,0.0,0.0,0.0,0.0,0.0,0.0,0.0,0.0,0.0,0.0,0.0,0.0,0.0,0.0,0.0,0.0,0.0,0.0,0.0,0.0,0.0,0.0,0.0,0.0,0.0,0.0,0.0,-3.9581,-4.1613,-4.0217,-3.9451,0.0,0.0,-4.1813,-4.117,-4.1542,0.0,0.0,0.0,0.0,0.0,0.0,0.0,0.0,0.0,0.0,0.0,0.0,0.0,0.0,0.0,0.0,0.0,0.0,0.0,0.0,0.0,0.0,0.0,0.0,0.0,0.0,0.0,0.0,0.0,0.0,0.0,0.0,0.0,0.0,0.0,0.0,0.0,0.0,0.0,0.0,0.0,0.0,0.0,0.0,0.0,0.0,0.0,0.0,0.0,0.0,0.0,0.0,0.0,0.0,0.0,-4.1188,-4.2025,-4.3403,-4.4313,-4.4647,-4.5093,-4.5399,-4.5372,-4.3257,-4.2578,0.0,0.0,0.0,0.0,0.0,0.0,0.0,0.0,0.0,0.0,0.0,0.0,0.0,0.0,0.0,0.0,0.0,0.0,0.0,0.0,0.0,0.0,0.0,0.0,0.0,0.0,0.0,0.0,0.0,0.0,0.0,0.0,0.0,0.0,0.0,0.0,0.0,0.0,0.0,0.0,0.0,0.0,-4.0199,-4.0092,0.0,0.0,0.0,-4.2049,-4.1305,0.0,0.0,0.0,0.0,0.0,0.0,0.0,0.0,0.0,0.0,0.0,0.0,0.0,0.0,0.0,0.0,0.0,0.0,0.0,0.0,0.0,0.0,0.0,0.0,0.0,0.0,0.0,0.0,0.0,0.0,0.0,0.0,0.0,0.0,0.0,0.0,0.0,0.0,0.0,0.0,0.0,0.0,0.0,0.0,0.0,0.0,0.0,0.0,0.0,0.0,0.0,0.0,0.0,0.0,0.0,0.0,0.0,-4.0769,-4.2204,-4.2986,-4.3017,-4.3621,-4.3977,-4.3881,-4.2129,0.0,0.0,0.0,0.0,0.0,0.0,0.0,0.0,0.0,0.0,0.0,0.0,0.0,0.0,0.0,0.0,0.0,0.0,0.0,0.0,0.0,0.0,0.0,0.0,0.0,0.0,0.0,-2.9601,0.0,0.0,0.0,0.0,0.0,0.0,0.0,0.0,0.0,0.0,0.0,0.0,0.0,0.0,-4.0021,-3.903,-3.9747,-4.0296,0.0,0.0,-4.1659,-4.146,-4.2528,-4.2778,0.0,0.0,0.0,0.0,0.0,0.0,0.0,0.0,0.0,0.0,0.0,0.0,0.0,0.0,0.0,0.0,0.0,0.0,0.0,0.0,0.0,0.0,0.0,0.0,0.0,0.0,0.0,0.0,0.0,0.0,0.0,0.0,0.0,0.0,0.0,0.0,0.0,0.0,0.0,0.0,0.0,0.0,0.0,0.0,0.0,0.0,0.0,0.0,0.0,0.0,0.0,0.0,0.0,0.0,-3.99,-4.0025,-4.1372,-4.2109,-4.2109,-4.2173,-4.2173,-4.2173,-4.1372,-4.0666,0.0,0.0,0.0,0.0,0.0,0.0,0.0,0.0,0.0,0.0,0.0,0.0,0.0,0.0,0.0,0.0,0.0,0.0,0.0,0.0,0.0,0.0,0.0,0.0,0.0,0.0,0.0,0.0,0.0,0.0,0.0,0.0,0.0,0.0,0.0,0.0,0.0,0.0,0.0,0.0,0.0,-3.8998,-3.9686,-3.922,-3.9248,0.0,0.0,-4.0548,-4.1943,-4.2756,-4.3024,-4.2247,0.0,0.0,0.0,0.0,0.0,0.0,0.0,0.0,0.0,0.0,0.0,0.0,0.0,0.0,0.0,0.0,0.0,0.0,0.0,0.0,0.0,0.0,0.0,0.0,0.0,0.0,0.0,0.0,0.0,0.0,0.0,0.0,0.0,0.0,0.0,0.0,0.0,0.0,0.0,0.0,0.0,0.0,0.0,0.0,0.0,0.0,0.0,0.0,0.0,0.0,0.0,0.0,0.0,-3.858,-3.9125,-4.0474,-4.1229,-4.1198,-4.1691,-4.1981,-4.1981,-4.083,-4.0071,0.0,0.0,0.0,0.0,0.0,0.0,0.0,0.0,0.0,0.0,0.0,0.0,0.0,0.0,0.0,0.0,0.0,0.0,0.0,0.0,0.0,0.0,0.0,0.0,0.0,0.0,0.0,0.0,-3.1047,-3.1539,-3.2123,0.0,0.0,0.0,0.0,0.0,0.0,0.0,0.0,0.0,0.0,-3.9484,-4.0218,-4.0388,0.0,0.0,-4.1211,-4.1212,-4.1362,-4.2073,-4.2224,-4.1139,-4.111,0.0,0.0,0.0,0.0,0.0,0.0,0.0,0.0,0.0,0.0,0.0,0.0,0.0,0.0,0.0,0.0,0.0,0.0,0.0,0.0,0.0,0.0,0.0,0.0,0.0,0.0,0.0,0.0,0.0,0.0,0.0,0.0,0.0,0.0,0.0,0.0,0.0,0.0,0.0,0.0,0.0,0.0,0.0,0.0,0.0,0.0,0.0,0.0,0.0,0.0,0.0,0.0,-3.7207,-3.7819,-3.9161,-3.9829,-3.9829,-4.0727,-4.1229,-4.1229,-4.0158,-3.9403,0.0,0.0,0.0,0.0,0.0,0.0,0.0,0.0,0.0,0.0,0.0,0.0,0.0,0.0,0.0,0.0,0.0,0.0,0.0,0.0,0.0,0.0,0.0,0.0,0.0,0.0,0.0,0.0,-3.106,-3.1265,-3.1539,0.0,0.0,0.0,0.0,0.0,0.0,0.0,0.0,0.0,0.0,-3.9343,-4.0109,-4.0633,-4.0939,-4.0939,-4.0879,-4.0791,-4.0578,-4.1051,-4.1121,-4.0181,0.0,0.0,0.0,0.0,0.0,0.0,0.0,0.0,0.0,0.0,0.0,0.0,0.0,0.0,0.0,0.0,0.0,0.0,0.0,0.0,0.0,0.0,0.0,0.0,0.0,0.0,0.0,0.0,0.0,0.0,-2.6607,0.0,0.0,0.0,0.0,0.0,0.0,0.0,0.0,0.0,0.0,0.0,0.0,0.0,0.0,0.0,0.0,0.0,0.0,0.0,0.0,0.0,0.0,-3.5942,-3.5971,-3.7255,-3.789,-3.789,-3.8907,-3.9445,-3.9415,-3.9409,-3.8588,-3.6916,0.0,0.0,0.0,0.0,0.0,0.0,0.0,0.0,0.0,0.0,0.0,0.0,0.0,0.0,0.0,0.0,0.0,0.0,0.0,0.0,0.0,0.0,0.0,0.0,0.0,0.0,-2.993,-3.0306,-3.0633,0.0,0.0,0.0,0.0,0.0,0.0,0.0,0.0,0.0,0.0,-3.7082,-3.8219,-3.9265,-3.9439,-3.9529,-3.9529,-3.8972,-3.881,-3.9663,-3.9767,-3.978,0.0,0.0,0.0,0.0,0.0,0.0,0.0,0.0,0.0,0.0,0.0,0.0,0.0,0.0,0.0,0.0,0.0,0.0,0.0,0.0,0.0,0.0,0.0,0.0,0.0,0.0,0.0,-2.716,-2.6912,0.0,0.0,0.0,0.0,0.0,0.0,0.0,0.0,0.0,0.0,0.0,-2.7455,-2.678,0.0,0.0,0.0,0.0,0.0,0.0,0.0,0.0,0.0,0.0,0.0,0.0,-3.4901,-3.4957,-3.6105,-3.6749,-3.6721,-3.707,-3.7291,-3.7291,-3.7291,-3.6816,-3.5853,0.0,0.0,0.0,0.0,0.0,0.0,0.0,0.0,0.0,0.0,0.0,0.0,0.0,0.0,0.0,0.0,0.0,0.0,0.0,0.0,0.0,0.0,0.0,0.0,0.0,-3.0532,0.0,0.0,0.0,0.0,0.0,0.0,0.0,0.0,0.0,0.0,0.0,-3.4873,-3.5917,-3.6431,-3.7007,-3.7848,-3.8938,-3.9799,0.0,0.0,0.0,0.0,0.0,0.0,0.0,0.0,0.0,0.0,0.0,0.0,0.0,0.0,-3.6847,-3.6991,-3.7142,-3.7158,-3.6906,0.0,0.0,0.0,0.0,0.0,0.0,0.0,0.0,0.0,0.0,0.0,0.0,0.0,0.0,-2.6787,0.0,-2.6553,0.0,0.0,0.0,0.0,0.0,0.0,0.0,0.0,-2.6343,-2.6413,-2.7207,-2.6512,-2.6558,0.0,-2.7318,-2.7739,0.0,0.0,0.0,0.0,0.0,0.0,0.0,0.0,-3.3821,-3.3876,-3.5056,-3.5682,-3.5694,-3.6013,-3.6184,-3.6184,-3.5854,-3.5491,-3.5098,-3.4423,-3.3626,0.0,0.0,0.0,0.0,0.0,0.0,0.0,0.0,0.0,0.0,0.0,0.0,0.0,0.0,0.0,0.0,0.0,0.0,0.0,0.0,0.0,0.0,0.0,-3.0031,0.0,0.0,0.0,0.0,0.0,0.0,0.0,0.0,0.0,-3.3607,-3.414,-3.4736,-3.5791,-3.6171,-3.6497,-3.7123,0.0,0.0,0.0,0.0,0.0,0.0,0.0,-3.8711,-3.7805,-3.8631,-3.9468,-3.9724,-3.908,-3.8619,-3.8917,0.0,0.0,-3.7623,-3.7776,-3.7803,-3.7521,-3.8171,-3.8735,-3.8783,-3.9236,-3.985,0.0,0.0,0.0,0.0,0.0,0.0,0.0,0.0,-2.6121,-2.5354,0.0,-2.5354,0.0,0.0,0.0,0.0,0.0,-2.6514,0.0,0.0,-2.7073,-2.6777,-2.6456,-2.6436,-2.6406,-2.6447,-2.6656,-2.6739,-2.6769,-2.7411,0.0,0.0,0.0,0.0,0.0,0.0,-3.2752,-3.2804,-3.3989,-3.4677,-3.4677,-3.5601,-3.6065,-3.6053,-3.5156,-3.4635,-3.465,-3.4,-3.363,-3.3537,-3.2529,0.0,0.0,0.0,0.0,0.0,0.0,0.0,0.0,0.0,0.0,0.0,0.0,0.0,0.0,0.0,0.0,0.0,0.0,0.0,0.0,-2.8751,0.0,0.0,0.0,0.0,0.0,0.0,0.0,0.0,0.0,0.0,-3.2498,-3.3721,-3.4721,-3.5442,0.0,0.0,0.0,0.0,-3.7607,-3.6448,-3.6267,-3.6101,-3.5604,-3.6844,-3.7796,-3.7767,0.0,0.0,-4.1326,-3.9793,-3.8692,-3.949,-3.9009,-3.8242,-3.7618,-3.8111,-3.839,-3.7772,-3.8247,-3.8718,-3.8856,-3.9177,-3.9466,-2.7125,0.0,0.0,0.0,0.0,-2.6768,-2.6199,-2.624,-2.4527,-2.3529,-2.31,-2.3014,0.0,0.0,0.0,0.0,0.0,0.0,-2.6247,-2.6665,-2.6595,-2.666,-2.6836,-2.6836,-2.6836,-2.6816,-2.6863,-2.6943,-2.6923,-2.7129,-2.7754,-2.8793,0.0,0.0,0.0,0.0,-3.2011,-3.2377,-3.3131,-3.3556,-3.3556,-3.3827,-3.3969,-3.3995,-3.37,-3.3556,-3.3556,-3.3361,-3.2676,-3.1424,-3.102,0.0,0.0,0.0,0.0,0.0,0.0,0.0,0.0,0.0,0.0,0.0,0.0,0.0,0.0,0.0,0.0,0.0,0.0,0.0,-2.7971,-2.7591,-2.7524,0.0,0.0,0.0,0.0,0.0,0.0,0.0,0.0,0.0,-3.0779,-3.2389,-3.3717,0.0,0.0,-3.4093,-3.4253,-3.5373,-3.6293,-3.6416,-3.6974,0.0,-3.7855,-3.7867,-3.7696,-3.7238,-3.7562,-3.8268,-3.9282,-3.9361,-3.9455,-4.004,-4.001,-3.9619,-3.899,-3.9018,-3.9068,-3.8957,-3.9518,-4.006,-4.0196,-4.1107,-4.2067,-2.6069,-2.7342,-2.6646,-2.6482,-2.6573,-2.5617,-2.5241,-2.5362,-2.4188,-2.3406,-2.3009,-2.2982,-2.2592,-2.1921,-2.2519,0.0,0.0,0.0,-2.509,-2.6286,-2.6286,-2.673,-2.7448,-2.7519,-2.7519,-2.7519,-2.7344,-2.7285,-2.7266,-2.6934,-2.7324,-2.8432,0.0,0.0,-2.9433,-3.002,-3.0428,-3.0764,-3.1336,-3.1645,-3.1645,-3.1645,-3.1645,-3.1645,-3.1601,-3.1645,-3.1645,-3.1645,-3.1124,-3.0043,-2.979,-2.9047,0.0,0.0,0.0,0.0,0.0,0.0,0.0,0.0,0.0,0.0,0.0,-2.8027,-2.7725,0.0,0.0,0.0,-2.7393,-2.7122,-2.6925,-2.6756,0.0,0.0,0.0,0.0,0.0,0.0,0.0,-2.8764,-2.9365,-3.0061,-3.0722,-3.1879,-3.2945,-3.3616,-3.3936,-3.3972,-3.3771,0.0,-3.559,-3.5737,-3.6262,-3.6758,-3.719,-3.7483,-3.7733,-3.8046,-3.8088,-3.8311,-3.8971,-3.9276,-3.9377,-3.9469,-3.9613,-3.9534,-3.8848,-3.909,-3.9403,-3.9409,-3.9809,-4.0274,-4.0588,-4.1559,-4.2458,-2.57,-2.5526,-2.3953,-2.3698,-2.4212,-2.4097,-2.4275,-2.4568,-2.4434,-2.4182,-2.385,-2.4198,-2.3795,-2.275,-2.2076,0.0,-2.2662,-2.2645,-2.3928,-2.5971,-2.5971,-2.67,-2.8003,-2.811,-2.8198,-2.816,-2.7896,-2.7806,-2.7728,-2.6984,-2.7013,-2.7855,-2.7558,-2.7547,-2.79,-2.8455,-2.8723,-2.8813,-2.926,-2.953,-2.953,-2.953,-2.9508,-2.953,-2.953,-2.953,-2.953,-2.953,-2.9484,-2.9324,-2.8855,-2.8565,-2.8409,0.0,0.0,0.0,0.0,0.0,0.0,0.0,0.0,0.0,0.0,0.0,0.0,0.0,0.0,0.0,-2.7653,0.0,-2.5889,-2.6337,0.0,0.0,0.0,-2.849,-2.8905,-2.8407,-2.8656,-3.0144,0.0,0.0,-3.1571,-3.1819,-3.2291,-3.3212,-3.448,-3.5169,-3.467,-3.5086,-3.5307,-3.4921,-3.4851,-3.4851,-3.5274,-3.6322,-3.7626,-3.8983,-3.9623,-3.9453,-3.9573,-3.9216,-3.8638,-3.827,-3.842,-3.8427,-3.7806,-3.8509,-3.9265,-3.9228,-3.9337,-3.9666,-4.0378,-4.0724,-4.1264,-2.2984,-2.2942,-2.2468,-2.3589,-2.5425,-2.4235,-2.3749,-2.3734,-2.2288,-2.161,-2.1526,-2.1357,-2.1741,-2.2579,-2.2427,-2.3017,-2.4155,-2.4171,-2.4482,-2.505,-2.505,-2.5222,-2.5623,-2.6796,-2.7214,-2.7032,-2.8055,-2.8457,-2.8144,-2.793,-2.7656,-2.726,-2.7141,-2.7868,-2.9296,-2.9546,-2.9791,-3.0195,-3.0306,-3.0373,-3.0421,-3.0373,-3.0373,-3.0373,-3.0373,-3.0373,-3.0373,-3.0373,-2.9943,-2.8976,-2.8843,-2.8195,-2.6984,-2.6343,0.0,0.0,0.0,0.0,0.0,0.0,0.0,0.0,0.0,-2.6188,-2.5827,0.0,-2.5664,0.0,-2.6324,-2.6646,-2.668,-2.6802,0.0,0.0,-2.7752,-2.8036,-2.8428,-2.8608,-2.8734,-2.881,-2.896,-2.9172,-2.9574,-3.0588,-3.1464,-3.2005,-3.3036,-3.3767,-3.3671,-3.4708,-3.5458,-3.5311,-3.5587,-3.6003,-3.5977,-3.629,-3.6764,-3.7124,-3.7243,-3.7494,-3.8379,-3.8407,-3.8246,-3.8129,-3.8145,-3.782,-3.6761,-3.7444,-3.8107,-3.8248,-3.8804,-3.9445,-3.9666,-4.0239,-4.0826,-2.1991,-2.1991,-2.1991,-2.2869,-2.4167,-2.3102,-2.2594,-2.2389,-2.136,-2.0869,-2.0855,-2.0695,-2.1026,-2.1679,-2.1679,-2.2076,-2.2691,-2.2691,-2.3047,-2.3697,-2.3697,-2.4034,-2.4736,-2.5608,-2.591,-2.5777,-2.7323,-2.79,-2.7578,-2.825,-2.8242,-2.7598,-2.7578,-2.8093,-2.9103,-2.8404,-2.8178,-2.8479,-2.8669,-2.888,-2.9042,-2.9042,-2.8936,-2.8796,-2.8796,-2.869,-2.8479,-2.8479,-2.814,-2.7476,-2.7427,-2.7051,-2.6143,-2.5684,-2.5332,0.0,0.0,0.0,0.0,0.0,0.0,0.0,0.0,0.0,0.0,0.0,-2.5527,-2.5898,-2.6719,-2.7324,-2.7559,-2.7578,-2.7754,-2.8184,-2.8223,-2.8379,-2.8809,-2.9062,-2.9199,-2.916,-2.9355,-2.957,-2.9766,-3.0438,-3.102,-3.1243,-3.2018,-3.269,-3.3135,-3.3713,-3.4054,-3.4126,-3.4872,-3.5763,-3.6263,-3.6405,-3.6405,-3.6405,-3.6405,-3.664,-3.7243,-3.7335,-3.7176,-3.6726,-3.6952,-3.6956,-3.5832,-3.6369,-3.706,-3.7214,-3.7927,-3.8767,-3.9301,-3.9809,-4.0205,-2.2098,-2.2098,-2.2098,-2.2071,-2.2017,-2.1764,-2.147,-2.1162,-2.1162,-2.1149,-2.1109,-2.1109,-2.0975,-2.0797,-2.0735,-2.0588,-2.0347,-2.0286,-2.1064,-2.2302,-2.2302,-2.3005,-2.422,-2.4456,-2.4499,-2.4509,-2.6082,-2.6654,-2.6338,-2.7697,-2.8279,-2.8057,-2.8033,-2.8028,-2.8144,-2.668,-2.5908,-2.6025,-2.6387,-2.6738,-2.709,-2.7051,-2.6836,-2.6504,-2.6465,-2.6289,-2.5869,-2.5849,-2.5849,-2.5849,-2.5849,-2.5869,-2.5927,-2.5566,-2.5399,0.0,-2.4791,0.0,0.0,0.0,0.0,0.0,0.0,0.0,0.0,-2.5799,-2.6137,-2.7136,-2.7718,-2.8164,-2.8457,-2.8457,-2.8613,-2.9023,-2.9082,-2.9258,-2.9744,-2.9746,-2.9883,-3.0234,-3.0273,-3.0449,-3.0781,-3.0898,-3.0879,-3.0936,-3.1106,-3.1548,-3.232,-3.2463,-3.2437,-3.228,-3.3304,-3.4459,-3.5355,-3.5763,-3.581,-3.6001,-3.6073,-3.6216,-3.6405,-3.6452,-3.61,-3.5138,-3.5569,-3.5695,-3.4721,-3.5319,-3.5974,-3.6013,-3.6866,-3.789,-3.887,-3.9337,-3.9631,-2.2767,-2.2767,-2.2767,-2.2552,-2.2325,-2.2285,-2.1951,-2.1534,-2.1534,-2.1336,-2.1109,-2.1109,-2.1082,-2.1029,-2.1029,-2.0989,-2.0949,-2.0949,-2.1061,-2.1374,-2.1374,-2.1485,-2.186,-2.3195,-2.3597,-2.3338,-2.4865,-2.5453,-2.5044,-2.5333,-2.5948,-2.6773,-2.65,-2.6838,-2.7721,0.0,0.0,0.0,-2.7611,-2.7513,-2.7519,-2.7207,-2.6973,-2.6894,-2.6894,0.0,-2.6777,-2.6727,-2.6777,-2.6777,-2.6777,0.0,0.0,0.0,0.0,0.0,0.0,0.0,0.0,0.0,0.0,0.0,-2.3465,-2.4333,-2.6492,-2.6218,-2.6619,-2.8334,-2.7527,-2.753,-2.9186,-2.9336,-2.9492,-2.9902,-2.9961,-3.0137,-3.0586,-3.0625,-3.0684,-3.0742,-3.0762,-3.0801,-3.0859,-3.0898,-3.0898,-3.0898,-3.0401,-3.0052,-3.0264,-3.141,-3.2202,-3.2331,-3.2532,-3.2783,-3.3032,-3.3181,-3.3749,-3.441,-3.4775,-3.5162,-3.6121,-3.6332,-3.5981,-3.4926,-3.4906,-3.4679,-3.3657,-3.4262,-3.4979,-3.4979,-3.5774,-3.6799,-3.7919,-3.8797,-3.9445,-2.2859,0.0,-2.2859,-2.2779,0.0,-2.2632,-2.2392,-2.1964,-2.167,-2.1454,-2.1109,-2.1109,-2.1109,-2.1109,-2.1109,-2.1109,-2.1109,-2.1109,-2.1109,-2.1109,-2.1109,-2.1109,-2.1172,-2.1978,-2.2256,-2.2052,-2.3673,-2.4217,-2.3904,-2.4585,-2.5211,-2.5623,-2.5417,-2.5621,-2.6168,-2.5971,-2.657,-2.7988,-2.7826,-2.7773,-2.7949,-2.7754,-2.7539,-2.7363,-2.7344,0.0,0.0,0.0,0.0,0.0,0.0,0.0,0.0,-2.5313,0.0,-2.5109,-2.4367,-2.401,-2.4199,-2.3661,-2.3429,-2.3844,-2.4024,-2.4513,-2.5522,-2.5395,-2.5826,-2.6993,-2.6359,-2.6458,-2.7643,-2.7813,-2.7885,-2.8084,-2.8161,-2.8269,-2.8509,-2.9216,-2.9648,-2.9766,-3.0392,-3.0898,-3.0898,-3.0898,-3.0898,-3.084,-3.0137,-2.957,-2.9603,-2.9977,-3.0484,-3.1184,-3.1338,-3.1571,-3.218,-3.228,-3.2431,-3.3204,-3.3353,-3.397,-3.5187,-3.5182,-3.4883,-3.4649,-3.45,-3.4022,-3.3338,-3.3556,-3.3911,-3.3995,-3.4733,-3.5561,-3.6239,-3.751,-3.8767,-2.2859,-2.2859,-2.2859,-2.2859,-2.2859,-2.2859,-2.2672,-2.2311,0.0,0.0,0.0,-2.1136,-2.1109,-2.1109,-2.1109,-2.1109,-2.1109,-2.1109,-2.1109,-2.1109,-2.1109,-2.1109,-2.1109,-2.1109,-2.1109,-2.1172,-2.2529,-2.2945,-2.262,-2.393,-2.4556,-2.4478,-2.4381,-2.4493,-2.4678,-2.4662,-2.5491,-2.705,-2.7096,-2.7229,-2.7552,-2.7495,-2.7286,-2.6964,-2.6945,-2.6194,-2.4668,-2.5718,-2.5841,-2.465,-2.4545,-2.458,-2.4651,-2.3459,-2.2792,-2.2858,-2.2915,-2.3055,-2.3384,-2.3387,-2.3589,-2.398,-2.4328,-2.4487,-2.4268,-2.4428,-2.4752,-2.5386,-2.518,-2.5294,-2.5951,-2.5984,-2.5984,-2.5984,-2.5984,-2.6029,-2.6106,-2.7134,-2.7991,-2.8128,-2.9098,-3.002,-2.9903,-2.9903,-3.002,-2.9925,-2.9049,-2.8839,-2.8889,-2.8657,-2.89,-2.9755,-2.9964,-3.0307,-3.1214,-3.1418,-3.1673,-3.1876,-3.1927,-3.2454,-3.3482,-3.3571,-3.3458,-3.3725,-3.3711,-3.3369,-3.2891,-3.2982,-3.3068,-3.3136,-3.3784,-3.447,-3.4774,-3.6068,-3.7548,-2.2859,-2.2859,-2.2859,-2.2859,-2.2859,-2.2859,-2.2552,-2.2031,-2.1762,-2.1601,-2.147,-2.1229,-2.1109,-2.1109,-2.1109,-2.1109,-2.1109,-2.1109,-2.1109,-2.1109,-2.1109,-2.1109,-2.1109,-2.1109,-2.1109,-2.1109,-2.1348,-2.1398,-2.142,-2.1595,-2.2366,-2.3518,-2.3323,-2.3636,-2.4636,-2.4662,-2.4829,-2.5084,-2.4765,-2.4647,-2.4698,-2.4267,-2.4083,-2.3978,-2.4033,-2.3906,-2.3618,-2.3839,-2.3784,-2.3618,-2.3618,-2.3766,-2.4175,-2.3893,-2.4057,-2.4293,-2.3212,-2.2585,-2.263,-2.1501,-2.0887,-2.1251,-2.1541,-2.2657,-2.4865,-2.4266,-2.4362,-2.5659,-2.4561,-2.4409,-2.5802,-2.5863,-2.5802,-2.5863,-2.5984,-2.5984,-2.5802,-2.6106,-2.6349,-2.6349,-2.653,-2.6832,-2.6953,-2.6893,-2.7013,-2.673,-2.6485,-2.5903,-2.6664,-2.7587,-2.8301,-2.8548,-2.8548,-2.8654,-2.9112,-2.89,-2.9513,-3.0411,-3.0566,-3.103,-3.2381,-3.2203,-3.1851,-3.1563,-3.2018,-3.2067,-3.1608,-3.2394,-3.281,-3.2896,-3.3172,-3.353,-3.4345,-3.502,-3.5814,-1.9773,-1.9982,-2.0963,-2.139,-2.1446,-2.2277,-2.2472,-2.2191,-2.1815,-2.1521,-2.1296,-2.1162,-2.1109,-2.1109,-2.1109,-2.1109,-2.1109,-2.1109,-2.1109,-2.1109,-2.1109,-2.1109,-2.1109,-2.1109,-2.1109,-2.1109,-2.1109,-2.1109,-2.1109,-2.1109,-2.1475,-2.2201,-2.2012,-2.2243,-2.2698,-2.2745,-2.2745,-2.2791,-2.383,-2.4433,-2.4433,-2.4212,-2.413,-2.413,-2.413,-2.3729,-2.2937,-2.3671,-2.3729,-2.2937,-2.2879,-2.3014,-2.3212,-2.2422,-2.2068,-2.2215,-2.1804,-2.1493,-2.1554,-2.1047,-2.0775,-2.0895,-2.1029,-2.1609,-2.2918,-2.2553,-2.2514,-2.3248,-2.264,-2.2514,-2.3234,-2.3373,-2.3373,-2.3373,-2.3358,-2.3296,-2.3435,-2.4224,-2.4717,-2.4778,-2.5497,-2.5968,-2.5984,-2.5984,-2.5946,-2.5747,-2.5118,-2.4758,-2.4851,-2.5443,-2.6499,-2.7906,-2.8301,-2.8301,-2.8301,-2.8301,-2.8601,-2.9144,-2.9197,-2.9755,-3.0863,-3.0673,-3.0406,-3.0752,-3.0856,-3.0514,-3.0237,-3.0643,-3.1291,-3.2021,-3.2064,-3.2519,-3.3462,-3.4027,-3.4634,-1.7178,-1.7388,-1.8798,-1.9461,-1.9519,-2.065,-2.112,-2.1019,-2.0535,-2.0464,-2.0552,-2.0919,-2.1109,-2.1109,-2.1109,-2.1109,-2.1109,-2.1109,-2.1109,-2.1109,-2.1109,-2.1109,-2.1109,-2.1109,-2.1109,-2.1109,-2.1109,-2.1109,-2.1109,-2.1109,-2.1109,-2.1109,-2.1109,-2.1109,-2.1109,-2.1109,-2.1109,-2.1195,-2.2929,-2.3901,-2.3917,-2.3917,-2.3917,-2.3917,-2.3857,-2.3395,-2.2345,-2.3276,-2.332,-2.2284,-2.2164,-2.2164,-2.2103,-2.1086,-2.0428,-2.0454,-2.0641,-2.0775,-2.0788,-2.0975,-2.1109,-2.1109,-2.1109,-2.1109,-2.1109,-2.1109,-2.1109,-2.1109,-2.1159,-2.1172,-2.1222,-2.1222,-2.1109,-2.1109,-2.1109,-2.1285,-2.1285,-2.2278,-2.3014,-2.3201,-2.4163,-2.4824,-2.4869,-2.4822,-2.4524,-2.4083,-2.3785,-2.334,-2.3287,-2.3319,-2.4488,-2.6445,-2.7565,-2.7726,-2.7853,-2.8121,-2.8281,-2.8301,-2.8354,-2.8787,-2.9372,-2.8961,-2.8695,-2.9467,-2.9365,-2.9068,-2.9004,-2.9326,-2.9875,-3.0643,-3.0822,-3.1223,-3.2389,-3.271,-3.3273,-1.7107,-1.7248,-1.7378,-1.7416,-1.7337,-1.7381,-1.7304,-1.7124,-1.6918,-1.763,-1.8844,-2.0399,-2.1046,-2.1109,-2.1109,-2.1109,-2.1109,-2.1109,-2.1109,-2.1109,-2.1109,-2.1109,-2.1109,-2.1109,-2.1109,-2.1109,-2.1109,-2.1109,-2.1109,-2.1109,-2.1109,-2.1109,-2.1109,-2.1109,-2.1109,-2.1109,-2.1109,-2.1109,-2.1294,-2.1456,-2.1456,-2.1456,-2.1393,-2.1393,-2.1442,-2.1393,-2.1289,-2.1393,-2.1393,-2.1281,-2.1254,-2.1267,-2.1204,-2.1078,-2.1015,-2.1015,-2.1042,-2.1069,-2.1069,-2.1096,-2.1109,-2.1109,-2.1109,-2.1109,-2.1109,-2.1109,-2.1109,-2.1109,-2.1109,-2.1109,-2.1109,-2.1109,-2.1109,-2.1109,-2.1109,-2.1109,-2.1109,-2.1235,-2.1348,-2.1348,-2.1762,-2.1601,-2.1846,-2.1686,-2.1202,-2.103,-2.0892,-2.1017,-2.166,-2.1813,-2.2266,-2.3989,-2.5316,-2.6155,-2.6372,-2.7438,-2.7726,-2.8014,-2.8194,-2.8072,-2.7826,-2.757,-2.7199,-2.7569,-2.7565,-2.7762,-2.7981,-2.8541,-2.928,-2.951,-2.9692,-3.0011,-3.0998,-3.11,-3.1353,-1.3624,-1.3763,-1.4865,-1.5912,-1.676,-1.6681,-1.6537,-1.6369,-1.6171,-1.6449,-1.7023,-1.7731,-1.9152,-2.1032,-2.1109,-2.1109,-2.1109,-2.1109,-2.1109,-2.1109,-2.1109,-2.1109,-2.1109,-2.1109,-2.1109,-2.1109,-2.1109,-2.1109,-2.1109,-2.1109,-2.1109,-2.1109,-2.1109,-2.1109,-2.1109,-2.1109,-2.1109,-2.1109,-2.1109,-2.1109,-2.1109,-2.1109,-2.1109,-2.1109,-2.1109,-2.1109,-2.1109,-2.1109,-2.1109,-2.1109,-2.1109,-2.1109,-2.1109,-2.1109,-2.1109,-2.1109,-2.1109,-2.1109,-2.1109,-2.1109,-2.1109,-2.1109,-2.1109,-2.1109,-2.1109,-2.1109,-2.1109,-2.1109,-2.1109,-2.1109,-2.1109,-2.1109,-2.1109,-2.1109,-2.1109,-2.1109,-2.1109,-2.1109,-2.1109,-2.1096,-2.0949,-2.0855,-2.0788,-2.0441,-2.0094,-1.98,-1.9679,-1.9887,-2.027,-2.0314,-2.0544,-2.1202,-2.2492,-2.3766,-2.4544,-2.5151,-2.5663,-2.5663,-2.5663,-2.5629,-2.6215,-2.6001,-2.5816,-2.6195,-2.6388,-2.6448,-2.6476,-2.6791,-2.7342,-2.7955,-2.9096,-2.9601,-3.0079,-2.9734,-2.9779,-1.1234,-1.1427,-1.2612,-1.3942,-1.5125,-1.493,-1.4846,-1.4827,-1.4548,-1.4754,-1.52,-1.5209,-1.6818,-1.9483,-2.0132,-2.0589,-2.0982,-2.0589,-2.0652,-2.0982,-2.0652,-2.0652,-2.1046,-2.1109,-2.1109,-2.1109,-2.1109,-2.1109,-2.1109,-2.1109,-2.1109,-2.1109,-2.1109,-2.1109,-2.1109,-2.1109,-2.1109,-2.1109,-2.1109,-2.1109,-2.1109,-2.1109,-2.1109,-2.1109,-2.1109,-2.1109,-2.1109,-2.1109,-2.1109,-2.1109,-2.1109,-2.1109,-2.1109,-2.1109,-2.1109,-2.1109,-2.1109,-2.1109,-2.1109,-2.1109,-2.1109,-2.1109,-2.1109,-2.1109,-2.1109,-2.1109,-2.1109,-2.1109,-2.1109,-2.1109,-2.1109,-2.1109,-2.1109,-2.1109,-2.1109,-2.1109,-2.1109,-2.1109,-2.1069,-2.0989,-2.0815,-2.0588,-2.0414,-2.008,-1.98,-1.9666,-1.9506,-1.943,-1.943,-1.9475,-1.9475,-1.9417,-2.0371,-2.1529,-2.287,-2.3822,-2.371,-2.3789,-2.3978,-2.4128,-2.4542,-2.4263,-2.405,-2.4249,-2.4758,-2.5205,-2.5265,-2.5411,-2.582,-2.6839,-2.7767,-2.8473,-2.8866,-2.8536,-2.8497,-1.1234,-1.1207,-1.1077,-1.1226,-1.1212,-1.1192,-1.1063,-1.1335,-1.1115,-1.1894,-1.3325,-1.339,-1.4428,-1.6302,-1.7795,-1.9483,-2.0652,-1.9291,-1.9419,-2.0526,-1.9291,-1.9483,-2.1032,-2.1109,-2.0982,-2.0856,-2.0882,-2.1022,-2.1072,-2.1136,-2.1109,-2.1136,-2.1162,-2.1136,-2.1086,-2.1036,-2.1059,-2.0972,-2.0845,-2.0946,-2.0932,-2.0932,-2.0882,-2.0832,-2.1109,-2.1046,-2.1032,-2.1046,-2.1032,-2.1046,-2.1046,-2.1109,-2.1109,-2.1046,-2.0969,-2.0906,-2.0906,-2.0969,-2.0843,-2.0779,-2.0779,-2.0906,-2.0652,-2.0906,-2.0589,-2.0589,-2.0589,-2.0982,-2.0652,-2.0716,-2.0716,-2.0906,-2.1109,-2.1109,-2.1109,-2.1109,-2.0982,-2.0816,-2.0913,-2.0713,-2.058,-2.0388,-1.9933,-1.9826,-1.9653,-1.9492,-1.9444,-1.943,-1.943,-1.943,-1.943,-1.943,-1.9649,-2.0026,-2.1472,-2.2266,-2.3207,-2.3159,-2.2648,-2.3081,-2.2848,-2.2573,-2.238,-2.2452,-2.3256,-2.38,-2.3998,-2.451,-2.5167,-2.5752,-2.5849,-2.6388,-2.7437,-2.7626,-2.7645,-1.088,-1.088,-1.0826,-1.0806,-1.0732,-1.0744,-1.0717,-1.0717,-1.0717,-1.1049,-1.1563,-1.163,-1.261,-1.4297,-1.4874,-1.6108,-1.7602,-1.7087,-1.7205,-1.7667,-1.7076,-1.7205,-1.7667,-1.7795,-1.8436,-1.9367,-1.9656,-2.0424,-2.1592,-2.167,-2.167,-2.167,-2.167,-2.167,-2.1462,-2.0472,-1.9871,-1.974,-1.8797,-1.806,-1.8181,-1.8072,-1.8072,-1.8181,-2.0054,-2.0589,-1.9483,-2.0462,-2.0589,-1.9483,-2.0462,-2.1109,-2.0969,-2.0068,-1.8896,-1.7923,-1.7795,-1.7795,-1.7795,-1.7795,-1.7795,-1.7795,-1.7795,-1.7923,-1.7795,-1.7795,-1.7795,-1.7795,-1.7795,-1.7795,-1.8244,-1.9737,-2.1109,-2.1109,-2.1046,-2.0526,-1.97,-1.9398,-1.9237,-1.9175,-1.9614,-1.9947,-1.9489,-1.9533,-1.9479,-1.9457,-1.9372,-1.9301,-1.9359,-1.9372,-1.9243,-1.9372,-1.943,-1.9591,-1.9982,-2.0486,-2.0916,-2.0844,-2.0727,-2.0947,-2.0931,-2.0993,-2.081,-2.1383,-2.2064,-2.2466,-2.2767,-2.2968,-2.3782,-2.4362,-2.4412,-2.4903,-2.6139,-2.6051,-2.628,-1.0717,-1.0717,-1.0717,-1.0717,-1.0717,-1.0717,-1.0717,-1.0717,-1.0717,-1.0717,-1.0717,-1.0717,-1.1372,-1.2347,-1.2479,-1.3104,-1.4313,-1.4791,-1.5394,-1.5794,-1.5407,-1.5437,-1.5904,-1.603,-1.665,-1.7729,-1.8059,-1.8913,-1.9996,-2.0219,-2.0219,-2.0141,-2.0219,-2.0219,-1.9954,-1.8875,-1.8273,-1.8005,-1.7053,-1.6435,-1.6368,-1.6368,-1.6368,-1.6665,-1.8464,-1.9035,-1.779,-1.8816,-1.896,-1.7988,-1.8832,-1.9419,-1.9279,-1.832,-1.7152,-1.6043,-1.5913,-1.5913,-1.5913,-1.5913,-1.5913,-1.5913,-1.5913,-1.5913,-1.5913,-1.5913,-1.5913,-1.5913,-1.5913,-1.5913,-1.6302,-1.8052,-1.9419,-1.9419,-1.9419,-1.896,-1.7848,-1.7506,-1.7366,-1.7213,-1.7563,-1.7909,-1.7926,-1.783,-1.776,-1.7864,-1.7877,-1.7877,-1.7818,-1.7877,-1.7877,-1.7935,-1.8227,-1.8402,-1.881,-1.9274,-1.9672,-1.959,-1.9498,-1.9501,-1.9426,-1.9477,-1.9641,-2.0271,-2.0778,-2.1186,-2.144,-2.1592,-2.2165,-2.2885,-2.3085,-2.3367,-2.398,-2.4245,-2.4613,-1.0717,-1.0717,-1.0717,-1.0717,-1.0717,-1.0717,-1.0717,-1.0717,-1.0717,-1.0717,-1.0717,-1.0724,-1.0811,-1.0864,-1.1098,-1.102,-1.1574,-1.2797,-1.4098,-1.5221,-1.4126,-1.4339,-1.5604,-1.5692,-1.5981,-1.6405,-1.6503,-1.6581,-1.698,-1.7058,-1.7047,-1.6679,-1.698,-1.7203,-1.6601,-1.6709,-1.6418,-1.636,-1.6108,-1.6011,-1.631,-1.6021,-1.5895,-1.6011,-1.6243,-1.6191,-1.6012,-1.612,-1.6203,-1.6009,-1.6118,-1.5978,-1.6108,-1.5913,-1.5784,-1.5524,-1.5654,-1.5719,-1.5654,-1.5459,-1.5265,-1.5265,-1.5589,-1.5329,-1.52,-1.5329,-1.5329,-1.5265,-1.5329,-1.5524,-1.5459,-1.5719,-1.6043,-1.5978,-1.6496,-1.6366,-1.5937,-1.5775,-1.5471,-1.5166,-1.5142,-1.4748,-1.4728,-1.5133,-1.5311,-1.5262,-1.5192,-1.5252,-1.5381,-1.544,-1.4896,-1.5133,-1.6079,-1.6915,-1.7572,-1.8144,-1.85,-1.8787,-1.8774,-1.874,-1.8523,-1.8491,-1.8432,-1.8916,-1.9369,-1.9767,-2.0231,-2.0436,-2.088,-2.1456,-2.1592,-2.1895,-2.2517,-2.2918,-2.3018,-1.0717,-1.0717,-1.0717,-1.0717,-1.0717,-1.0717,-1.0717,-1.0717,-1.0717,-1.0717,-1.0738,-1.0833,-1.0813,-1.09,-1.0975,-1.105,-1.1159,-1.165,-1.2165,-1.258,-1.2149,-1.224,-1.2725,-1.284,-1.353,-1.4931,-1.6118,-1.6746,-1.6797,-1.6827,-1.6976,-1.6966,-1.6827,-1.6966,-1.6669,-1.5714,-1.5025,-1.4885,-1.3701,-1.3083,-1.3083,-1.3146,-1.3154,-1.3068,-1.3037,-1.2943,-1.295,-1.4888,-1.5365,-1.4307,-1.5286,-1.5394,-1.4362,-1.4101,-1.3578,-1.2479,-1.2347,-1.2347,-1.2347,-1.2413,-1.2479,-1.2347,-1.2413,-1.2347,-1.2355,-1.2413,-1.2479,-1.2413,-1.2347,-1.2347,-1.2347,-1.2347,-1.339,-1.5664,-1.5913,-1.52,-1.4243,-1.3815,-1.351,-1.3453,-1.4019,-1.45,-1.454,-1.448,-1.4302,-1.4361,-1.4361,-1.4361,-1.449,-1.4242,-1.4599,-1.4718,-1.5252,-1.5311,-1.5725,-1.6152,-1.653,-1.6963,-1.7285,-1.7355,-1.7252,-1.7488,-1.7384,-1.774,-1.8146,-1.8513,-1.8968,-1.9317,-1.9716,-2.0025,-2.0231,-2.0743,-2.144,-2.1643,-2.1541,-1.0717,-1.0717,-1.0717,-1.0717,-1.0717,-1.0717,-1.0717,-1.0731,-1.0778,-1.0739,-1.0839,-1.0962,-1.1029,-1.105,-1.1124,-1.1261,-1.124,-1.1253,-1.128,-1.1314,-1.126,-1.1246,-1.126,-1.1314,-1.1924,-1.3193,-1.4325,-1.4947,-1.5132,-1.5141,-1.507,-1.507,-1.5141,-1.5,-1.507,-1.4014,-1.3381,-1.3167,-1.2252,-1.1619,-1.1619,-1.1619,-1.1619,-1.1599,-1.1525,-1.1484,-1.1669,-1.3425,-1.3849,-1.3022,-1.3594,-1.3434,-1.2507,-1.232,-1.1828,-1.1049,-1.0717,-1.0784,-1.0717,-1.0916,-1.0717,-1.0717,-1.0717,-1.0717,-1.0717,-1.0717,-1.0717,-1.0717,-1.0784,-1.0717,-1.0784,-1.0717,-1.1828,-1.3643,-1.384,-1.3421,-1.2376,-1.2065,-1.1767,-1.1759,-1.2273,-1.2785,-1.2835,-1.2808,-1.2808,-1.2808,-1.2808,-1.2808,-1.2817,-1.2689,-1.2868,-1.3108,-1.3407,-1.3467,-1.3706,-1.4104,-1.4455,-1.4991,-1.5547,-1.5565,-1.5584,-1.6262,-1.6499,-1.7318,-1.7898,-1.795,-1.8304,-1.8146,-1.8342,-1.8603,-1.8864,-1.9161,-1.9612,-1.9716,-1.9819,-1.0717,-1.0717,-1.0717,-1.0717,-1.0717,-1.0717,-1.0731,-1.0765,-1.088,-1.0941,-1.0989,-1.1111,-1.1179,-1.1179,-1.1219,-1.1301,-1.1382,-1.1402,-1.1463,-1.1518,-1.147,-1.1402,-1.1416,-1.1511,-1.1708,-1.1807,-1.1951,-1.1893,-1.2252,-1.2259,-1.1619,-1.2043,-1.2187,-1.1763,-1.2115,-1.1691,-1.1828,-1.1828,-1.1691,-1.1619,-1.1619,-1.1619,-1.1619,-1.1619,-1.1606,-1.1599,-1.1644,-1.1804,-1.1657,-1.1241,-1.1424,-1.1361,-1.1002,-1.0819,-1.0811,-1.0751,-1.0731,-1.0717,-1.0717,-1.0717,-1.0717,-1.0717,-1.0717,-1.0717,-1.0717,-1.0717,-1.0717,-1.0717,-1.0717,-1.0717,-1.0717,-1.0717,-1.0916,-1.0784,-1.1306,-1.1117,-1.0664,-1.0623,-1.0678,-1.035,-1.0128,-1.006,-1.035,-1.0261,-1.0179,-1.0179,-1.0301,-1.0422,-1.0422,-1.0657,-1.0058,-1.0596,-1.1615,-1.1856,-1.2097,-1.232,-1.2667,-1.2623,-1.3278,-1.3699,-1.4331,-1.5171,-1.5476,-1.6393,-1.7371,-1.7424,-1.7318,-1.7041,-1.7041,-1.7345,-1.745,-1.7477,-1.7845,-1.829,-1.8603,-1.0717,-1.0717,-1.0717,-1.0717,-1.0717,-1.0717,-1.0785,-1.082,-1.086,-1.1023,-1.1118,-1.1267,-1.1328,-1.1341,-1.1443,-1.1525,-1.1545,-1.1552,-1.1572,-1.1606,-1.1586,-1.1558,-1.1558,-1.1592,-1.1619,-1.1619,-1.1619,-1.1619,-1.1619,-1.1619,-1.1619,-1.1619,-1.1619,-1.1619,-1.1619,-1.1619,-1.1619,-1.1619,-1.1619,-1.1619,-1.1619,-1.1619,-1.1619,-1.1619,-1.1619,-1.1619,-1.1619,-1.1586,-1.143,-1.1255,-1.1131,-1.1104,-1.1097,-1.0968,-1.0887,-1.0873,-1.0792,-1.0724,-1.0724,-1.0724,-1.0724,-1.0717,-1.0717,-1.0717,-1.0717,-1.0717,-1.0717,-1.0717,-1.0717,-1.0717,-1.0717,-1.0717,-1.0717,-1.0717,-1.0717,-1.0704,-1.0649,-1.0555,-1.0453,-1.0371,-1.0125,-1.0004,-0.9916,-0.9897,-0.9829,-0.9822,-0.9822,-0.9822,-0.9822,-0.9822,-0.9822,-0.9822,-1.0361,-1.0422,-1.0482,-1.0717,-1.0726,-1.0398,-1.0922,-1.1699,-1.2927,-1.4471,-1.4449,-1.4609,-1.618,-1.667,-1.618,-1.5743,-1.5956,-1.6062,-1.6552,-1.6829,-1.7358,-1.7832,-1.7832,-1.0717,-1.0717,-1.0717,-1.0717,-1.0731,-1.0718,-1.0799,-1.09,-1.1084,-1.1179,-1.128,-1.1423,-1.1491,-1.1497,-1.1579,-1.1613,-1.1619,-1.1619,-1.1619,-1.1619,-1.1613,-1.1613,-1.1613,-1.1619,-1.1619,-1.1619,-1.1619,-1.1619,-1.1619,-1.1619,-1.1619,-1.1619,-1.1619,-1.1619,-1.1619,-1.1619,-1.1619,-1.1619,-1.1619,-1.1619,-1.1619,-1.1619,-1.1619,-1.1619,-1.1619,-1.1619,-1.1619,-1.1619,-1.1525,-1.1382,-1.1301,-1.133,-1.1246,-1.1118,-1.1043,-1.1036,-1.0955,-1.0887,-1.0826,-1.0812,-1.0785,-1.0738,-1.0717,-1.0717,-1.0717,-1.0717,-1.0717,-1.0717,-1.0717,-1.0717,-1.0717,-1.0717,-1.0717,-1.0717,-1.0717,-1.0717,-1.0717,-1.0643,-1.0561,-1.0473,-1.0351,-1.0175,-1.0017,-0.9909,-0.9897,-0.9842,-0.9822,-0.9822,-0.9822,-0.9822,-0.9822,-0.9822,-0.9822,-0.9943,-1.0065,-1.024,-1.0172,-0.9748,-0.9588,-1.028,-1.1492,-1.3318,-1.3372,-1.3534,-1.4931,-1.5583,-1.477,-1.4288,-1.4556,-1.4877,-1.5583,-1.6009,-1.6393,-1.6975,-1.7041,-1.0717,-1.0717,-1.0717,-1.0731,-1.0765,-1.082,-1.09,-1.0981,-1.126,-1.1382,-1.1436,-1.1558,-1.1592,-1.1619,-1.1613,-1.1619,-1.1619,-1.1619,-1.1619,-1.1619,-1.1619,-1.1619,-1.1619,-1.1619,-1.1619,-1.1619,-1.1619,-1.1619,-1.1619,-1.1619,-1.1619,-1.1619,-1.1619,-1.1619,-1.1619,-1.1619,-1.1619,-1.1619,-1.1619,-1.1619,-1.1619,-1.1619,-1.1619,-1.1619,-1.1619,-1.1619,-1.1619,-1.1619,-1.1599,-1.1613,-1.1484,-1.1423,-1.1396,-1.1274,-1.1199,-1.1172,-1.1145,-1.1077,-1.0995,-1.0968,-1.084,-1.0799,-1.0758,-1.0731,-1.0731,-1.0717,-1.0717,-1.0717,-1.0717,-1.0717,-1.0717,-1.0717,-1.0717,-1.0717,-1.0717,-1.0717,-1.0717,-1.0717,-1.0663,-1.0534,-1.0507,-1.0351,-1.0195,-1.0004,-1.0019,-0.9924,-0.989,-0.9869,-0.9849,-0.9822,-0.9822,-0.9822,-0.9822,-0.9822,-0.9822,-0.9883,-0.9765,-0.9501,-0.9262,-0.9622,-1.0279,-1.1483,-1.1919,-1.2561,-1.3588,-1.3534,-1.267,-1.2615,-1.321,-1.348,-1.3965,-1.4395,-1.4877,-1.5743,-1.6062,-1.0717,-1.0717,-1.0717,-1.0792,-1.0826,-1.0873,-1.1084,-1.1294,-1.1362,-1.1463,-1.1558,-1.1606,-1.1619,-1.1619,-1.1619,-1.1619,-1.1619,-1.1619,-1.1619,-1.1619,-1.1619,-1.1619,-1.1619,-1.1619,-1.1619,-1.1619,-1.1619,-1.1619,-1.1619,-1.1619,-1.1619,-1.1619,-1.1619,-1.1619,-1.1619,-1.1619,-1.1619,-1.1619,-1.1619,-1.1619,-1.1619,-1.1619,-1.1619,-1.1619,-1.1619,-1.1619,-1.1619,-1.1619,-1.1619,-1.1606,-1.1586,-1.1552,-1.1525,-1.1423,-1.1348,-1.1321,-1.1233,-1.1158,-1.1124,-1.1111,-1.1056,-1.0921,-1.0826,-1.0779,-1.0724,-1.0731,-1.0724,-1.0724,-1.0717,-1.0717,-1.0717,-1.0717,-1.0717,-1.0717,-1.0717,-1.0717,-1.0717,-1.0717,-1.0697,-1.0656,-1.0568,-1.0466,-1.0392,-1.027,-1.0175,-1.0039,-0.9909,-0.9876,-0.9829,-0.9842,-0.9822,-0.9822,-0.9822,-0.9815,-0.9808,-0.9788,-0.9646,-0.9462,-0.9232,-0.9111,-0.9772,-1.0131,-1.0726,-1.1319,-1.2028,-1.1592,-1.0945,-1.181,-1.2615,-1.2453,-1.2344,-1.294,-1.3588,-1.4395,-1.5144,-1.0717,-1.0717,-1.0717,-1.0739,-1.088,-1.1023,-1.1179,-1.1375,-1.147,-1.1538,-1.1606,-1.1619,-1.1619,-1.1619,-1.1619,-1.1619,-1.1619,-1.1619,-1.1619,-1.1619,-1.1619,-1.1619,-1.1619,-1.1619,-1.1619,-1.1619,-1.1619,-1.1619,-1.1619,-1.1619,-1.1619,-1.1619,-1.1619,-1.1619,-1.1619,-1.1619,-1.1619,-1.1619,-1.1619,-1.1619,-1.1619,-1.1619,-1.1619,-1.1619,-1.1619,-1.1619,-1.1619,-1.1619,-1.1619,-1.1619,-1.1619,-1.1619,-1.1613,-1.1545,-1.1504,-1.1477,-1.1436,-1.1335,-1.1294,-1.126,-1.1206,-1.1063,-1.105,-1.1009,-1.0928,-1.0873,-1.0826,-1.0812,-1.0772,-1.0717,-1.0717,-1.0717,-1.0717,-1.0717,-1.0717,-1.0717,-1.0717,-1.0717,-1.0717,-1.0711,-1.0649,-1.0568,-1.0487,-1.0419,-1.0324,-1.0188,-0.9984,-0.9943,-0.9896,-0.9903,-0.9836,-0.9822,-0.9822,-0.9815,-0.9802,-0.9747,-0.9659,-0.949,-0.93,-0.9164,-0.9412,-0.9613,-0.9754,-1.0296,-1.0781,-1.0296,-0.9911,-1.0945,-1.1374,-1.0781,-1.0726,-1.1428,-1.2136,-1.267,-1.3426,-1.0717,-1.0724,-1.0744,-1.0846,-1.0995,-1.1138,-1.1287,-1.1436,-1.1558,-1.1606,-1.1619,-1.1619,-1.1619,-1.1619,-1.1619,-1.1619,-1.1619,-1.1619,-1.1619,-1.1619,-1.1619,-1.1619,-1.1619,-1.1619,-1.1619,-1.1619,-1.1619,-1.1619,-1.1619,-1.1619,-1.1619,-1.1619,-1.1619,-1.1619,-1.1619,-1.1619,-1.1619,-1.1619,-1.1619,-1.1619,-1.1619,-1.1619,-1.1619,-1.1619,-1.1619,-1.1619,-1.1619,-1.1619,-1.1619,-1.1619,-1.1619,-1.1619,-1.1619,-1.1619,-1.1619,-1.1613,-1.1586,-1.1525,-1.145,-1.1416,-1.1362,-1.1212,-1.1199,-1.1179,-1.1131,-1.1043,-1.0995,-1.0934,-1.0873,-1.0758,-1.0724,-1.0717,-1.0717,-1.0717,-1.0717,-1.0717,-1.0717,-1.0717,-1.0717,-1.0717,-1.0697,-1.0643,-1.0588,-1.0527,-1.0432,-1.0331,-1.0195,-1.0017,-0.997,-0.9964,-0.9897,-0.9829,-0.9822,-0.9822,-0.9808,-0.9795,-0.9686,-0.9564,-0.9381,-0.9273,-0.9178,-0.9307,-0.9398,-0.9168,-0.921,-0.9044,-0.9044,-0.9644,-0.9644,-0.894,-0.9265,-1.0131,-1.0617,-1.0891,-1.181,-1.0717,-1.0731,-1.0793,-1.0995,-1.1138,-1.1287,-1.143,-1.1572,-1.1606,-1.1619,-1.1619,-1.1619,-1.1619,-1.1619,-1.1619,-1.1619,-1.1619,-1.1619,-1.1619,-1.1619,-1.1619,-1.1619,-1.1619,-1.1619,-1.1619,-1.1619,-1.1619,-1.1619,-1.1619,-1.1619,-1.1619,-1.1619,-1.1619,-1.1619,-1.1619,-1.1619,-1.1619,-1.1619,-1.1619,-1.1619,-1.1619,-1.1619,-1.1619,-1.1619,-1.1619,-1.1619,-1.1619,-1.1619,-1.1619,-1.1619,-1.1619,-1.1619,-1.1619,-1.1619,-1.1619,-1.1619,-1.1619,-1.1592,-1.1558,-1.1565,-1.1497,-1.1396,-1.1355,-1.1287,-1.1212,-1.1145,-1.0987,-1.0803,-1.071,-1.0725,-1.0731,-1.0139,-1.0525,-1.0591,-1.0319,-1.0386,-1.0518,-1.0518,-1.0585,-1.0651,-1.0651,-1.0711,-1.0663,-1.0622,-1.0561,-1.048,-1.0378,-1.0236,-1.0141,-0.999,-0.9903,-0.9829,-0.9822,-0.9822,-0.9815,-0.9808,-0.9754,-0.9659,-0.9517,-0.9395,-0.9293,-0.9234,-0.9096,-0.9022,-0.896,-0.8933,-0.894,-0.894,-0.894,-0.894,-0.8933,-0.8989,-0.9533,-1.0186,-1.0672,-1.0717,-1.0738,-1.0887,-1.1029,-1.1248,-1.1328,-1.1477,-1.1606,-1.1619,-1.1619,-1.1619,-1.1619,-1.1619,-1.1619,-1.1619,-1.1619,-1.1619,-1.1619,-1.1619,-1.1619,-1.1619,-1.1619,-1.1619,-1.1619,-1.1619,-1.1619,-1.1619,-1.1619,-1.1619,-1.1619,-1.1619,-1.1619,-1.1619,-1.1619,-1.1619,-1.1619,-1.1619,-1.1619,-1.1619,-1.1619,-1.1619,-1.1619,-1.1619,-1.1619,-1.1619,-1.1619,-1.1619,-1.1619,-1.1619,-1.1619,-1.1619,-1.1619,-1.1619,-1.1548,-1.1548,-1.1548,-1.1548,-1.1619,-1.1619,-1.1619,-1.1579,-1.1531,-1.1433,-1.1484,-1.1396,-1.1264,-1.0689,-0.9914,-0.9596,-0.9097,-0.8015,-0.809,-0.7925,-0.7978,-0.8081,-0.8518,-0.9045,-0.9238,-0.9643,-1.018,-1.0379,-1.0445,-1.0717,-1.069,-1.067,-1.0616,-1.0411,-1.0148,-0.9812,-0.9588,-0.9249,-0.9328,-0.913,-0.9079,-0.9019,-0.9019,-0.8952,-0.8998,-0.9102,-0.8986,-0.9175,-0.9005,-0.9071,-0.9146,-0.9035,-0.8967,-0.894,-0.894,-0.894,-0.894,-0.8933,-0.8989,-0.9099,-0.943,-0.9966,-1.0717,-1.0738,-1.0914,-1.1056,-1.1179,-1.1362,-1.1504,-1.1599,-1.1619,-1.1619,-1.1619,-1.1619,-1.1619,-1.1619,-1.1619,-1.1619,-1.1619,-1.1619,-1.1619,-1.1619,-1.1619,-1.1619,-1.1619,-1.1619,-1.1619,-1.1619,-1.1619,-1.1619,-1.1619,-1.1619,-1.1619,-1.1619,-1.1619,-1.1619,-1.1619,-1.1619,-1.1619,-1.1619,-1.1619,-1.1619,-1.1619,-1.1619,-1.1619,-1.1619,-1.1619,-1.1619,-1.1619,-1.1619,-1.1619,-1.1619,-1.1619,-1.1619,-1.1548,-1.1181,-1.1038,-1.1109,-1.1332,-1.1548,-1.1619,-1.1619,-1.139,-1.0718,-1.0953,-1.0809,-1.0209,-0.9533,-0.9383,-0.8154,-0.7706,-0.7265,-0.6183,-0.5594,-0.557,-0.5686,-0.5772,-0.5923,-0.6996,-0.7593,-0.7969,-0.864,-0.951,-0.9709,-0.951,-0.8773,-0.8352,-0.8347,-0.8223,-0.823,-0.799,-0.8167,-0.8017,-0.8217,-0.8251,-0.8183,-0.8039,-0.7795,-0.7667,-0.7525,-0.7659,-0.7649,-0.8213,-0.8651,-0.8717,-0.8723,-0.9089,-0.9028,-0.8981,-0.8885,-0.894,-0.894,-0.894,-0.894,-0.9044,-0.9044,-0.932,-1.0717,-1.0744,-1.1023,-1.1151,-1.1275,-1.1463,-1.1592,-1.1613,-1.1619,-1.1619,-1.1619,-1.1619,-1.1619,-1.1619,-1.1619,-1.1619,-1.1619,-1.1619,-1.1619,-1.1619,-1.1619,-1.1619,-1.1619,-1.1619,-1.1619,-1.1619,-1.1619,-1.1619,-1.1619,-1.1619,-1.1619,-1.1619,-1.1619,-1.1619,-1.1619,-1.1619,-1.1619,-1.1619,-1.1619,-1.1619,-1.1619,-1.1619,-1.1619,-1.1619,-1.1619,-1.1619,-1.1619,-1.1619,-1.1548,-1.1397,-1.1476,-1.1548,-1.1325,-0.9867,-0.9213,-0.9574,-1.0449,-1.1548,-1.1181,-1.0887,-1.0377,-0.9285,-0.9064,-0.8126,-0.7612,-0.7098,-0.6829,-0.6114,-0.5895,-0.5521,-0.492,-0.5093,-0.5292,-0.4993,-0.4615,-0.4925,-0.5662,-0.5712,-0.6159,-0.6392,-0.7076,-0.7517,-0.7569,-0.6698,-0.5964,-0.596,-0.6082,-0.6167,-0.6317,-0.664,-0.6682,-0.6836,-0.6931,-0.687,-0.6898,-0.6709,-0.6508,-0.6202,-0.6302,-0.6449,-0.693,-0.7504,-0.7991,-0.8129,-0.8445,-0.8458,-0.8059,-0.8078,-0.8615,-0.894,-0.894,-0.894,-0.894,-0.894,-0.8885,-1.0717,-1.0744,-1.1036,-1.1234,-1.1199,-1.1491,-1.1619,-1.1619,-1.1619,-1.1619,-1.1619,-1.1619,-1.1619,-1.1619,-1.1619,-1.1619,-1.1619,-1.1619,-1.1619,-1.1619,-1.1619,-1.1619,-1.1619,-1.1619,-1.1619,-1.1619,-1.1619,-1.1619,-1.1619,-1.1619,-1.1619,-1.1619,-1.1619,-1.1619,-1.1619,-1.1619,-1.1619,-1.1619,-1.1619,-1.1619,-1.1619,-1.1619,-1.1619,-1.1619,-1.1548,-1.1548,-1.1469,-1.1619,-1.0959,-1.0377,-0.9939,-0.9357,-0.8487,-0.7548,-0.7038,-0.711,-0.7765,-0.8198,-0.8203,-0.8348,-0.791,-0.7399,-0.7038,-0.6677,-0.5953,-0.5591,-0.5078,-0.4181,-0.4107,-0.3662,-0.2713,-0.2344,-0.2337,0.0,0.0,-0.3408,-0.367,-0.3866,-0.4123,-0.4368,-0.4612,-0.4934,-0.5319,-0.5175,-0.4769,-0.4891,-0.5091,-0.5208,-0.5436,-0.5657,-0.5577,-0.5361,-0.536,-0.5361,-0.5462,-0.5447,-0.5414,-0.5223,-0.5223,-0.538,-0.5604,-0.6026,-0.6487,-0.6422,-0.6197,-0.6288,-0.6647,-0.7594,-0.8461,-0.8725,-0.894,-0.8768,-0.8712,-0.8885,-0.8885,-1.0717,-1.0744,-1.1036,-1.1234,-1.1192,-1.1491,-1.1619,-1.1619,-1.1619,-1.1619,-1.1619,-1.1619,-1.1619,-1.1619,-1.1619,-1.1619,-1.1619,-1.1619,-1.1619,-1.1619,-1.1619,-1.1619,-1.1619,-1.1619,-1.1619,-1.1619,-1.1619,-1.1619,-1.1619,-1.1619,-1.1619,-1.1619,-1.1619,-1.1619,-1.1619,-1.1619,-1.1619,-1.1619,-1.1619,-1.1619,-1.1619,-1.1619,-1.1619,-1.1469,-1.1181,-1.0887,-1.0815,-1.0089,-0.9069,-0.8343,-0.7977,-0.7399,-0.6387,-0.5591,-0.5156,-0.4939,-0.4866,-0.4361,-0.4869,-0.5229,-0.5373,-0.5084,-0.4431,-0.3998,-0.4068,0.0,-0.3998,-0.2252,-0.2179,-0.1382,0.0,0.0,0.0,0.0,0.0,0.0,0.0,0.0,0.0,-0.2284,-0.2406,-0.2256,-0.2723,-0.3384,-0.364,-0.3828,-0.4024,0.0,0.0,0.0,0.0,0.0,0.0,0.0,0.0,0.0,0.0,0.0,0.0,-0.4116,-0.416,-0.4325,-0.4644,-0.4429,-0.4275,-0.4867,-0.5602,-0.6997,-0.8245,-0.7721,-0.7482,-0.8208,-0.8491,-0.8657,-0.8878,-1.0717,-1.0744,-1.1036,-1.1234,-1.1185,-1.1491,-1.1619,-1.1619,-1.1619,-1.1619,-1.1619,-1.1619,-1.1619,-1.1619,-1.1619,-1.1619,-1.1619,-1.1619,-1.1619,-1.1619,-1.1619,-1.1619,-1.1619,-1.1619,-1.1619,-1.1619,-1.1619,-1.1619,-1.1619,-1.1619,-1.1619,-1.1619,-1.1619,-1.1619,-1.1619,-1.1619,-1.1619,-1.1619,-1.1619,-1.1619,-1.1548,-1.1476,-1.1325,-1.0959,-0.9867,-0.8848,-0.8776,-0.7621,-0.6536,-0.6098,-0.6025,-0.5591,-0.4721,-0.3705,-0.3127,-0.2909,-0.1966,0.0,0.0,-0.3417,-0.4358,-0.3199,0.0,0.0,0.0,0.0,0.0,0.0,0.0,0.0,0.0,0.0,0.0,0.0,0.0,0.0,0.0,0.0,0.0,0.0,0.0,0.0,0.0,0.0,0.0,0.0,0.0,0.0,0.0,0.0,0.0,0.0,0.0,0.0,0.0,0.0,0.0,0.0,0.0,0.0,-0.246,0.0,0.0,-0.3272,-0.3365,-0.3979,-0.4467,-0.5338,-0.5838,-0.5794,-0.6089,-0.6982,-0.7709,-0.7931,-0.838,-1.0717,-1.0751,-1.1036,-1.1234,-1.1185,-1.1491,-1.1619,-1.1619,-1.1619,-1.1619,-1.1619,-1.1619,-1.1619,-1.1619,-1.1619,-1.1619,-1.1619,-1.1619,-1.1619,-1.1619,-1.1619,-1.1619,-1.1619,-1.1619,-1.1619,-1.1619,-1.1619,-1.1619,-1.1619,-1.1619,-1.1619,-1.1619,-1.1619,-1.1619,-1.1619,-1.1619,-1.1548,-1.1476,-1.1548,-1.1548,-1.1325,-1.0305,-0.9795,-0.9646,-0.791,-0.7038,-0.6821,-0.6242,-0.5229,-0.4358,-0.4068,-0.349,0.0,0.0,0.0,0.0,0.0,0.0,0.0,0.0,-0.1748,-0.1456,0.0,0.0,0.0,0.0,0.0,0.0,0.0,0.0,0.0,0.0,0.0,0.0,0.0,0.0,0.0,0.0,0.0,0.0,0.0,0.0,0.0,0.0,0.0,0.0,0.0,0.0,0.0,0.0,0.0,0.0,0.0,0.0,0.0,0.0,0.0,0.0,0.0,0.0,0.0,0.0,0.0,0.0,0.0,0.0,0.0,0.0,-0.368,-0.4119,-0.4905,-0.5922,-0.6533,-0.7093,-0.7537,-1.0717,-1.0758,-1.1036,-1.1234,-1.1206,-1.1491,-1.1619,-1.1619,-1.1619,-1.1619,-1.1619,-1.1619,-1.1619,-1.1619,-1.1619,-1.1619,-1.1619,-1.1619,-1.1619,-1.1619,-1.1619,-1.1619,-1.1619,-1.1619,-1.1619,-1.1619,-1.1619,-1.1619,-1.1619,-1.1619,-1.1619,-1.1619,-1.1619,-1.1619,-1.1619,-1.1548,-1.1332,-1.0887,-1.0743,-1.0233,-0.9723,-0.8631,-0.7833,-0.7544,-0.5953,-0.5084,-0.4649,-0.4068,-0.3127,-0.2401,-0.1892,-0.1311,0.0,0.0,0.0,0.0,0.0,0.0,0.0,0.0,0.0,0.0,0.0,0.0,0.0,0.0,0.0,0.0,0.0,0.0,0.0,0.0,0.0,0.0,0.0,0.0,0.0,0.0,0.0,0.0,0.0,0.0,0.0,0.0,0.0,0.0,0.0,0.0,0.0,0.0,0.0,0.0,0.0,0.0,0.0,0.0,0.0,0.0,0.0,0.0,0.0,0.0,0.0,0.0,0.0,0.0,0.0,0.0,0.0,-0.2784,-0.3605,-0.4346,-0.5361,-0.5922,-0.6255,-1.0717,-1.0758,-1.1043,-1.1234,-1.1199,-1.1491,-1.1619,-1.1619,-1.1619,-1.1619,-1.1619,-1.1619,-1.1619,-1.1619,-1.1619,-1.1619,-1.1619,-1.1619,-1.1619,-1.1619,-1.1619,-1.1619,-1.1619,-1.1619,-1.1619,-1.1619,-1.1619,-1.1619,-1.1619,-1.1619,-1.1619,-1.1397,-1.1325,-1.1181,-1.1469,-1.1548,-1.0599,-0.9064,-0.8776,-0.7837,-0.6894,-0.6242,-0.5881,-0.5446,-0.3996,-0.2981,-0.2691,-0.1893,0.0,0.0,0.0,0.0,0.0,0.0,0.0,0.0,0.0,0.0,0.0,0.0,0.0,0.0,0.0,0.0,0.0,0.0,0.0,0.0,0.0,0.0,0.0,0.0,0.0,0.0,0.0,0.0,0.0,0.0,0.0,0.0,0.0,0.0,0.0,0.0,0.0,0.0,0.0,0.0,0.0,0.0,0.0,0.0,0.0,0.0,0.0,0.0,0.0,0.0,0.0,0.0,0.0,0.0,0.0,0.0,0.0,0.0,0.0,0.0,0.0,0.0,0.0,-0.2629,-0.3782,-0.4644,-0.4935,-1.0717,-1.0744,-1.1043,-1.1234,-1.1206,-1.1491,-1.1619,-1.1619,-1.1619,-1.1619,-1.1619,-1.1619,-1.1619,-1.1619,-1.1619,-1.1619,-1.1619,-1.1619,-1.1619,-1.1619,-1.1619,-1.1619,-1.1619,-1.1619,-1.1619,-1.1619,-1.1619,-1.1619,-1.1619,-1.1397,-1.1548,-1.1469,-1.0155,-0.9723,-0.9646,-0.9574,-0.8703,-0.711,-0.6749,-0.6387,-0.5663,-0.4581,-0.3857,-0.3785,-0.2042,0.0,0.0,0.0,0.0,0.0,0.0,0.0,0.0,0.0,0.0,0.0,0.0,0.0,0.0,0.0,0.0,0.0,0.0,0.0,0.0,0.0,0.0,0.0,0.0,0.0,0.0,0.0,0.0,0.0,0.0,0.0,0.0,0.0,0.0,0.0,0.0,0.0,0.0,0.0,0.0,0.0,0.0,0.0,0.0,0.0,0.0,0.0,0.0,0.0,0.0,0.0,0.0,0.0,0.0,0.0,0.0,0.0,0.0,0.0,0.0,0.0,0.0,0.0,0.0,0.0,0.0,0.0,-0.246,-0.3179,-0.3565,-1.0345,-0.9808,-1.0091,-1.0209,-1.0423,-1.1219,-1.1619,-1.1619,-1.1619,-1.1619,-1.1619,-1.1619,-1.1619,-1.1619,-1.1619,-1.1619,-1.1619,-1.1619,-1.1619,-1.1619,-1.1619,-1.1619,-1.1619,-1.1619,-1.1619,-1.1619,-1.1619,-1.1619,-1.1476,-1.0887,-1.0017,-0.9069,-0.8348,-0.728,-0.7067,-0.6849,-0.6769,-0.5329,-0.4763,-0.4263,-0.3463,-0.2584,-0.192,-0.1625,0.0,0.0,0.0,0.0,0.0,0.0,0.0,0.0,0.0,0.0,0.0,0.0,0.0,0.0,0.0,0.0,0.0,0.0,0.0,0.0,0.0,0.0,0.0,0.0,0.0,0.0,0.0,0.0,0.0,0.0,0.0,0.0,0.0,0.0,0.0,0.0,0.0,0.0,0.0,0.0,0.0,0.0,0.0,0.0,0.0,0.0,0.0,0.0,0.0,0.0,0.0,0.0,0.0,0.0,0.0,0.0,0.0,0.0,0.0,0.0,0.0,0.0,0.0,0.0,0.0,0.0,0.0,0.0,0.0,0.0,0.0,-0.9649,-0.8141,-0.8252,-0.8433,-0.8753,-1.046,-1.1397,-1.1548,-1.1619,-1.1619,-1.1619,-1.1619,-1.1619,-1.1619,-1.1619,-1.1619,-1.1619,-1.1619,-1.1619,-1.1619,-1.1619,-1.1619,-1.1619,-1.1619,-1.1619,-1.1548,-1.1325,-1.0815,-1.1181,-0.9507,-0.7765,-0.633,-0.5905,-0.4768,-0.4268,-0.4197,-0.4121,-0.3181,-0.2746,-0.2162,-0.1348,0.0,0.0,0.0,0.0,0.0,0.0,0.0,0.0,0.0,0.0,0.0,0.0,0.0,0.0,0.0,0.0,0.0,0.0,0.0,0.0,0.0,0.0,0.0,0.0,0.0,0.0,0.0,0.0,0.0,0.0,0.0,0.0,0.0,0.0,0.0,0.0,0.0,0.0,0.0,0.0,0.0,0.0,0.0,0.0,0.0,0.0,0.0,0.0,0.0,0.0,0.0,0.0,0.0,0.0,0.0,0.0,0.0,0.0,0.0,0.0,0.0,0.0,0.0,0.0,0.0,0.0,0.0,0.0,0.0,0.0,0.0,0.0,0.0,0.0,-0.9655,-0.8073,-0.8188,-0.7594,-0.6835,-0.8658,-1.0305,-1.1476,-1.1619,-1.1619,-1.1619,-1.1619,-1.1619,-1.1619,-1.1619,-1.1619,-1.1619,-1.1619,-1.1619,-1.1619,-1.1619,-1.1619,-1.1548,-1.1476,-1.1548,-1.1038,-1.0377,-0.9507,-0.9069,-0.7544,-0.5627,-0.4047,-0.3755,-0.2526,-0.1795,0.0,0.0,0.0,0.0,0.0,0.0,0.0,0.0,0.0,0.0,0.0,0.0,0.0,0.0,0.0,0.0,0.0,0.0,0.0,0.0,0.0,0.0,0.0,0.0,0.0,0.0,0.0,0.0,0.0,0.0,0.0,0.0,0.0,0.0,0.0,0.0,0.0,0.0,0.0,0.0,0.0,0.0,0.0,0.0,0.0,0.0,0.0,0.0,0.0,0.0,0.0,0.0,0.0,0.0,0.0,0.0,0.0,0.0,0.0,0.0,0.0,0.0,0.0,0.0,0.0,0.0,0.0,0.0,0.0,0.0,0.0,0.0,0.0,0.0,0.0,0.0,0.0,0.0,0.0,0.0,-0.8598,-0.7095,-0.7087,-0.6133,-0.5021,-0.6725,-0.8271,-0.9435,-1.0894,-1.1619,-1.1619,-1.1619,-1.1619,-1.1619,-1.1619,-1.1619,-1.1619,-1.1619,-1.1619,-1.1619,-1.1397,-1.1619,-1.1548,-1.0815,-1.0377,-0.9795,-0.8781,-0.7548,-0.6974,-0.5554,-0.3682,-0.1927,0.0,0.0,0.0,0.0,0.0,0.0,0.0,0.0,0.0,0.0,0.0,0.0,0.0,0.0,0.0,0.0,0.0,0.0,0.0,0.0,0.0,0.0,0.0,0.0,0.0,0.0,0.0,0.0,0.0,0.0,0.0,0.0,0.0,0.0,0.0,0.0,0.0,0.0,0.0,0.0,0.0,0.0,0.0,0.0,0.0,0.0,0.0,0.0,0.0,0.0,0.0,0.0,0.0,0.0,0.0,0.0,0.0,0.0,0.0,0.0,0.0,0.0,0.0,0.0,0.0,0.0,0.0,0.0,0.0,0.0,0.0,0.0,0.0,0.0,0.0,0.0,0.0,0.0,0.0,0.0,0.0,0.0,0.0,-0.7007,-0.5371,-0.5105,-0.3982,-0.3048,-0.4721,-0.5591,-0.6025,-0.9291,-1.1181,-1.1181,-1.1548,-1.1619,-1.1619,-1.1619,-1.1619,-1.1397,-1.1181,-1.1253,-1.1325,-1.0311,-1.0377,-1.0305,-0.9502,-0.8631,-0.7833,-0.668,-0.531,-0.4746,-0.3455,-0.1853,0.0,0.0,0.0,0.0,0.0,0.0,0.0,0.0,0.0,0.0,0.0,0.0,0.0,0.0,0.0,0.0,0.0,0.0,0.0,0.0,0.0,0.0,0.0,0.0,0.0,0.0,0.0,0.0,0.0,0.0,0.0,0.0,0.0,0.0,0.0,0.0,0.0,0.0,0.0,0.0,0.0,0.0,0.0,0.0,0.0,0.0,0.0,0.0,0.0,0.0,0.0,0.0,0.0,0.0,0.0,0.0,0.0,0.0,0.0,0.0,0.0,0.0,0.0,0.0,0.0,0.0,0.0,0.0,0.0,0.0,0.0,0.0,0.0,0.0,0.0,0.0,0.0,0.0,0.0,0.0,0.0,0.0,0.0,0.0,-0.7007,-0.5102,-0.243,-0.1015,-0.1019,-0.2763,-0.356,-0.3778,-0.6098,-0.8054,-0.943,-1.0743,-1.1469,-1.1325,-1.1109,-1.1038,-1.0966,-0.9867,-1.0377,-0.9795,-0.893,-0.8709,-0.8776,-0.7472,-0.6604,-0.5881,-0.4654,0.0,0.0,0.0,0.0,0.0,0.0,0.0,0.0,0.0,0.0,0.0,0.0,0.0,0.0,0.0,0.0,0.0,0.0,0.0,0.0,0.0,0.0,0.0,0.0,0.0,0.0,0.0,0.0,0.0,0.0,0.0,0.0,0.0,0.0,0.0,0.0,0.0,0.0,0.0,0.0,0.0,0.0,0.0,0.0,0.0,0.0,0.0,0.0,0.0,0.0,0.0,0.0,0.0,0.0,0.0,0.0,0.0,0.0,0.0,0.0,0.0,0.0,0.0,0.0,0.0,0.0,0.0,0.0,0.0,0.0,0.0,0.0,0.0,0.0,0.0,0.0,0.0,0.0,0.0,0.0,0.0,0.0,0.0,0.0,0.0,0.0,0.0,0.0,-0.5583,-0.4896,0.0,0.0,0.0,-0.1166,-0.1602,-0.1965,-0.3705,-0.5081,-0.6311,-0.8126,-0.9435,-0.9867,-0.9435,-0.9219,-0.9002,-0.7982,-0.791,-0.7693,-0.7331,-0.6966,-0.6315,-0.5446,-0.4794,-0.3998,-0.2491,0.0,0.0,0.0,0.0,0.0,0.0,0.0,0.0,0.0,0.0,0.0,0.0,0.0,0.0,0.0,0.0,0.0,0.0,0.0,0.0,0.0,0.0,0.0,0.0,0.0,0.0,0.0,0.0,0.0,0.0,0.0,0.0,0.0,0.0,0.0,0.0,0.0,0.0,0.0,0.0,0.0,0.0,0.0,0.0,0.0,0.0,0.0,0.0,0.0,0.0,0.0,0.0,0.0,0.0,0.0,0.0,0.0,0.0,0.0,0.0,0.0,0.0,0.0,0.0,0.0,0.0,0.0,0.0,0.0,0.0,0.0,0.0,0.0,0.0,0.0,0.0,0.0,0.0,0.0,0.0,0.0,0.0,0.0,0.0,0.0,0.0,0.0,0.0,-0.3546,-0.413,-0.1297,0.0,0.0,0.0,0.0,0.0,-0.182,-0.2763,-0.3272,-0.4576,-0.6242,-0.711,-0.6749,-0.617,-0.5736,-0.5663,-0.5663,-0.5881,-0.5159,-0.4939,-0.4431,-0.3562,-0.2842,-0.2128,-0.0963,0.0,0.0,0.0,0.0,0.0,0.0,0.0,0.0,0.0,0.0,0.0,0.0,0.0,0.0,0.0,0.0,0.0,0.0,0.0,0.0,0.0,0.0,0.0,0.0,0.0,0.0,0.0,0.0,0.0,0.0,0.0,0.0,0.0,0.0,0.0,0.0,0.0,0.0,0.0,0.0,0.0,0.0,0.0,0.0,0.0,0.0,0.0,0.0,0.0,0.0,0.0,0.0,0.0,0.0,0.0,0.0,0.0,0.0,0.0,0.0,0.0,0.0,0.0,0.0,0.0,0.0,0.0,0.0,0.0,0.0,0.0,0.0,0.0,0.0,0.0,0.0,0.0,0.0,0.0,0.0,0.0,0.0,0.0,0.0,0.0,0.0,0.0,0.0,-0.2047,-0.0983,0.0,0.0,0.0,0.0,0.0,0.0,0.0,-0.1384,-0.2256,-0.1675,-0.291,-0.6315,-0.6098,-0.5522,-0.4651,-0.4068,-0.4721,-0.5446,-0.2983,-0.2692,-0.2621,-0.1899,-0.0881,0.0,0.0,0.0,0.0,0.0,0.0,0.0,0.0,0.0,0.0,0.0,0.0,0.0,0.0,0.0,0.0,0.0,0.0,0.0,0.0,0.0,0.0,0.0,0.0,0.0,0.0,0.0,0.0,0.0,0.0,0.0,0.0,0.0,0.0,0.0,0.0,0.0,0.0,0.0,0.0,0.0,0.0,0.0,0.0,0.0,0.0,0.0,0.0,0.0,0.0,0.0,0.0,0.0,0.0,0.0,0.0,0.0,0.0,0.0,0.0,0.0,0.0,0.0,0.0,0.0,0.0,0.0,0.0,0.0,0.0,0.0,0.0,0.0,0.0,0.0,0.0,0.0,0.0,0.0,0.0,0.0,0.0,0.0,0.0,0.0,0.0,0.0,0.0,0.0,0.0]},{"header":{"parameterUnit":"m.s-1","parameterCategory":1,"la1":31.0,"la2":29.5877,"lo1":-88.7671,"lo2":-86.6584,"dy":0.0162,"dx":0.0185,"nx":115,"ny":88,"refTime":"2023-10-24T00:00:00:Z","depth":0,"parameterNumber":3,"parameterNumberName":"V-component_of_WINDS"},"data":[0.0,0.0,0.0,0.0,0.0,0.0,0.0,0.0,0.0,0.0,0.0,0.0,0.0,0.0,0.0,0.0,0.0,0.0,0.0,0.0,0.0,0.0,0.0,0.0,0.0,0.0,0.0,0.0,0.0,0.0,0.0,0.0,0.0,0.0,0.0,0.0,0.0,0.0,0.0,0.0,0.0,0.0,0.0,0.0,0.0,0.0,0.0,0.0,0.0,0.0,0.0,0.0,0.0,0.0,0.0,0.0,0.0,0.0,0.0,0.0,0.0,0.0,0.0,0.0,0.0,0.0,0.0,0.0,0.0,0.0,0.0,0.0,0.0,0.0,0.0,0.0,0.0,0.0,0.0,0.0,0.0,0.0,0.0,0.0,0.0,0.0,0.0,0.0,0.0,0.0,0.0,0.0,0.0,0.0,0.0,0.0,0.0,0.0,0.0,0.0,0.0,0.0,0.0,0.0,0.0,0.0,0.0,0.0,0.0,0.0,0.0,0.0,0.0,0.0,0.0,0.0,0.0,0.0,0.0,0.0,0.0,0.0,0.0,0.0,0.0,0.0,0.0,0.0,0.0,0.0,0.0,0.0,0.0,0.0,0.0,0.0,0.0,0.0,0.0,0.0,0.0,0.0,0.0,0.0,0.0,0.0,0.0,0.0,0.0,0.0,0.0,0.0,0.0,0.0,0.0,0.0,0.0,0.0,0.0,0.0,0.0,0.0,0.0,0.0,0.0,0.0,0.0,0.0,0.0,0.0,0.0,0.0,0.0,0.0,0.0,0.0,0.0,0.0,0.0,0.0,0.0,0.0,0.0,0.0,0.0,0.0,0.0,0.0,0.0,0.0,0.0,0.0,0.0,0.0,0.0,0.0,0.0,0.0,0.0,0.0,0.0,0.0,0.0,0.0,0.0,0.0,0.0,0.0,0.0,0.0,0.0,0.0,0.0,0.0,0.0,0.0,0.0,0.0,0.0,0.0,0.0,0.0,0.0,0.0,0.0,0.0,0.0,0.0,0.0,0.0,0.0,0.0,0.0,0.0,0.0,0.0,0.0,0.0,0.0,0.0,0.0,0.0,0.0,0.0,0.0,0.0,0.0,0.0,0.0,0.0,0.0,0.0,0.0,0.0,0.0,0.0,0.0,0.0,0.0,0.0,0.0,0.0,0.0,0.0,0.0,0.0,0.0,0.0,0.0,0.0,0.0,0.0,0.0,0.0,0.0,0.0,0.0,0.0,0.0,0.0,0.0,0.0,0.0,0.0,0.0,0.0,0.0,0.0,0.0,0.0,0.0,0.0,0.0,0.0,0.0,0.0,0.0,0.0,0.0,0.0,0.0,0.0,0.0,0.0,0.0,0.0,0.0,0.0,0.0,0.0,0.0,0.0,0.0,0.0,0.0,0.0,0.0,0.0,0.0,0.0,0.0,0.0,0.0,0.0,0.0,0.0,0.0,0.0,0.0,0.0,0.0,0.0,0.0,0.0,0.0,0.0,0.0,0.0,0.0,0.0,0.0,0.0,0.0,0.0,0.0,0.0,0.0,0.0,0.0,0.0,0.0,0.0,0.0,0.0,0.0,0.0,0.0,0.0,0.0,0.0,0.0,0.0,0.0,0.0,0.0,0.0,0.0,0.0,0.0,0.0,0.0,0.0,0.0,0.0,0.0,0.0,0.0,0.0,0.0,0.0,0.0,0.0,0.0,0.0,0.0,0.0,0.0,0.0,0.0,0.0,0.0,0.0,0.0,0.0,0.0,0.0,0.0,0.0,0.0,0.0,0.0,0.0,0.0,0.0,0.0,0.0,0.0,0.0,0.0,0.0,0.0,0.0,0.0,0.0,0.0,0.0,0.0,0.0,0.0,0.0,0.0,0.0,0.0,0.0,0.0,0.0,0.0,0.0,0.0,0.0,0.0,0.0,0.0,0.0,0.0,0.0,0.0,0.0,0.0,0.0,0.0,0.0,0.0,0.0,0.0,0.0,0.0,0.0,0.0,0.0,0.0,0.0,0.0,0.0,0.0,0.0,0.0,0.0,0.0,0.0,0.0,0.0,0.0,0.0,0.0,0.0,0.0,0.0,0.0,0.0,0.0,0.0,0.0,0.0,0.0,0.0,0.0,0.0,0.0,0.0,0.0,0.0,0.0,0.0,0.0,0.0,0.0,0.0,0.0,0.0,0.0,0.0,0.0,0.0,0.0,0.0,0.0,0.0,0.0,0.0,0.0,0.0,0.0,0.0,0.0,0.0,0.0,0.0,0.0,0.0,0.0,0.0,0.0,0.0,0.0,0.0,0.0,0.0,0.0,0.0,0.0,0.0,0.0,0.0,0.0,0.0,0.0,0.0,0.0,0.0,0.0,0.0,0.0,0.0,0.0,0.0,0.0,0.0,0.0,0.0,0.0,0.0,0.0,0.0,0.0,0.0,0.0,0.0,0.0,0.0,0.0,0.0,0.0,0.0,0.0,0.0,0.0,0.0,0.0,0.0,0.0,0.0,0.0,0.0,0.0,0.0,0.0,0.0,0.0,0.0,0.0,0.0,0.0,0.0,0.0,0.0,0.0,0.0,0.0,0.0,0.0,0.0,0.0,0.0,0.0,0.0,0.0,0.0,0.0,0.0,0.0,0.0,0.0,0.0,0.0,0.0,0.0,0.0,0.0,0.0,0.0,0.0,0.0,0.0,0.0,0.0,0.0,0.0,0.0,0.0,0.0,0.0,0.0,0.0,0.0,0.0,0.0,0.0,0.0,0.0,0.0,0.0,0.0,0.0,0.0,0.0,0.0,0.0,0.0,0.0,0.0,0.0,0.0,0.0,0.0,0.0,0.0,0.0,0.0,0.0,0.0,0.0,0.0,0.0,0.0,0.0,0.0,0.0,0.0,0.0,0.0,0.0,0.0,0.0,0.0,0.0,0.0,0.0,0.0,0.0,0.0,0.0,0.0,0.0,0.0,0.0,0.0,0.0,0.0,0.0,0.0,0.0,0.0,0.0,0.0,0.0,0.0,0.0,0.0,0.0,0.0,0.0,0.0,0.0,0.0,0.0,0.0,0.0,0.0,0.0,0.0,0.0,0.0,0.0,0.0,0.0,0.0,0.0,0.0,0.0,0.0,0.0,0.0,0.0,0.0,0.0,0.0,0.0,0.0,0.0,0.0,0.0,0.0,0.0,0.0,0.0,0.0,0.0,0.0,0.0,0.0,0.0,0.0,0.0,0.0,0.0,0.0,0.0,0.0,0.0,0.0,0.0,0.0,0.0,0.0,0.0,0.0,0.0,0.0,0.0,0.0,0.0,0.0,0.0,0.0,0.0,0.0,0.0,0.0,0.0,0.0,0.0,0.0,0.0,0.0,0.0,0.0,0.0,0.0,0.0,0.0,0.0,0.0,0.0,0.0,0.0,0.0,0.0,0.0,0.0,0.0,0.0,0.0,0.0,0.0,0.0,0.0,0.0,0.0,0.0,0.0,0.0,0.0,0.0,0.0,0.0,0.0,0.0,0.0,0.0,0.0,0.0,0.0,0.0,0.0,0.0,0.0,0.0,0.0,0.0,0.0,0.0,0.0,0.0,0.0,0.0,0.0,0.0,0.0,0.0,0.0,0.0,0.0,0.0,0.0,0.0,0.0,0.0,0.0,0.0,0.0,0.0,0.0,0.0,0.0,0.0,0.0,0.0,0.0,0.0,0.0,0.0,0.0,0.0,0.0,0.0,0.0,0.0,0.0,0.0,0.0,0.0,0.0,0.0,0.0,0.0,0.0,0.0,0.0,0.0,0.0,0.0,0.0,0.0,0.0,0.0,0.0,0.0,0.0,0.0,0.0,0.0,0.0,0.0,0.0,0.0,0.0,0.0,0.0,0.0,0.0,0.0,0.0,0.0,0.0,0.0,0.0,0.0,0.0,0.0,0.0,0.0,0.0,0.0,0.0,0.0,0.0,0.0,0.0,0.0,0.0,0.0,0.0,0.0,0.0,0.0,0.0,0.0,0.0,0.0,0.0,0.0,0.0,0.0,0.0,0.0,0.0,0.0,0.0,0.0,0.0,0.0,0.0,0.0,0.0,0.0,0.0,0.0,0.0,0.0,0.0,0.0,0.0,0.0,0.0,0.0,0.0,0.0,0.0,0.0,0.0,0.0,0.0,0.0,0.0,0.0,0.0,0.0,0.0,0.0,0.0,0.0,0.0,0.0,0.0,0.0,0.0,0.0,0.0,0.0,0.0,0.0,0.0,0.0,0.0,0.0,0.0,0.0,0.0,0.0,0.0,0.0,0.0,0.0,0.0,0.0,1.5217,0.0,0.0,0.0,0.0,0.0,0.0,0.0,0.0,0.0,0.0,0.0,0.0,0.0,0.0,0.0,0.0,0.0,0.0,0.0,0.0,0.0,0.0,0.0,0.0,0.0,0.0,0.0,0.0,0.0,0.0,0.0,0.0,0.0,0.0,0.0,0.0,0.0,0.0,0.0,0.0,0.0,0.0,0.0,0.0,0.0,0.0,0.0,0.0,0.0,0.0,0.0,0.0,0.0,0.0,0.0,0.0,0.0,0.0,0.0,0.0,0.0,0.0,0.0,0.0,0.0,0.0,0.0,0.0,0.0,0.0,0.0,0.0,0.0,0.0,0.0,0.0,0.0,0.0,0.0,0.0,0.0,0.0,0.0,0.0,0.0,0.0,0.0,0.0,0.0,0.0,0.0,0.0,0.0,0.0,0.0,0.0,0.0,0.0,0.0,0.0,0.0,0.0,0.0,0.0,0.0,0.0,0.0,0.0,0.0,0.0,1.4958,1.4422,1.4386,1.4135,1.3702,0.0,0.0,0.0,0.0,0.0,0.0,0.0,0.0,0.0,0.0,0.0,0.0,0.0,0.0,0.0,0.0,0.0,0.0,0.0,0.0,0.0,0.0,0.0,0.0,0.0,0.0,0.0,0.0,0.0,0.0,0.0,0.0,0.0,0.0,0.0,0.0,0.0,0.0,0.0,0.0,0.0,0.0,0.0,0.0,0.0,0.0,0.0,0.0,0.0,0.0,0.0,0.0,0.0,0.0,0.0,0.0,0.0,0.0,0.0,0.0,0.0,0.0,0.0,0.0,0.0,0.0,0.0,0.0,0.0,0.0,0.0,0.0,0.0,0.0,0.0,0.0,0.0,0.0,0.0,0.0,0.0,0.0,0.0,0.0,0.0,0.0,0.0,0.0,0.0,0.0,0.0,0.0,0.0,0.0,0.0,0.0,0.0,0.0,0.0,0.0,0.0,0.0,0.0,0.0,0.0,0.0,0.0,0.0,0.0,0.0,0.0,0.0,1.2814,1.2595,1.2352,0.0,0.0,0.0,0.0,0.0,0.0,0.0,0.0,0.0,0.0,0.0,0.0,0.0,0.0,0.0,0.0,0.0,0.0,0.0,0.0,0.0,0.0,0.0,0.0,0.0,0.0,0.0,0.0,0.0,0.0,0.0,0.0,0.0,0.0,0.0,0.0,0.0,0.0,0.0,0.0,0.0,0.0,0.0,0.0,0.0,0.0,0.0,0.0,0.0,0.0,0.0,0.0,0.0,0.0,0.0,0.0,0.0,0.0,0.0,0.0,0.0,0.0,0.0,0.0,0.0,0.0,0.0,0.0,0.0,0.0,0.0,0.0,0.0,0.0,0.0,0.0,0.0,0.0,0.0,0.0,0.0,0.0,0.0,0.0,0.0,0.0,0.0,0.0,0.0,0.0,0.0,0.0,0.0,0.0,0.0,0.0,0.0,0.0,0.0,0.0,0.0,0.0,0.0,0.0,0.0,0.0,0.0,0.0,0.0,0.0,1.1156,1.1044,1.0185,0.0,1.2128,0.0,0.0,0.0,0.0,0.0,0.0,0.0,0.0,0.0,0.0,0.0,0.0,0.0,0.0,0.0,0.0,0.0,0.0,0.0,0.0,0.0,0.0,0.0,0.0,0.0,0.0,0.0,0.0,0.0,0.0,0.0,0.0,0.0,0.0,0.0,0.0,0.0,0.0,0.0,0.0,0.0,0.0,0.0,0.0,0.0,0.0,0.0,0.0,0.0,0.0,0.0,0.0,0.0,0.0,0.0,0.0,0.0,0.0,0.0,0.0,0.0,0.0,0.0,0.0,0.0,0.0,0.0,0.0,0.0,0.0,0.0,0.0,0.0,0.0,0.0,0.0,0.0,0.0,0.0,0.0,0.0,0.0,0.0,0.0,0.0,0.0,0.0,0.0,0.0,0.0,0.0,0.0,0.0,0.0,0.0,0.0,0.0,0.0,0.0,0.0,0.0,0.0,0.0,0.0,0.0,0.0,0.0,0.0,0.0,0.0,1.0861,1.0061,0.9552,0.9987,0.0,0.0,0.0,0.0,0.0,0.0,0.0,0.0,0.0,0.0,0.0,0.0,0.0,0.0,0.0,0.0,0.0,0.0,0.0,0.0,0.0,0.0,0.0,0.0,0.0,0.0,0.0,0.0,0.0,0.0,0.0,0.0,0.0,0.0,0.0,0.0,0.0,0.0,0.0,0.0,0.0,0.0,0.0,0.0,0.0,0.0,0.0,0.0,0.0,0.0,0.0,0.0,0.0,0.0,0.0,0.0,0.0,0.0,0.0,0.0,0.0,0.0,0.0,0.0,0.0,0.0,0.0,0.0,0.0,0.0,0.0,0.0,0.0,0.0,0.0,0.0,0.0,0.0,0.0,0.0,0.0,0.0,0.0,0.0,0.0,0.0,0.0,0.0,0.0,0.0,0.0,0.0,0.0,0.0,0.0,0.0,0.0,0.0,0.0,0.0,0.0,0.0,0.0,0.0,0.0,0.0,0.0,0.0,0.0,0.0,1.0716,0.9988,0.8794,0.8891,0.9369,1.0151,0.0,0.0,0.0,0.0,0.0,0.0,0.0,0.0,0.0,0.0,0.0,0.0,0.0,0.0,0.0,0.0,0.0,0.0,0.0,0.0,0.0,0.0,0.0,0.0,0.0,0.0,0.0,0.0,0.0,0.0,0.0,0.0,0.0,0.0,0.0,0.0,0.0,0.0,0.0,0.0,0.0,0.0,0.0,0.0,0.0,0.0,0.0,0.0,0.0,0.0,0.0,0.0,0.0,0.0,0.0,0.0,0.0,0.0,0.0,0.0,0.0,0.0,0.0,0.0,0.0,0.0,0.0,0.0,0.0,0.0,0.0,0.0,0.0,0.0,0.0,0.0,0.0,0.0,0.0,0.0,0.0,0.0,0.0,0.0,0.0,0.0,0.0,0.0,0.0,0.0,0.0,0.0,0.0,0.0,0.0,0.0,0.0,0.0,0.0,0.0,0.0,0.0,0.0,0.0,0.0,0.0,0.0,0.0,0.9837,0.886,0.7877,0.6943,0.7737,0.8226,0.0,0.0,0.0,0.0,0.0,0.0,0.0,0.0,0.0,0.0,0.0,0.0,0.0,0.0,0.0,0.0,0.0,0.0,0.0,0.0,0.0,0.0,0.0,0.0,0.0,0.0,0.0,0.0,0.0,0.0,0.0,0.0,0.0,0.0,0.0,0.0,0.0,0.0,0.0,0.0,0.0,0.0,0.0,0.0,0.0,0.0,0.0,0.0,0.0,0.0,0.0,0.0,0.0,0.0,0.0,0.0,0.0,0.0,0.0,0.0,0.0,0.0,0.0,0.0,0.0,0.0,0.0,0.0,0.0,0.0,0.0,0.0,0.0,0.0,0.0,0.0,0.0,0.0,0.0,0.0,0.0,0.0,0.0,0.0,0.0,0.0,0.0,0.0,0.0,0.0,0.0,0.0,0.0,0.0,0.0,0.0,0.0,0.0,0.0,0.0,0.0,0.0,0.0,0.0,0.0,0.0,0.0,0.0,0.0,0.9195,0.7246,0.6488,0.693,0.6412,0.6736,0.0,0.0,0.0,0.0,0.0,0.0,0.0,0.0,0.0,0.0,0.0,0.0,0.0,0.0,0.0,0.0,0.0,0.0,0.0,0.0,0.0,0.0,0.0,0.0,0.0,0.0,0.0,0.0,0.0,0.0,0.0,0.0,0.0,0.0,0.0,0.0,0.0,0.0,0.0,0.0,0.0,0.0,0.0,0.0,0.0,0.0,0.0,0.0,0.0,0.0,0.0,0.0,0.0,0.0,0.0,0.0,0.0,0.0,0.0,0.0,0.0,0.0,0.0,0.0,0.0,0.0,0.0,0.0,0.0,0.0,0.0,0.0,0.0,0.0,0.0,0.0,0.0,0.0,0.0,0.0,0.0,0.0,0.0,0.0,0.0,0.0,0.0,0.0,0.0,0.0,0.0,0.0,0.0,0.0,0.0,0.0,0.0,0.0,0.0,0.0,0.0,0.0,0.0,0.0,0.0,0.0,0.0,0.0,0.0,0.836,0.0,0.6025,0.6505,0.595,0.6172,0.0,0.0,0.0,0.0,0.0,0.0,0.0,0.0,0.0,0.0,0.0,0.0,0.0,0.0,0.0,0.0,0.0,0.0,0.0,0.0,0.0,0.0,0.0,0.0,0.0,0.0,0.0,0.0,0.0,0.0,0.0,0.0,0.0,0.0,0.0,0.0,0.0,0.0,0.0,0.0,0.0,0.0,0.0,0.0,0.0,0.0,0.0,0.0,0.0,0.0,0.0,0.0,0.0,0.0,0.0,0.0,0.0,0.0,0.0,0.0,0.0,0.0,0.0,0.0,0.0,0.0,0.0,0.0,0.0,0.0,0.0,0.0,0.0,0.0,0.0,0.0,0.0,0.0,0.0,0.0,0.0,0.0,0.0,0.0,0.0,0.0,0.0,0.0,0.0,0.0,0.0,0.0,0.0,0.0,0.0,0.0,0.0,0.0,0.0,0.0,0.0,0.0,0.0,0.0,0.0,0.0,0.0,0.0,0.9435,0.718,0.7048,0.6467,0.5492,0.6416,0.6443,0.0,0.0,0.0,0.0,0.0,0.0,0.0,0.0,0.0,0.0,0.0,0.0,0.0,0.0,0.0,0.0,0.0,0.0,0.0,0.0,0.0,0.0,0.0,0.0,0.0,0.0,0.0,0.0,0.0,0.0,0.0,0.0,0.0,0.0,0.0,0.0,0.0,0.0,0.0,0.0,0.0,0.0,0.0,0.0,0.0,0.0,0.0,0.0,0.0,0.0,0.0,0.0,0.0,0.0,0.0,0.0,0.0,0.0,0.0,0.0,0.0,0.0,0.0,0.0,0.0,0.0,0.0,0.0,0.0,0.0,0.0,0.0,0.0,0.0,0.0,0.0,0.0,0.0,0.0,0.0,0.0,0.0,0.0,0.0,0.0,0.0,0.0,0.0,0.0,0.0,0.0,0.0,0.0,0.0,0.0,0.0,0.0,0.0,0.0,0.0,0.0,0.0,0.0,0.0,0.0,0.0,0.0,0.0,0.0,0.598,0.5941,0.5758,0.5447,0.5758,0.6095,0.0,0.0,0.0,0.0,0.0,0.0,0.0,0.0,0.0,0.0,0.0,0.0,0.0,0.0,0.0,0.0,0.0,0.0,0.0,0.0,0.0,0.0,0.0,0.0,0.0,0.0,0.0,0.0,0.0,0.0,0.0,0.0,0.0,0.0,0.0,0.0,0.0,0.0,0.0,0.0,0.0,0.0,0.0,0.0,0.0,0.0,0.0,0.0,0.0,0.0,0.0,0.0,0.0,0.0,0.0,0.0,0.0,0.0,0.0,0.0,0.0,0.0,0.0,0.0,0.0,0.0,0.0,0.0,0.0,0.0,0.0,0.0,0.0,0.0,0.0,0.0,0.0,0.0,0.0,0.0,0.0,0.0,0.0,0.0,0.0,0.0,0.0,0.0,0.0,0.0,0.0,0.0,0.0,0.0,0.0,0.0,0.0,0.0,0.0,0.0,0.0,0.0,0.0,0.0,0.0,0.0,0.0,0.0,0.0,0.6246,0.6161,0.5919,0.547,0.5919,0.621,0.6473,0.0,0.0,0.0,0.0,0.0,0.0,0.0,0.0,0.0,0.0,0.0,0.0,0.0,0.0,0.0,0.0,0.0,0.0,0.0,0.0,0.0,0.0,0.0,0.0,0.0,0.0,0.0,0.0,0.0,0.0,0.0,0.0,0.0,0.0,0.0,0.0,0.0,0.0,0.0,0.0,0.0,0.0,0.0,0.0,0.0,0.0,0.0,0.0,0.0,0.0,0.0,0.0,0.0,0.0,0.0,0.0,0.0,0.0,0.0,0.0,0.0,0.0,0.0,0.0,0.0,0.0,0.0,0.0,0.0,0.0,0.0,0.0,0.0,0.0,0.0,0.0,0.0,0.0,0.0,0.0,0.0,0.0,0.0,0.0,0.0,0.0,0.0,0.0,0.0,0.0,0.0,0.0,0.0,0.0,0.0,0.0,0.0,0.0,0.0,0.0,0.0,0.0,0.0,0.0,0.0,0.0,0.0,0.0,0.7677,0.7528,0.6863,0.569,0.6786,0.6808,0.0,0.0,0.0,0.0,0.0,0.0,0.0,0.0,0.0,0.0,0.0,0.0,0.0,0.0,0.0,0.0,0.0,0.0,0.0,0.0,0.0,0.0,0.0,0.0,0.0,0.0,0.0,0.0,0.0,0.0,0.0,0.0,0.0,0.0,0.0,0.0,0.0,0.0,0.0,0.0,0.0,0.0,0.0,0.0,0.0,0.0,0.0,0.0,0.0,0.0,0.0,0.0,0.0,0.0,0.0,0.0,0.0,0.0,0.0,0.0,0.0,0.0,0.0,0.0,0.0,0.0,0.0,0.0,0.0,0.0,0.0,0.0,0.0,0.0,0.0,0.0,0.0,0.0,0.0,0.0,0.0,0.0,0.0,0.0,0.0,0.0,0.0,0.0,0.0,0.0,0.0,0.0,0.0,0.0,0.0,0.0,0.0,0.0,0.0,0.0,0.0,0.0,0.0,0.0,0.0,0.0,0.0,0.0,0.0,0.9426,0.8535,0.7383,0.5973,0.6979,0.733,0.0,0.0,0.0,0.0,0.0,0.0,0.0,0.0,0.0,0.0,0.0,0.0,0.0,0.0,0.0,0.0,0.0,0.0,0.0,0.0,0.0,0.0,0.0,0.0,0.0,0.0,0.0,0.0,0.0,0.0,0.0,0.0,0.0,0.0,0.0,0.0,0.0,0.0,0.0,0.0,0.0,0.0,0.0,0.0,0.0,0.0,0.0,0.0,0.0,0.0,0.0,0.0,0.0,0.0,0.0,0.0,0.0,0.0,0.0,0.0,0.0,0.0,0.0,0.0,0.0,0.0,0.0,0.0,0.0,0.0,0.0,0.0,0.0,0.0,0.0,0.0,0.0,0.0,0.0,0.0,0.0,0.0,0.0,0.0,0.0,0.0,0.0,0.0,0.0,0.0,0.0,0.0,0.0,0.0,0.0,0.0,0.0,0.0,0.0,0.0,0.0,0.0,0.0,0.0,0.0,0.0,0.0,0.0,1.0965,1.091,0.9991,0.899,0.8066,0.8285,0.8128,0.0,0.0,0.0,0.0,0.0,0.0,0.0,0.0,0.0,0.0,0.0,0.0,0.0,0.0,0.0,0.0,0.0,0.0,0.0,0.0,0.0,0.0,0.0,0.0,0.0,0.0,0.0,0.0,0.0,0.0,0.0,0.0,0.0,0.0,0.0,0.0,0.0,0.0,0.0,0.0,0.0,0.0,0.0,0.0,0.0,0.0,0.0,0.0,0.0,0.0,0.0,0.0,0.0,0.0,0.0,0.0,0.0,0.0,0.0,0.0,0.0,0.0,0.0,0.0,0.0,0.0,0.0,0.0,0.0,0.0,0.0,0.0,0.0,0.0,0.0,0.0,0.0,0.0,0.0,0.0,0.0,0.0,0.0,0.0,0.0,0.0,0.0,0.0,0.0,0.0,0.0,0.0,0.0,0.0,0.0,0.0,0.0,0.0,0.0,0.0,0.0,0.0,0.0,0.0,0.0,0.0,0.0,0.0,1.2618,1.2254,1.1628,1.1242,1.1105,1.0087,0.9052,0.0,0.0,0.0,0.0,0.0,0.0,0.0,0.0,0.0,0.0,0.0,0.0,0.0,0.0,0.0,0.0,0.0,0.0,0.0,0.0,0.0,0.0,0.0,0.0,0.0,0.0,0.0,0.0,0.0,0.0,0.0,0.0,0.0,0.0,0.0,0.0,0.0,0.0,0.0,0.0,0.0,0.0,0.0,0.0,0.0,0.0,0.0,0.0,0.0,0.0,0.0,0.0,0.0,0.0,0.0,0.0,0.0,0.0,0.0,0.0,0.0,0.0,0.0,0.0,0.0,0.0,0.0,0.0,0.0,0.0,0.0,0.0,0.0,0.0,0.0,0.0,0.0,0.0,0.0,0.0,0.0,0.0,0.0,0.0,0.0,0.0,0.0,0.0,0.0,0.0,0.0,0.0,0.0,0.0,0.0,0.0,0.0,0.0,0.0,0.0,0.0,0.0,0.0,0.0,0.0,0.0,0.0,0.0,1.4208,1.4304,1.3369,1.2812,1.2763,1.0822,1.0083,0.0,0.0,0.0,0.0,0.0,0.0,0.0,0.0,0.0,0.0,0.0,0.0,0.0,0.0,0.0,0.0,0.0,0.0,0.0,0.0,0.0,0.0,0.0,0.0,0.0,0.0,0.0,0.0,0.0,0.0,0.0,0.0,0.0,0.0,0.0,0.0,0.0,0.0,0.0,0.0,0.0,0.0,0.0,0.0,0.0,0.0,0.0,0.0,2.1332,0.0,0.0,0.0,0.0,0.0,0.0,0.0,0.0,0.0,0.0,0.0,0.0,0.0,0.0,0.0,0.0,0.0,0.0,0.0,0.0,0.0,0.0,0.0,0.0,0.0,0.0,0.0,0.0,0.0,0.0,0.0,0.0,0.0,0.0,0.0,0.0,0.0,0.0,0.0,0.0,0.0,0.0,0.0,0.0,0.0,0.0,0.0,0.0,0.0,0.0,0.0,0.0,0.0,0.0,0.0,0.0,0.0,0.0,0.0,1.5401,1.5035,1.454,1.4288,1.4255,1.2802,1.2043,0.0,0.0,0.0,0.0,0.0,0.0,0.0,0.0,0.0,0.0,0.0,0.0,0.0,0.0,0.0,0.0,0.0,0.0,0.0,0.0,0.0,0.0,0.0,0.0,0.0,0.0,0.0,0.0,0.0,0.0,0.0,0.0,0.0,0.0,0.0,0.0,0.0,0.0,0.0,0.0,0.0,0.0,0.0,0.0,0.0,0.0,0.0,0.0,0.0,0.0,0.0,0.0,0.0,0.0,0.0,0.0,0.0,0.0,0.0,0.0,0.0,0.0,0.0,0.0,0.0,0.0,0.0,0.0,0.0,0.0,0.0,0.0,0.0,0.0,0.0,0.0,0.0,0.0,0.0,0.0,0.0,0.0,0.0,0.0,0.0,0.0,0.0,0.0,0.0,0.0,0.0,0.0,0.0,0.0,0.0,0.0,0.0,0.0,0.0,0.0,0.0,0.0,0.0,0.0,0.0,0.0,0.0,1.6679,1.6291,1.5459,1.5623,1.5743,1.5743,1.5366,1.4527,1.3125,0.0,0.0,0.0,0.0,0.0,0.0,0.0,0.0,0.0,0.0,0.0,0.0,0.0,0.0,0.0,0.0,0.0,0.0,0.0,0.0,0.0,0.0,0.0,0.0,0.0,0.0,0.0,0.0,0.0,0.0,0.0,0.0,0.0,0.0,0.0,0.0,0.0,0.0,2.2217,2.1484,0.0,0.0,0.0,0.0,0.0,0.0,0.0,0.0,2.1349,0.0,0.0,0.0,0.0,0.0,0.0,0.0,0.0,0.0,0.0,0.0,0.0,0.0,0.0,0.0,0.0,0.0,0.0,0.0,0.0,0.0,0.0,0.0,0.0,0.0,0.0,0.0,0.0,0.0,0.0,0.0,0.0,0.0,0.0,0.0,0.0,0.0,0.0,0.0,0.0,0.0,0.0,0.0,0.0,0.0,0.0,0.0,0.0,0.0,0.0,0.0,0.0,0.0,0.0,0.0,0.0,1.8125,1.7222,1.6866,1.7174,1.7226,1.7252,1.7252,1.789,1.7557,1.6108,0.0,0.0,0.0,0.0,0.0,0.0,0.0,0.0,0.0,0.0,0.0,0.0,0.0,0.0,0.0,0.0,0.0,0.0,0.0,0.0,0.0,0.0,0.0,0.0,0.0,0.0,0.0,0.0,0.0,0.0,0.0,0.0,0.0,0.0,0.0,0.0,0.0,0.0,0.0,2.2778,2.2899,0.0,0.0,0.0,0.0,0.0,0.0,0.0,0.0,2.1699,0.0,0.0,0.0,0.0,0.0,0.0,0.0,0.0,0.0,0.0,0.0,0.0,0.0,0.0,0.0,0.0,0.0,0.0,0.0,0.0,0.0,0.0,0.0,0.0,0.0,0.0,0.0,0.0,0.0,0.0,0.0,0.0,0.0,0.0,0.0,0.0,0.0,0.0,0.0,0.0,0.0,0.0,0.0,0.0,0.0,0.0,0.0,0.0,0.0,0.0,0.0,0.0,0.0,0.0,0.0,1.9538,1.9201,1.927,1.9701,1.9716,1.9716,1.9716,1.9957,1.9319,0.0,0.0,0.0,0.0,0.0,0.0,0.0,0.0,0.0,0.0,0.0,0.0,0.0,0.0,0.0,0.0,0.0,0.0,0.0,0.0,0.0,0.0,0.0,0.0,0.0,0.0,0.0,0.0,0.0,0.0,0.0,0.0,0.0,0.0,0.0,0.0,0.0,0.0,0.0,0.0,2.3163,2.3473,2.4787,0.0,0.0,0.0,0.0,0.0,0.0,2.248,2.2148,0.0,0.0,0.0,0.0,0.0,0.0,0.0,0.0,0.0,0.0,0.0,0.0,0.0,0.0,0.0,0.0,0.0,0.0,0.0,0.0,0.0,0.0,0.0,0.0,0.0,0.0,0.0,0.0,0.0,0.0,0.0,0.0,0.0,0.0,0.0,0.0,0.0,0.0,0.0,0.0,0.0,0.0,0.0,0.0,0.0,0.0,0.0,0.0,0.0,0.0,0.0,0.0,0.0,0.0,0.0,2.0954,2.1112,2.1379,2.1677,2.1693,2.1693,2.1693,2.1428,2.0573,0.0,0.0,0.0,0.0,0.0,0.0,0.0,0.0,0.0,0.0,0.0,0.0,0.0,0.0,0.0,0.0,0.0,0.0,0.0,0.0,0.0,0.0,0.0,0.0,0.0,0.0,0.0,0.0,0.0,0.0,0.0,0.0,0.0,0.0,0.0,0.0,0.0,0.0,0.0,0.0,0.0,2.4257,2.6411,2.5119,0.0,0.0,0.0,0.0,2.3301,2.3047,0.0,0.0,0.0,0.0,0.0,0.0,0.0,0.0,0.0,0.0,0.0,0.0,0.0,0.0,0.0,0.0,0.0,0.0,0.0,0.0,0.0,0.0,0.0,0.0,0.0,0.0,0.0,0.0,0.0,0.0,0.0,0.0,0.0,0.0,0.0,0.0,0.0,0.0,0.0,0.0,0.0,0.0,0.0,0.0,0.0,0.0,0.0,0.0,0.0,0.0,0.0,0.0,0.0,0.0,0.0,0.0,2.2179,2.1519,2.1379,2.1677,2.1693,2.1693,2.1677,2.2025,2.1644,0.0,0.0,0.0,0.0,0.0,0.0,0.0,0.0,0.0,0.0,0.0,0.0,0.0,0.0,0.0,0.0,0.0,0.0,0.0,0.0,0.0,0.0,0.0,0.0,0.0,0.0,0.0,0.0,0.0,0.0,0.0,0.0,0.0,0.0,0.0,0.0,0.0,0.0,0.0,0.0,0.0,2.626,2.4942,2.593,2.6174,0.0,0.0,2.4141,2.3769,2.3984,0.0,0.0,0.0,0.0,0.0,0.0,0.0,0.0,0.0,0.0,0.0,0.0,0.0,0.0,0.0,0.0,0.0,0.0,0.0,0.0,0.0,0.0,0.0,0.0,0.0,0.0,0.0,0.0,0.0,0.0,0.0,0.0,0.0,0.0,0.0,0.0,0.0,0.0,0.0,0.0,0.0,0.0,0.0,0.0,0.0,0.0,0.0,0.0,0.0,0.0,0.0,0.0,0.0,0.0,0.0,2.5117,2.4631,2.4744,2.488,2.5004,2.4356,2.3949,2.3998,2.4287,2.3662,0.0,0.0,0.0,0.0,0.0,0.0,0.0,0.0,0.0,0.0,0.0,0.0,0.0,0.0,0.0,0.0,0.0,0.0,0.0,0.0,0.0,0.0,0.0,0.0,0.0,0.0,0.0,0.0,0.0,0.0,0.0,0.0,0.0,0.0,0.0,0.0,0.0,0.0,0.0,0.0,0.0,0.0,2.7371,2.7042,0.0,0.0,0.0,2.4277,2.3848,0.0,0.0,0.0,0.0,0.0,0.0,0.0,0.0,0.0,0.0,0.0,0.0,0.0,0.0,0.0,0.0,0.0,0.0,0.0,0.0,0.0,0.0,0.0,0.0,0.0,0.0,0.0,0.0,0.0,0.0,0.0,0.0,0.0,0.0,0.0,0.0,0.0,0.0,0.0,0.0,0.0,0.0,0.0,0.0,0.0,0.0,0.0,0.0,0.0,0.0,0.0,0.0,0.0,0.0,0.0,0.0,0.0,2.6729,2.7604,2.8049,2.8002,2.7125,2.662,2.6628,2.671,0.0,0.0,0.0,0.0,0.0,0.0,0.0,0.0,0.0,0.0,0.0,0.0,0.0,0.0,0.0,0.0,0.0,0.0,0.0,0.0,0.0,0.0,0.0,0.0,0.0,0.0,0.0,3.2375,0.0,0.0,0.0,0.0,0.0,0.0,0.0,0.0,0.0,0.0,0.0,0.0,0.0,0.0,2.7699,2.9145,2.8091,2.7437,0.0,0.0,2.5093,2.4666,2.5239,2.5198,0.0,0.0,0.0,0.0,0.0,0.0,0.0,0.0,0.0,0.0,0.0,0.0,0.0,0.0,0.0,0.0,0.0,0.0,0.0,0.0,0.0,0.0,0.0,0.0,0.0,0.0,0.0,0.0,0.0,0.0,0.0,0.0,0.0,0.0,0.0,0.0,0.0,0.0,0.0,0.0,0.0,0.0,0.0,0.0,0.0,0.0,0.0,0.0,0.0,0.0,0.0,0.0,0.0,0.0,2.7873,2.7831,2.8768,2.928,2.928,2.9189,2.912,2.912,2.8768,2.8277,0.0,0.0,0.0,0.0,0.0,0.0,0.0,0.0,0.0,0.0,0.0,0.0,0.0,0.0,0.0,0.0,0.0,0.0,0.0,0.0,0.0,0.0,0.0,0.0,0.0,0.0,0.0,0.0,0.0,0.0,0.0,0.0,0.0,0.0,0.0,0.0,0.0,0.0,0.0,0.0,0.0,2.9187,2.8177,2.8889,2.9375,0.0,0.0,2.7414,2.6785,2.7108,2.6754,2.4638,0.0,0.0,0.0,0.0,0.0,0.0,0.0,0.0,0.0,0.0,0.0,0.0,0.0,0.0,0.0,0.0,0.0,0.0,0.0,0.0,0.0,0.0,0.0,0.0,0.0,0.0,0.0,0.0,0.0,0.0,0.0,0.0,0.0,0.0,0.0,0.0,0.0,0.0,0.0,0.0,0.0,0.0,0.0,0.0,0.0,0.0,0.0,0.0,0.0,0.0,0.0,0.0,0.0,2.9738,2.9083,3.0018,3.0508,3.0485,2.9806,2.9396,2.9396,2.9665,2.918,0.0,0.0,0.0,0.0,0.0,0.0,0.0,0.0,0.0,0.0,0.0,0.0,0.0,0.0,0.0,0.0,0.0,0.0,0.0,0.0,0.0,0.0,0.0,0.0,0.0,0.0,0.0,0.0,3.5794,3.557,3.4298,0.0,0.0,0.0,0.0,0.0,0.0,0.0,0.0,0.0,0.0,3.0228,3.01,3.0782,0.0,0.0,2.9804,2.8723,2.8162,2.7519,2.6706,2.5272,2.4337,0.0,0.0,0.0,0.0,0.0,0.0,0.0,0.0,0.0,0.0,0.0,0.0,0.0,0.0,0.0,0.0,0.0,0.0,0.0,0.0,0.0,0.0,0.0,0.0,0.0,0.0,0.0,0.0,0.0,0.0,0.0,0.0,0.0,0.0,0.0,0.0,0.0,0.0,0.0,0.0,0.0,0.0,0.0,0.0,0.0,0.0,0.0,0.0,0.0,0.0,0.0,0.0,3.1498,3.0762,3.1712,3.2253,3.2253,3.111,3.0508,3.0508,3.0954,3.0716,0.0,0.0,0.0,0.0,0.0,0.0,0.0,0.0,0.0,0.0,0.0,0.0,0.0,0.0,0.0,0.0,0.0,0.0,0.0,0.0,0.0,0.0,0.0,0.0,0.0,0.0,0.0,0.0,3.7015,3.6688,3.557,0.0,0.0,0.0,0.0,0.0,0.0,0.0,0.0,0.0,0.0,3.1859,3.1904,3.2249,3.2491,3.2491,3.1297,3.0115,2.9414,2.8545,2.7541,2.6344,0.0,0.0,0.0,0.0,0.0,0.0,0.0,0.0,0.0,0.0,0.0,0.0,0.0,0.0,0.0,0.0,0.0,0.0,0.0,0.0,0.0,0.0,0.0,0.0,0.0,0.0,0.0,0.0,0.0,0.0,3.7735,0.0,0.0,0.0,0.0,0.0,0.0,0.0,0.0,0.0,0.0,0.0,0.0,0.0,0.0,0.0,0.0,0.0,0.0,0.0,0.0,0.0,0.0,3.2935,3.2961,3.3989,3.4568,3.4568,3.3598,3.3025,3.3,3.3068,3.325,3.3606,0.0,0.0,0.0,0.0,0.0,0.0,0.0,0.0,0.0,0.0,0.0,0.0,0.0,0.0,0.0,0.0,0.0,0.0,0.0,0.0,0.0,0.0,0.0,0.0,0.0,0.0,3.5669,3.6118,3.6507,0.0,0.0,0.0,0.0,0.0,0.0,0.0,0.0,0.0,0.0,3.3831,3.4262,3.324,3.3093,3.3169,3.3169,3.2557,3.1709,3.0572,3.0308,2.9773,0.0,0.0,0.0,0.0,0.0,0.0,0.0,0.0,0.0,0.0,0.0,0.0,0.0,0.0,0.0,0.0,0.0,0.0,0.0,0.0,0.0,0.0,0.0,0.0,0.0,0.0,0.0,3.8969,3.8523,0.0,0.0,0.0,0.0,0.0,0.0,0.0,0.0,0.0,0.0,0.0,3.9668,4.0174,0.0,0.0,0.0,0.0,0.0,0.0,0.0,0.0,0.0,0.0,0.0,0.0,3.3925,3.3979,3.5095,3.5722,3.5694,3.5332,3.5156,3.5156,3.5156,3.509,3.485,0.0,0.0,0.0,0.0,0.0,0.0,0.0,0.0,0.0,0.0,0.0,0.0,0.0,0.0,0.0,0.0,0.0,0.0,0.0,0.0,0.0,0.0,0.0,0.0,0.0,3.6387,0.0,0.0,0.0,0.0,0.0,0.0,0.0,0.0,0.0,0.0,0.0,3.4121,3.5065,3.5489,3.5737,3.576,3.5447,3.5366,0.0,0.0,0.0,0.0,0.0,0.0,0.0,0.0,0.0,0.0,0.0,0.0,0.0,0.0,2.8659,2.6507,2.5887,2.5658,2.5543,0.0,0.0,0.0,0.0,0.0,0.0,0.0,0.0,0.0,0.0,0.0,0.0,0.0,0.0,4.1151,0.0,4.0791,0.0,0.0,0.0,0.0,0.0,0.0,0.0,0.0,4.1853,4.227,4.1996,4.2531,4.2502,0.0,4.1176,3.9708,0.0,0.0,0.0,0.0,0.0,0.0,0.0,0.0,3.4947,3.5003,3.6143,3.6788,3.6721,3.6408,3.6184,3.6184,3.6565,3.6592,3.6266,3.5723,3.5512,0.0,0.0,0.0,0.0,0.0,0.0,0.0,0.0,0.0,0.0,0.0,0.0,0.0,0.0,0.0,0.0,0.0,0.0,0.0,0.0,0.0,0.0,0.0,3.7003,0.0,0.0,0.0,0.0,0.0,0.0,0.0,0.0,0.0,3.526,3.5508,3.6127,3.7063,3.7293,3.7302,3.7123,0.0,0.0,0.0,0.0,0.0,0.0,0.0,3.1769,3.1026,3.0182,2.9472,2.906,2.992,3.0513,3.0132,0.0,0.0,2.8674,2.8016,2.7782,2.7638,2.6665,2.5699,2.5126,2.4339,2.3474,0.0,0.0,0.0,0.0,0.0,0.0,0.0,0.0,4.4456,4.4359,0.0,4.4359,0.0,0.0,0.0,0.0,0.0,4.2022,0.0,0.0,4.5618,4.638,4.5708,4.5674,4.5737,4.5578,4.3498,4.2481,4.2323,4.0926,0.0,0.0,0.0,0.0,0.0,0.0,3.6057,3.6114,3.7255,3.7843,3.7843,3.6866,3.6302,3.6369,3.7291,3.7881,3.7814,3.735,3.7105,3.7084,3.589,0.0,0.0,0.0,0.0,0.0,0.0,0.0,0.0,0.0,0.0,0.0,0.0,0.0,0.0,0.0,0.0,0.0,0.0,0.0,0.0,3.781,0.0,0.0,0.0,0.0,0.0,0.0,0.0,0.0,0.0,0.0,3.6652,3.7287,3.8225,3.8678,0.0,0.0,0.0,0.0,3.7689,3.6528,3.6267,3.6101,3.5604,3.5117,3.4786,3.4759,0.0,0.0,3.2506,3.2296,3.2037,3.0922,3.1589,3.2089,3.1496,3.0587,2.9792,2.9378,2.843,2.711,2.5657,2.5381,2.4781,4.9188,0.0,0.0,0.0,0.0,4.7554,4.8003,4.8203,4.8398,4.8109,4.7362,4.7056,0.0,0.0,0.0,0.0,0.0,0.0,4.4337,4.5043,4.5718,4.6177,4.6481,4.6481,4.6481,4.6447,4.5833,4.5513,4.548,4.5039,4.2433,3.7779,0.0,0.0,0.0,0.0,3.7232,3.7742,3.8536,3.8943,3.8943,3.8657,3.8479,3.8509,3.8767,3.8943,3.8943,3.8802,3.877,3.8892,3.8564,0.0,0.0,0.0,0.0,0.0,0.0,0.0,0.0,0.0,0.0,0.0,0.0,0.0,0.0,0.0,0.0,0.0,0.0,0.0,3.9305,4.0333,4.0615,0.0,0.0,0.0,0.0,0.0,0.0,0.0,0.0,0.0,4.1125,3.9819,3.9217,0.0,0.0,3.9306,3.8802,3.8688,3.8581,3.8626,3.8038,0.0,3.7938,3.7538,3.7044,3.6674,3.6511,3.5999,3.483,3.4977,3.4753,3.3227,3.3202,3.3244,3.2717,3.2379,3.2134,3.19,3.1014,3.005,2.9473,2.812,2.6735,5.3302,5.1558,5.0379,5.0068,5.0374,5.0823,5.1185,5.143,5.1432,5.1063,5.0343,5.014,4.9288,4.7962,4.6949,0.0,0.0,0.0,4.6694,4.7421,4.7421,4.7486,4.7661,4.7665,4.7665,4.7665,4.7361,4.7259,4.7225,4.665,4.4371,4.0511,0.0,0.0,3.7927,3.851,3.9033,3.9465,4.0108,4.0413,4.0413,4.0413,4.0413,4.0413,4.0447,4.0413,4.0413,4.0413,4.047,4.0601,4.0351,4.0072,0.0,0.0,0.0,0.0,0.0,0.0,0.0,0.0,0.0,0.0,0.0,3.7963,3.7554,0.0,0.0,0.0,4.0326,4.0978,4.176,4.21,0.0,0.0,0.0,0.0,0.0,0.0,0.0,4.1754,4.3331,4.4463,4.439,4.3082,4.2073,4.1791,4.1076,4.0487,4.0247,0.0,4.0227,4.0305,3.9834,3.959,3.9882,3.9499,3.8989,3.8464,3.8422,3.8144,3.747,3.7434,3.7043,3.5851,3.5046,3.4366,3.3845,3.3386,3.3136,3.3068,3.2525,3.1821,3.1356,3.0056,2.8773,5.607,5.5849,5.3174,5.2303,5.267,5.2723,5.3114,5.3753,5.3771,5.3371,5.2792,5.3406,5.2517,5.0503,4.9007,0.0,4.9298,4.9263,4.9609,5.0291,5.0291,4.9952,4.9369,4.9308,4.9212,4.9145,4.844,4.8041,4.7906,4.6621,4.5518,4.4685,4.3995,4.252,4.0405,4.0828,4.1212,4.1245,4.1885,4.2173,4.2173,4.2173,4.2141,4.2173,4.2173,4.2173,4.2173,4.2173,4.2206,4.227,4.1691,4.1369,4.1335,0.0,0.0,0.0,0.0,0.0,0.0,0.0,0.0,0.0,0.0,0.0,0.0,0.0,0.0,0.0,4.2684,0.0,4.4728,4.3509,0.0,0.0,0.0,4.1942,4.2652,4.4058,4.4873,4.469,0.0,0.0,4.6696,4.6622,4.601,4.4476,4.325,4.2286,4.1686,4.2,4.2171,4.1526,4.1534,4.1534,4.1483,4.1144,4.0703,4.028,4.0145,4.0148,3.992,3.9559,3.8977,3.802,3.686,3.5599,3.4948,3.3995,3.324,3.3283,3.3154,3.2698,3.1689,3.1178,3.0395,5.9295,5.9186,5.8531,5.6948,5.4993,5.557,5.5949,5.6083,5.6043,5.5931,5.5713,5.5275,5.4495,5.3518,5.3158,5.2777,5.2395,5.2431,5.2502,5.2666,5.2666,5.2584,5.239,5.1888,5.1316,5.0705,4.9967,4.9289,4.8748,4.8376,4.7541,4.6279,4.6077,4.4815,4.2526,4.2591,4.2944,4.3424,4.3585,4.3681,4.3648,4.3681,4.3681,4.3681,4.3681,4.3681,4.3681,4.3681,4.3977,4.462,4.452,4.4471,4.4578,4.3734,0.0,0.0,0.0,0.0,0.0,0.0,0.0,0.0,0.0,4.0422,3.9865,0.0,4.2501,0.0,4.4246,4.5462,4.621,4.5959,0.0,0.0,4.6532,4.6544,4.7312,4.8205,4.8539,4.7948,4.8677,4.9278,4.922,4.8597,4.822,4.8239,4.5575,4.3513,4.3291,4.2766,4.2351,4.2269,4.2599,4.2811,4.2781,4.2773,4.2573,4.2519,4.2467,4.2193,4.1337,4.1097,4.0391,3.8547,3.7813,3.7085,3.6046,3.4993,3.4387,3.4288,3.3658,3.3025,3.2698,3.1865,3.1045,6.0419,6.0419,6.0419,5.9381,5.7808,5.7905,5.7728,5.7389,5.7321,5.7336,5.7299,5.6859,5.6237,5.5569,5.5569,5.516,5.4445,5.4445,5.4295,5.4015,5.4015,5.3823,5.3504,5.3092,5.2684,5.2271,5.1523,5.0724,5.0009,4.9678,4.8917,4.78,4.7767,4.7102,4.5792,4.4478,4.4019,4.4383,4.4679,4.5007,4.5368,4.5368,4.5203,4.4876,4.4876,4.4711,4.4383,4.4383,4.4599,4.5057,4.5087,4.5131,4.5167,4.4485,4.3876,0.0,0.0,0.0,0.0,0.0,0.0,0.0,0.0,0.0,0.0,0.0,4.4215,4.4857,4.6278,4.7327,4.7733,4.7767,4.8071,4.8815,4.8883,4.9154,4.9898,5.0338,5.0574,5.0507,5.0845,5.1217,5.1555,5.1161,5.0994,5.1361,4.8605,4.6255,4.5503,4.4637,4.4081,4.4075,4.4037,4.3771,4.3409,4.329,4.329,4.329,4.329,4.309,4.2467,4.2386,4.1744,3.9992,3.9195,3.8436,3.7186,3.6053,3.54,3.5238,3.4526,3.37,3.3197,3.2525,3.1909,6.0713,6.0713,6.0713,6.0639,6.0493,5.9795,5.8988,5.8143,5.8143,5.8107,5.7997,5.7997,5.7629,5.6946,5.6969,5.6565,5.5904,5.5926,5.5597,5.5027,5.5027,5.4694,5.4082,5.3976,5.3913,5.378,5.3035,5.2312,5.1552,5.0879,5.011,4.9338,4.9172,4.904,4.8748,4.621,4.4987,4.519,4.5703,4.6312,4.6921,4.6853,4.6481,4.5906,4.5838,4.5534,4.4919,4.4886,4.4886,4.4886,4.4886,4.4919,4.5021,4.4282,4.3882,0.0,4.3376,0.0,0.0,0.0,0.0,0.0,0.0,0.0,0.0,4.5139,4.5846,4.712,4.8497,4.9277,4.9289,4.9289,4.956,5.027,5.0371,5.0676,5.1388,5.1522,5.1758,5.2367,5.2435,5.2739,5.3315,5.3518,5.3484,5.318,5.1261,4.9283,4.8029,4.6795,4.6003,4.6208,4.5525,4.4706,4.4051,4.3771,4.3732,4.3576,4.3566,4.3448,4.329,4.325,4.2832,4.1599,4.0558,3.9557,3.8225,3.7137,3.6448,3.6408,3.5601,3.4568,3.3641,3.3154,3.2742,6.234,6.234,6.234,6.1961,6.1337,6.1227,6.0309,5.8964,5.8964,5.8621,5.7997,5.7997,5.7923,5.7776,5.7776,5.7666,5.7556,5.7556,5.7474,5.7358,5.7358,5.7274,5.7133,5.6519,5.5929,5.5317,5.4562,5.3815,5.3101,5.2964,5.2186,5.0887,5.0236,4.9301,4.8135,0.0,0.0,0.0,4.7703,4.7534,4.7665,4.7124,4.6718,4.6583,4.6583,0.0,4.638,4.6409,4.638,4.638,4.638,0.0,0.0,0.0,0.0,0.0,0.0,0.0,0.0,0.0,0.0,0.0,4.8921,4.8145,4.6588,4.8037,4.9153,4.945,5.0305,5.0837,5.0807,5.0811,5.1082,5.1792,5.1894,5.2198,5.2976,5.3044,5.3145,5.3247,5.3281,5.3348,5.345,5.3518,5.3518,5.3382,5.1999,5.0891,5.0492,4.8023,4.6311,4.6173,4.6032,4.5854,4.5674,4.5566,4.5196,4.4743,4.451,4.4205,4.3527,4.3299,4.288,4.1624,4.1232,4.0604,3.932,3.8219,3.751,3.751,3.6643,3.5614,3.4594,3.3725,3.3025,6.2805,0.0,6.2805,6.2585,0.0,6.2181,6.152,6.0346,5.9538,5.8744,5.7997,5.7997,5.7997,5.7997,5.7997,5.7997,5.7997,5.7997,5.7997,5.7997,5.7997,5.7997,5.7973,5.7631,5.7231,5.6891,5.6109,5.5365,5.4649,5.426,5.3455,5.239,5.1969,5.1389,5.0673,5.0291,4.9579,4.8477,4.8075,4.8105,4.8409,4.8071,4.7699,4.7394,4.7361,0.0,0.0,0.0,0.0,0.0,0.0,0.0,0.0,4.7859,0.0,4.8362,4.874,4.9091,4.9477,5.0169,5.0967,5.1721,5.2112,5.1537,4.9688,5.0934,5.1941,5.227,5.2723,5.3067,5.3385,5.3428,5.3567,5.3948,5.3952,5.416,5.4475,5.4232,5.4042,5.3977,5.3717,5.3518,5.3518,5.3518,5.3518,5.3416,5.2198,5.1217,5.1017,4.9159,4.7506,4.7002,4.69,4.6696,4.6279,4.6208,4.6103,4.5597,4.5488,4.5079,4.4236,4.3739,4.3077,4.1753,4.1115,4.0546,3.9642,3.8943,3.8583,3.8509,3.7738,3.6905,3.6239,3.4979,3.37,6.2805,6.2805,6.2805,6.2805,6.2805,6.2805,6.2291,6.13,0.0,0.0,0.0,5.807,5.7997,5.7997,5.7997,5.7997,5.7997,5.7997,5.7997,5.7997,5.7997,5.7997,5.7997,5.7997,5.7997,5.7973,5.7376,5.679,5.6163,5.5532,5.4831,5.418,5.3967,5.3744,5.3531,5.3495,5.1976,4.9051,4.8758,4.8997,4.9577,4.9475,4.9099,4.8519,4.8485,4.8495,4.8414,4.7864,4.7842,4.8379,4.8432,4.8502,4.8641,4.9184,4.9582,4.9724,5.0428,5.118,5.176,5.2529,5.3294,5.4018,5.4803,5.4519,5.2945,5.3602,5.4313,5.4752,5.4934,5.5182,5.5653,5.5724,5.5724,5.5724,5.5724,5.566,5.5667,5.5173,5.4787,5.4761,5.4296,5.3881,5.3946,5.3946,5.3881,5.371,5.2677,5.1364,5.0932,4.976,4.8576,4.7966,4.7836,4.7572,4.6936,4.6799,4.6627,4.6488,4.6454,4.6134,4.5248,4.445,4.3505,4.2303,4.1261,4.048,3.9811,3.9481,3.9409,3.9403,3.8694,3.8032,3.7701,3.6464,3.4938,6.2805,6.2805,6.2805,6.2805,6.2805,6.2805,6.1961,6.0529,5.9588,5.9148,5.8988,5.8327,5.7997,5.7997,5.7997,5.7997,5.7997,5.7997,5.7997,5.7997,5.7997,5.7997,5.7997,5.7997,5.7997,5.7997,5.7867,5.7807,5.7674,5.7567,5.7146,5.6428,5.579,5.485,5.3593,5.3495,5.3245,5.2737,5.2067,5.182,5.1926,5.1308,5.092,5.084,5.0814,5.0831,5.0793,5.069,5.0716,5.0793,5.0793,5.1112,5.1697,5.1828,5.2183,5.2848,5.3544,5.4024,5.4132,5.4758,5.5496,5.6277,5.7045,5.6611,5.4562,5.5642,5.6196,5.5659,5.6152,5.6304,5.5808,5.578,5.5808,5.578,5.5724,5.5724,5.5808,5.5667,5.5552,5.5552,5.5466,5.532,5.5262,5.5291,5.5232,5.5109,5.3707,5.2383,5.0679,4.9513,4.9018,4.8829,4.8829,4.8767,4.845,4.8576,4.8161,4.7506,4.7406,4.7104,4.6138,4.5355,4.4551,4.3844,4.2393,4.1322,4.0639,3.9915,3.9625,3.9553,3.9271,3.8914,3.8144,3.7472,3.6604,6.368,6.3615,6.334,6.3238,6.3178,6.2475,6.1741,6.097,5.9735,5.8927,5.851,5.8143,5.7997,5.7997,5.7997,5.7997,5.7997,5.7997,5.7997,5.7997,5.7997,5.7997,5.7997,5.7997,5.7997,5.7997,5.7997,5.7997,5.7997,5.7997,5.7821,5.7462,5.7158,5.6649,5.6005,5.5944,5.5944,5.5883,5.3999,5.2999,5.2999,5.267,5.2493,5.2493,5.2493,5.2676,5.3068,5.2701,5.2676,5.3068,5.3093,5.3247,5.3544,5.3965,5.4279,5.4641,5.5352,5.5809,5.5785,5.6479,5.7079,5.7409,5.7776,5.7604,5.6548,5.7072,5.734,5.7004,5.729,5.734,5.6968,5.6953,5.6953,5.6953,5.6917,5.6942,5.6927,5.6554,5.634,5.6313,5.5948,5.5688,5.5724,5.5724,5.5483,5.5058,5.3714,5.2199,5.0811,5.0342,4.9838,4.9199,4.9018,4.9018,4.9018,4.9018,4.8798,4.8385,4.8353,4.7966,4.7074,4.6123,4.5079,4.4226,4.2861,4.1903,4.1428,4.1129,4.0687,4.0165,4.013,3.9713,3.8921,3.7957,3.6656,6.4389,6.4332,6.3975,6.3654,6.335,6.2168,6.1556,6.126,6.0063,5.9013,5.8238,5.8065,5.7997,5.7997,5.7997,5.7997,5.7997,5.7997,5.7997,5.7997,5.7997,5.7997,5.7997,5.7997,5.7997,5.7997,5.7997,5.7997,5.7997,5.7997,5.7997,5.7997,5.7997,5.7997,5.7997,5.7997,5.7997,5.784,5.5699,5.448,5.4516,5.4516,5.4516,5.4516,5.4542,5.4784,5.5305,5.4835,5.4773,5.5329,5.5378,5.5378,5.5402,5.5839,5.6124,5.6198,5.6712,5.7079,5.7116,5.7629,5.7997,5.7997,5.7997,5.7997,5.7997,5.7997,5.7997,5.7997,5.7937,5.7973,5.7914,5.7914,5.7997,5.7997,5.7997,5.789,5.789,5.7474,5.7141,5.7065,5.658,5.625,5.6187,5.608,5.5571,5.4571,5.3421,5.2422,5.1546,5.1317,5.077,4.9867,4.9346,4.9256,4.9229,4.9077,4.8984,4.9018,4.8987,4.8507,4.7697,4.6573,4.5588,4.4625,4.3331,4.2493,4.23,4.2078,4.169,4.1129,4.0995,4.069,3.9819,3.8639,3.6954,6.4407,6.437,6.4294,6.3879,6.305,6.2146,6.1356,6.0717,6.0491,5.9758,5.8648,5.8209,5.802,5.7997,5.7997,5.7997,5.7997,5.7997,5.7997,5.7997,5.7997,5.7997,5.7997,5.7997,5.7997,5.7997,5.7997,5.7997,5.7997,5.7997,5.7997,5.7997,5.7997,5.7997,5.7997,5.7997,5.7997,5.7997,5.7721,5.7577,5.7577,5.7577,5.7601,5.7601,5.7541,5.7601,5.7514,5.7601,5.7601,5.7684,5.7611,5.7647,5.767,5.7717,5.774,5.774,5.7813,5.7886,5.7886,5.796,5.7997,5.7997,5.7997,5.7997,5.7997,5.7997,5.7997,5.7997,5.7997,5.7997,5.7997,5.7997,5.7997,5.7997,5.7997,5.7997,5.7997,5.795,5.7867,5.7867,5.7629,5.7774,5.7472,5.6864,5.5962,5.4606,5.4073,5.3354,5.2293,5.2018,5.1825,5.1008,5.0362,4.9976,4.9861,4.9372,4.9256,4.9138,4.908,4.8744,4.8075,4.7275,4.6406,4.532,4.4221,4.3265,4.2984,4.2614,4.2109,4.1949,4.182,4.1592,4.0764,3.9896,3.8546,6.3756,6.3726,6.3438,6.2942,6.2276,6.1448,6.092,6.0561,6.0089,5.9567,5.9121,5.8913,5.8508,5.7983,5.7997,5.7997,5.7997,5.7997,5.7997,5.7997,5.7997,5.7997,5.7997,5.7997,5.7997,5.7997,5.7997,5.7997,5.7997,5.7997,5.7997,5.7997,5.7997,5.7997,5.7997,5.7997,5.7997,5.7997,5.7997,5.7997,5.7997,5.7997,5.7997,5.7997,5.7997,5.7997,5.7997,5.7997,5.7997,5.7997,5.7997,5.7997,5.7997,5.7997,5.7997,5.7997,5.7997,5.7997,5.7997,5.7997,5.7997,5.7997,5.7997,5.7997,5.7997,5.7997,5.7997,5.7997,5.7997,5.7997,5.7997,5.7997,5.7997,5.7997,5.7997,5.7997,5.7997,5.7997,5.7997,5.796,5.7556,5.7299,5.7116,5.6161,5.5207,5.4399,5.4069,5.3368,5.2806,5.2747,5.2658,5.2312,5.1728,5.1112,5.0743,5.0445,5.023,5.023,5.023,4.9896,4.8661,4.7889,4.7055,4.5948,4.4798,4.4126,4.4064,4.3827,4.3439,4.3047,4.2237,4.1885,4.1495,4.0925,3.997,6.3308,6.3194,6.2689,6.2247,6.1809,6.1012,6.0671,6.0595,6.002,5.9728,5.9576,5.9614,5.9139,5.8439,5.826,5.8142,5.8042,5.8142,5.8119,5.8042,5.8119,5.8119,5.802,5.7997,5.7997,5.7997,5.7997,5.7997,5.7997,5.7997,5.7997,5.7997,5.7997,5.7997,5.7997,5.7997,5.7997,5.7997,5.7997,5.7997,5.7997,5.7997,5.7997,5.7997,5.7997,5.7997,5.7997,5.7997,5.7997,5.7997,5.7997,5.7997,5.7997,5.7997,5.7997,5.7997,5.7997,5.7997,5.7997,5.7997,5.7997,5.7997,5.7997,5.7997,5.7997,5.7997,5.7997,5.7997,5.7997,5.7997,5.7997,5.7997,5.7997,5.7997,5.7997,5.7997,5.7997,5.7997,5.7886,5.7666,5.7189,5.6565,5.6088,5.517,5.4399,5.4032,5.3592,5.3203,5.3203,5.3146,5.3146,5.3167,5.2725,5.2136,5.1519,5.1086,5.1138,5.1015,5.084,5.0163,4.909,4.8268,4.7457,4.6212,4.5363,4.4892,4.4769,4.4686,4.4497,4.3798,4.3169,4.2613,4.2395,4.1911,4.1464,6.3308,6.3154,6.2423,6.2079,6.2002,6.1132,6.0798,6.0788,6.071,6.0482,6.0103,6.0089,5.9808,5.9284,5.8894,5.8439,5.8119,5.8503,5.8461,5.8164,5.8503,5.8439,5.7983,5.7997,5.8042,5.8088,5.8162,5.8153,5.8093,5.807,5.7997,5.807,5.8143,5.807,5.813,5.8189,5.8056,5.8212,5.8258,5.8139,5.8102,5.8102,5.8162,5.8221,5.7997,5.802,5.7983,5.802,5.7983,5.802,5.802,5.7997,5.7997,5.802,5.8006,5.8029,5.8029,5.8006,5.8051,5.8074,5.8074,5.8029,5.8119,5.8029,5.8142,5.8142,5.8142,5.8042,5.8119,5.8097,5.8097,5.8029,5.7997,5.7997,5.7997,5.7997,5.8042,5.7978,5.7652,5.7101,5.6734,5.6014,5.4766,5.4473,5.3995,5.3555,5.324,5.3203,5.3203,5.3203,5.3203,5.3203,5.3082,5.2857,5.2159,5.1825,5.1368,5.1261,5.1019,4.9923,4.8997,4.8134,4.7318,4.6548,4.5889,4.5477,4.5372,4.5142,4.4824,4.4491,4.4435,4.4026,4.338,4.3259,4.2876,6.1704,6.1704,6.1396,6.1281,6.1254,6.0935,6.0781,6.0781,6.0781,6.0722,6.0546,6.0533,6.0297,5.9839,5.9658,5.9337,5.8951,5.9103,5.9028,5.8932,5.9065,5.9028,5.8932,5.8894,5.8696,5.8519,5.8958,5.9316,5.9525,5.9538,5.9538,5.9538,5.9538,5.9538,5.9572,5.9878,6.0039,6.0082,6.0302,6.0486,6.0409,6.0524,6.0524,6.0409,5.8865,5.8142,5.8439,5.8186,5.8142,5.8439,5.8186,5.7997,5.8006,5.8282,5.8591,5.8855,5.8894,5.8894,5.8894,5.8894,5.8894,5.8894,5.8894,5.8855,5.8894,5.8894,5.8894,5.8894,5.8894,5.8894,5.8756,5.8354,5.7997,5.7997,5.802,5.8164,5.8243,5.7974,5.7492,5.7101,5.6166,5.4803,5.4096,5.3665,5.3518,5.3277,5.3225,5.3209,5.3188,5.3225,5.323,5.3225,5.3203,5.3103,5.2915,5.268,5.2427,5.2245,5.1787,5.0728,4.9762,4.8716,4.7859,4.692,4.6257,4.6063,4.5915,4.5815,4.5442,4.5222,4.5196,4.4927,4.4265,4.4226,4.3954,6.0781,6.0781,6.0781,6.0781,6.0781,6.0781,6.0781,6.0781,6.0781,6.0781,6.0781,6.0781,6.0622,6.0351,6.0324,6.0352,6.0197,5.988,5.9526,5.9462,5.9845,5.9959,5.9877,6.0086,6.0039,5.9851,6.0242,6.0675,6.0862,6.087,6.087,6.0855,6.087,6.087,6.0958,6.1259,6.1442,6.1521,6.1751,6.1878,6.1896,6.1896,6.1896,6.1655,6.016,5.9243,5.9344,5.8781,5.857,5.8835,5.8611,5.8461,5.8466,5.8773,5.9084,5.9354,5.9389,5.9389,5.9389,5.9389,5.9389,5.9389,5.9389,5.9389,5.9389,5.9389,5.9389,5.9389,5.9389,5.9389,5.9284,5.8815,5.8461,5.8461,5.8461,5.857,5.8837,5.8165,5.7473,5.6743,5.549,5.4311,5.377,5.3678,5.3661,5.3585,5.3622,5.3622,5.3641,5.3622,5.3622,5.3602,5.3504,5.3444,5.3302,5.3136,5.2615,5.2395,5.1804,5.0967,5.0117,4.9132,4.8308,4.7325,4.6806,4.6623,4.6507,4.6436,4.6209,4.59,4.58,4.5613,4.5338,4.5241,4.4864,6.0781,6.0781,6.0781,6.0781,6.0781,6.0781,6.0781,6.0781,6.0781,6.0781,6.0781,6.0819,6.0923,6.0834,6.0991,6.1322,6.1697,6.0856,6.0167,5.9933,6.0883,6.1194,6.0884,6.1506,6.1795,6.1764,6.186,6.1879,6.2014,6.2033,6.1996,6.1975,6.2014,6.2034,6.1955,6.2088,6.2084,6.214,6.2287,6.2191,6.1951,6.2228,6.2301,6.2191,6.1969,6.1498,6.0818,5.99,5.9432,5.9485,5.9375,5.9372,5.9337,5.9389,5.9424,5.9492,5.9458,5.9441,5.9458,5.9509,5.9559,5.9559,5.9475,5.9543,5.9576,5.9543,5.9543,5.9559,5.9543,5.9492,5.9509,5.9441,5.9354,5.9372,5.923,5.9266,5.9221,5.8617,5.7486,5.6111,5.5065,5.4565,5.449,5.4338,5.4288,5.4343,5.4322,5.4305,5.4309,5.4292,5.4404,5.4338,5.4066,5.3851,5.3682,5.345,5.279,5.2149,5.1406,5.0627,4.9874,4.8969,4.849,4.7715,4.7491,4.7284,4.7088,4.6999,4.6761,4.6542,4.6436,4.6294,4.6039,4.584,4.579,6.0781,6.0781,6.0781,6.0781,6.0781,6.0781,6.0781,6.0781,6.0781,6.0781,6.0896,6.1435,6.1716,6.182,6.2243,6.2666,6.2885,6.2478,6.222,6.2178,6.2502,6.2604,6.2547,6.2762,6.2977,6.3101,6.2889,6.3048,6.352,6.3633,6.3634,6.3596,6.3633,6.3596,6.3594,6.3917,6.4122,6.4155,6.4458,6.4666,6.4666,6.4614,6.4652,6.459,6.4078,6.3618,6.3298,6.1424,6.0501,6.076,5.9917,5.9526,5.9823,5.9885,6.0006,6.0324,6.0351,6.0351,6.0351,6.0338,6.0324,6.0351,6.0338,6.0351,6.039,6.0338,6.0324,6.0338,6.0351,6.0351,6.0351,6.0351,6.0089,5.9496,5.9389,5.9576,5.9611,5.8669,5.7376,5.6306,5.5201,5.4591,5.45,5.4516,5.4563,5.4547,5.4547,5.4547,5.4554,5.4579,5.4484,5.4452,5.4305,5.4288,5.417,5.3881,5.3235,5.2401,5.1472,5.0582,4.975,4.9045,4.8585,4.8248,4.8055,4.7915,4.7695,4.7512,4.7306,4.7176,4.7088,4.6864,4.6507,4.6413,4.646,6.0781,6.0781,6.0781,6.0781,6.0781,6.0781,6.0781,6.0858,6.1127,6.1293,6.1473,6.2166,6.2551,6.2666,6.3089,6.3462,6.3743,6.382,6.3974,6.4166,6.3858,6.3782,6.3858,6.4166,6.4334,6.4484,6.4283,6.4421,6.49,6.4938,6.4954,6.4954,6.4938,6.4971,6.4954,6.523,6.5403,6.5446,6.5703,6.5897,6.5897,6.5897,6.5897,6.5782,6.5359,6.5128,6.4936,6.3159,6.2147,6.1927,6.1004,6.0599,6.0797,6.0556,6.0495,6.0722,6.0781,6.0769,6.0781,6.0746,6.0781,6.0781,6.0781,6.0781,6.0781,6.0781,6.0781,6.0781,6.0769,6.0781,6.0769,6.0781,6.0495,5.9991,5.9946,5.9921,5.9827,5.8974,5.7838,5.6843,5.5935,5.5379,5.5047,5.4933,5.4933,5.4933,5.4933,5.4933,5.4971,5.496,5.4919,5.4862,5.479,5.4775,5.4716,5.4292,5.3714,5.2714,5.1656,5.0712,4.9806,4.9137,4.8604,4.8401,4.819,4.817,4.7995,4.8055,4.7939,4.7838,4.7736,4.7575,4.7349,4.7306,4.7263,6.0781,6.0781,6.0781,6.0781,6.0781,6.0781,6.0858,6.105,6.1704,6.205,6.232,6.3012,6.3397,6.3397,6.3628,6.4089,6.4551,6.4666,6.5013,6.532,6.5051,6.4666,6.4743,6.5282,6.5564,6.5705,6.5679,6.5769,6.5703,6.5742,6.5897,6.5781,6.5755,6.5872,6.5768,6.5885,6.5821,6.5821,6.5885,6.5897,6.5897,6.5897,6.5897,6.5897,6.582,6.5782,6.5615,6.4872,6.4065,6.3346,6.24,6.2054,6.2,6.1358,6.0923,6.0973,6.0858,6.0781,6.0781,6.0781,6.0781,6.0781,6.0781,6.0781,6.0781,6.0781,6.0781,6.0781,6.0781,6.0781,6.0781,6.0781,6.0746,6.0769,6.0634,6.0352,5.9719,5.9488,5.8685,5.7593,5.7077,5.6692,5.5846,5.5703,5.5599,5.5599,5.5577,5.5554,5.5554,5.547,5.5621,5.5481,5.5237,5.5186,5.5134,5.5004,5.4324,5.309,5.2044,5.1126,4.9978,4.9239,4.8898,4.864,4.8382,4.8363,4.8401,4.8458,4.8458,4.8309,4.8271,4.8344,4.8209,4.7959,4.7838,6.0781,6.0781,6.0781,6.0781,6.0781,6.0781,6.1166,6.1755,6.1985,6.2512,6.3051,6.3897,6.4243,6.432,6.4897,6.5359,6.5474,6.5513,6.5628,6.582,6.5705,6.5551,6.5551,6.5743,6.5897,6.5897,6.5897,6.5897,6.5897,6.5897,6.5897,6.5897,6.5897,6.5897,6.5897,6.5897,6.5897,6.5897,6.5897,6.5897,6.5897,6.5897,6.5897,6.5897,6.5897,6.5897,6.5897,6.5705,6.482,6.3423,6.3128,6.2974,6.2935,6.2204,6.1743,6.1666,6.1204,6.0819,6.0819,6.0819,6.0819,6.0781,6.0781,6.0781,6.0781,6.0781,6.0781,6.0781,6.0781,6.0781,6.0781,6.0781,6.0781,6.0781,6.0781,6.0704,6.0396,5.9858,5.9281,5.8819,5.7791,5.7099,5.6599,5.6126,5.5742,5.5703,5.5703,5.5703,5.5703,5.5703,5.5703,5.5703,5.5566,5.5554,5.5543,5.5458,5.486,5.3491,5.2509,5.1701,5.044,4.9246,4.9171,4.9123,4.8711,4.8587,4.8711,4.8813,4.8744,4.8709,4.8586,4.8532,4.8345,4.8173,4.8173,6.0781,6.0781,6.0781,6.0781,6.0858,6.1177,6.1639,6.2216,6.2858,6.3397,6.3974,6.4782,6.5166,6.5205,6.5667,6.5859,6.5897,6.5897,6.5897,6.5897,6.5859,6.5859,6.5859,6.5897,6.5897,6.5897,6.5897,6.5897,6.5897,6.5897,6.5897,6.5897,6.5897,6.5897,6.5897,6.5897,6.5897,6.5897,6.5897,6.5897,6.5897,6.5897,6.5897,6.5897,6.5897,6.5897,6.5897,6.5897,6.5359,6.4551,6.4089,6.3846,6.3782,6.3051,6.2627,6.2589,6.2127,6.1743,6.1396,6.132,6.1166,6.0896,6.0781,6.0781,6.0781,6.0781,6.0781,6.0781,6.0781,6.0781,6.0781,6.0781,6.0781,6.0781,6.0781,6.0781,6.0781,6.0358,5.9896,5.9396,5.8704,5.7703,5.7176,5.656,5.6126,5.5818,5.5703,5.5703,5.5703,5.5703,5.5703,5.5703,5.5703,5.5682,5.566,5.5588,5.4885,5.3573,5.2372,5.1683,5.0786,4.9489,4.9475,4.9431,4.9027,4.8864,4.9075,4.9218,4.9139,4.9043,4.8864,4.8727,4.864,4.844,4.8458,6.0781,6.0781,6.0781,6.0858,6.105,6.1755,6.2216,6.2678,6.3858,6.4551,6.4859,6.5551,6.5743,6.5897,6.5859,6.5897,6.5897,6.5897,6.5897,6.5897,6.5897,6.5897,6.5897,6.5897,6.5897,6.5897,6.5897,6.5897,6.5897,6.5897,6.5897,6.5897,6.5897,6.5897,6.5897,6.5897,6.5897,6.5897,6.5897,6.5897,6.5897,6.5897,6.5897,6.5897,6.5897,6.5897,6.5897,6.5897,6.5782,6.5859,6.5128,6.4782,6.4628,6.3935,6.3512,6.3358,6.3205,6.282,6.2358,6.2204,6.187,6.1243,6.1012,6.0858,6.0858,6.0781,6.0781,6.0781,6.0781,6.0781,6.0781,6.0781,6.0781,6.0781,6.0781,6.0781,6.0781,6.0781,6.0473,5.9742,5.9588,5.8704,5.7819,5.7099,5.6819,5.628,5.6088,5.5972,5.5857,5.5703,5.5703,5.5703,5.5703,5.5703,5.5703,5.5692,5.4682,5.3538,5.2192,5.1293,5.0806,4.9987,4.9885,4.9687,4.9416,4.9431,4.9659,4.9673,4.9518,4.9445,4.9311,4.9187,4.9043,4.8813,4.8709,6.0781,6.0781,6.0781,6.1204,6.1793,6.2062,6.2858,6.4051,6.4436,6.5013,6.5551,6.582,6.5897,6.5897,6.5897,6.5897,6.5897,6.5897,6.5897,6.5897,6.5897,6.5897,6.5897,6.5897,6.5897,6.5897,6.5897,6.5897,6.5897,6.5897,6.5897,6.5897,6.5897,6.5897,6.5897,6.5897,6.5897,6.5897,6.5897,6.5897,6.5897,6.5897,6.5897,6.5897,6.5897,6.5897,6.5897,6.5897,6.5897,6.582,6.5705,6.5513,6.5359,6.4782,6.4359,6.4205,6.3705,6.3281,6.3089,6.3012,6.2704,6.1935,6.1793,6.1524,6.0819,6.0858,6.0819,6.0819,6.0781,6.0781,6.0781,6.0781,6.0781,6.0781,6.0781,6.0781,6.0781,6.0781,6.0666,6.0435,5.9935,5.9358,5.8934,5.8242,5.7703,5.6934,5.656,5.6368,5.6099,5.5818,5.5703,5.5703,5.5703,5.5665,5.5626,5.5511,5.4703,5.3664,5.2356,5.1346,5.0867,5.0358,5.0195,5.0024,4.9859,4.9962,5.0147,4.9911,4.9673,4.9714,4.9741,4.9589,4.9416,4.9187,4.8961,6.0781,6.0781,6.0781,6.1293,6.2101,6.2512,6.3397,6.4512,6.5051,6.5436,6.582,6.5897,6.5897,6.5897,6.5897,6.5897,6.5897,6.5897,6.5897,6.5897,6.5897,6.5897,6.5897,6.5897,6.5897,6.5897,6.5897,6.5897,6.5897,6.5897,6.5897,6.5897,6.5897,6.5897,6.5897,6.5897,6.5897,6.5897,6.5897,6.5897,6.5897,6.5897,6.5897,6.5897,6.5897,6.5897,6.5897,6.5897,6.5897,6.5897,6.5897,6.5897,6.5859,6.5474,6.5243,6.5089,6.4859,6.4282,6.4051,6.3858,6.3551,6.2743,6.2666,6.2435,6.1973,6.1666,6.1396,6.132,6.1089,6.0781,6.0781,6.0781,6.0781,6.0781,6.0781,6.0781,6.0781,6.0781,6.0781,6.0742,6.0396,5.9935,5.9473,5.9088,5.855,5.778,5.6983,5.6753,5.6483,5.6165,5.578,5.5703,5.5703,5.5665,5.5588,5.528,5.478,5.3818,5.2741,5.1972,5.1411,5.0937,5.0472,5.0325,5.0183,5.0325,5.0402,5.0147,5.0012,5.0183,5.0195,4.9999,4.9832,4.9659,4.946,6.0781,6.0819,6.0935,6.1512,6.2358,6.3166,6.4012,6.4859,6.5551,6.582,6.5897,6.5897,6.5897,6.5897,6.5897,6.5897,6.5897,6.5897,6.5897,6.5897,6.5897,6.5897,6.5897,6.5897,6.5897,6.5897,6.5897,6.5897,6.5897,6.5897,6.5897,6.5897,6.5897,6.5897,6.5897,6.5897,6.5897,6.5897,6.5897,6.5897,6.5897,6.5897,6.5897,6.5897,6.5897,6.5897,6.5897,6.5897,6.5897,6.5897,6.5897,6.5897,6.5897,6.5897,6.5897,6.5859,6.5705,6.5359,6.4936,6.4743,6.4436,6.3589,6.3512,6.3397,6.3128,6.2627,6.2358,6.2012,6.1666,6.1012,6.0819,6.0781,6.0781,6.0781,6.0781,6.0781,6.0781,6.0781,6.0781,6.0781,6.0666,6.0358,6.005,5.9704,5.9165,5.8588,5.7819,5.7176,5.6907,5.6511,5.6126,5.5742,5.5703,5.5703,5.5626,5.5549,5.4934,5.4241,5.3203,5.2587,5.2049,5.147,5.1017,5.0701,5.0614,5.0644,5.0644,5.0493,5.0493,5.0702,5.0604,5.0358,5.0218,5.0159,4.9911,6.0781,6.0858,6.1601,6.2358,6.3166,6.4012,6.482,6.5628,6.582,6.5897,6.5897,6.5897,6.5897,6.5897,6.5897,6.5897,6.5897,6.5897,6.5897,6.5897,6.5897,6.5897,6.5897,6.5897,6.5897,6.5897,6.5897,6.5897,6.5897,6.5897,6.5897,6.5897,6.5897,6.5897,6.5897,6.5897,6.5897,6.5897,6.5897,6.5897,6.5897,6.5897,6.5897,6.5897,6.5897,6.5897,6.5897,6.5897,6.5897,6.5897,6.5897,6.5897,6.5897,6.5897,6.5897,6.5897,6.5897,6.5743,6.5551,6.559,6.5205,6.4628,6.4397,6.4012,6.3589,6.3205,6.3113,6.2868,6.2329,6.1612,6.0858,6.0999,6.0854,6.0843,6.085,6.0839,6.0816,6.0816,6.0804,6.0793,6.0793,6.0742,6.0473,6.0242,5.9896,5.9435,5.8858,5.805,5.7511,5.7022,5.6522,5.6099,5.5703,5.5703,5.5665,5.5626,5.5318,5.478,5.3972,5.328,5.2702,5.2038,5.1587,5.1164,5.0818,5.0664,5.0702,5.0702,5.0702,5.0702,5.0664,5.0654,5.0514,5.0347,5.0206,6.0781,6.0896,6.1743,6.2551,6.3385,6.4243,6.5089,6.582,6.5897,6.5897,6.5897,6.5897,6.5897,6.5897,6.5897,6.5897,6.5897,6.5897,6.5897,6.5897,6.5897,6.5897,6.5897,6.5897,6.5897,6.5897,6.5897,6.5897,6.5897,6.5897,6.5897,6.5897,6.5897,6.5897,6.5897,6.5897,6.5897,6.5897,6.5897,6.5897,6.5897,6.5897,6.5897,6.5897,6.5897,6.5897,6.5897,6.5897,6.5897,6.5897,6.5897,6.5897,6.5897,6.591,6.591,6.591,6.591,6.5897,6.5897,6.5897,6.5667,6.5397,6.5256,6.5128,6.4628,6.4294,6.3877,6.3488,6.3261,6.2742,6.2456,6.1974,6.1759,6.1634,6.1384,6.1089,6.0973,6.0905,6.0882,6.0834,6.08,6.0789,6.0781,6.0627,6.0512,6.0204,5.9804,5.9056,5.8242,5.7685,5.7186,5.6501,5.6058,5.575,5.576,5.576,5.5731,5.5249,5.4756,5.4063,5.3397,5.2752,5.2107,5.1538,5.1241,5.0856,5.0702,5.0702,5.0702,5.0702,5.0664,5.0654,5.0634,5.0573,5.0391,6.0781,6.0896,6.1897,6.2704,6.3397,6.4436,6.5243,6.5782,6.5897,6.5897,6.5897,6.5897,6.5897,6.5897,6.5897,6.5897,6.5897,6.5897,6.5897,6.5897,6.5897,6.5897,6.5897,6.5897,6.5897,6.5897,6.5897,6.5897,6.5897,6.5897,6.5897,6.5897,6.5897,6.5897,6.5897,6.5897,6.5897,6.5897,6.5897,6.5897,6.5897,6.5897,6.5897,6.5897,6.5897,6.5897,6.5897,6.5897,6.5897,6.5897,6.5897,6.5897,6.591,6.5933,6.5958,6.5946,6.5947,6.591,6.5897,6.5897,6.5858,6.5812,6.5893,6.5916,6.5854,6.5245,6.4714,6.4093,6.3912,6.3767,6.3489,6.3151,6.2879,6.2633,6.2076,6.1512,6.1399,6.1289,6.1044,6.0993,6.0902,6.0871,6.0902,6.0974,6.0875,6.0836,6.0419,5.9985,5.919,5.8574,5.7964,5.7107,5.6471,5.6007,5.587,5.5904,5.5883,5.5744,5.5371,5.486,5.4146,5.3484,5.2801,5.2127,5.1548,5.1202,5.0933,5.0712,5.0702,5.0702,5.0702,5.0702,5.0644,5.0644,5.0594,6.0781,6.0935,6.2512,6.3243,6.3538,6.5013,6.5743,6.5859,6.5897,6.5897,6.5897,6.5897,6.5897,6.5897,6.5897,6.5897,6.5897,6.5897,6.5897,6.5897,6.5897,6.5897,6.5897,6.5897,6.5897,6.5897,6.5897,6.5897,6.5897,6.5897,6.5897,6.5897,6.5897,6.5897,6.5897,6.5897,6.5897,6.5897,6.5897,6.5897,6.5897,6.5897,6.5897,6.5897,6.5897,6.5897,6.5897,6.5897,6.591,6.5897,6.5923,6.591,6.5909,6.6024,6.6079,6.6028,6.5974,6.591,6.5933,6.5943,6.5986,6.6069,6.6061,6.6183,6.6165,6.6144,6.5661,6.4986,6.4928,6.4726,6.4304,6.382,6.3687,6.3437,6.3034,6.258,6.2361,6.216,6.1842,6.1465,6.1508,6.122,6.1095,6.1158,6.1234,6.1195,6.1065,6.0585,6.0099,5.9435,5.8644,5.7761,5.6963,5.6458,5.618,5.6163,5.6029,5.6064,5.5856,5.5525,5.4955,5.4249,5.3469,5.2815,5.2212,5.1577,5.1245,5.1005,5.0798,5.0702,5.0702,5.0702,5.0702,5.0702,5.0712,6.0781,6.0935,6.2589,6.3308,6.3512,6.5166,6.5897,6.5897,6.5897,6.5897,6.5897,6.5897,6.5897,6.5897,6.5897,6.5897,6.5897,6.5897,6.5897,6.5897,6.5897,6.5897,6.5897,6.5897,6.5897,6.5897,6.5897,6.5897,6.5897,6.5897,6.5897,6.5897,6.5897,6.5897,6.5897,6.5897,6.5897,6.5897,6.5897,6.5897,6.5897,6.5897,6.5897,6.5897,6.591,6.591,6.5884,6.5897,6.5931,6.5986,6.6014,6.6059,6.6137,6.6251,6.6268,6.626,6.6226,6.6174,6.6212,6.6194,6.6209,6.6228,6.6268,6.6305,6.6374,6.6406,6.6368,6.6,6.5966,6.5757,6.5412,6.5075,6.488,6.457,6.4023,6.3698,6.3409,6.3202,6.2912,6.2465,6.2055,6.1835,6.1567,6.1462,6.1456,6.1289,6.1273,6.1067,6.0616,6.0125,5.9269,5.8348,5.7642,5.6975,5.673,5.6574,5.6224,5.6164,5.6164,5.5874,5.5656,5.5022,5.4301,5.3758,5.3352,5.2633,5.1802,5.1197,5.0903,5.0779,5.0702,5.0693,5.0702,5.0712,5.0712,6.0781,6.0935,6.2589,6.3308,6.3474,6.5166,6.5897,6.5897,6.5897,6.5897,6.5897,6.5897,6.5897,6.5897,6.5897,6.5897,6.5897,6.5897,6.5897,6.5897,6.5897,6.5897,6.5897,6.5897,6.5897,6.5897,6.5897,6.5897,6.5897,6.5897,6.5897,6.5897,6.5897,6.5897,6.5897,6.5897,6.5897,6.5897,6.5897,6.5897,6.5897,6.5897,6.5897,6.5884,6.5933,6.5943,6.5955,6.603,6.6099,6.6156,6.6161,6.6228,6.6334,6.6406,6.6441,6.6457,6.6463,6.6537,6.6502,6.6435,6.6423,6.6446,6.6493,6.656,6.6516,6.6523,6.656,6.6563,6.6566,6.6665,6.6719,6.6172,6.5976,6.5586,6.5117,6.4765,6.4414,6.4101,6.3789,6.3435,6.3001,6.2655,6.2362,6.1978,6.1729,6.1482,6.1392,6.1406,6.1055,6.0625,6.0039,5.918,5.8515,5.7812,5.7344,5.707,5.668,5.6367,5.6367,5.6217,5.5978,5.5731,5.5156,5.4743,5.4324,5.3608,5.275,5.1834,5.0978,5.0902,5.0819,5.0747,5.074,5.0712,5.0673,6.0781,6.0935,6.2589,6.3308,6.3435,6.5166,6.5897,6.5897,6.5897,6.5897,6.5897,6.5897,6.5897,6.5897,6.5897,6.5897,6.5897,6.5897,6.5897,6.5897,6.5897,6.5897,6.5897,6.5897,6.5897,6.5897,6.5897,6.5897,6.5897,6.5897,6.5897,6.5897,6.5897,6.5897,6.5897,6.5897,6.5897,6.5897,6.5897,6.5897,6.591,6.5923,6.5909,6.5931,6.6024,6.609,6.61,6.6243,6.6358,6.6361,6.6368,6.6406,6.6473,6.6537,6.6606,6.6616,6.6729,6.6758,6.6758,6.6592,6.6498,6.6603,6.6719,6.6797,6.6758,6.6836,6.6875,6.6836,6.6797,6.6836,6.6875,6.6797,6.6601,6.6367,6.5937,6.5664,6.5273,6.4883,6.457,6.4297,6.3984,6.3633,6.3242,6.2851,6.2031,6.1719,6.1562,6.1562,6.1406,6.1015,6.0703,6.0117,5.9531,5.8828,5.8086,5.7734,5.75,5.707,5.6836,5.6601,5.6352,5.6055,5.5781,5.5489,5.5014,5.4347,5.376,5.3013,5.2253,5.1354,5.0966,5.089,5.0825,5.0791,5.0758,6.0781,6.0973,6.2589,6.3308,6.3435,6.5166,6.5897,6.5897,6.5897,6.5897,6.5897,6.5897,6.5897,6.5897,6.5897,6.5897,6.5897,6.5897,6.5897,6.5897,6.5897,6.5897,6.5897,6.5897,6.5897,6.5897,6.5897,6.5897,6.5897,6.5897,6.5897,6.5897,6.5897,6.5897,6.5897,6.5897,6.591,6.5923,6.591,6.591,6.5909,6.5997,6.6035,6.6018,6.6209,6.6268,6.629,6.6347,6.6435,6.6498,6.6516,6.6588,6.668,6.6719,6.6758,6.6758,6.6875,6.6875,6.6914,6.6758,6.6735,6.6742,6.6836,6.6914,6.6914,6.6914,6.6914,6.6875,6.6914,6.6914,6.6875,6.6875,6.6836,6.6797,6.664,6.6367,6.6133,6.5664,6.543,6.5156,6.4961,6.4687,6.4258,6.3789,6.2851,6.1992,6.1836,6.168,6.1523,6.1445,6.1133,6.0898,6.0312,5.9883,5.9219,5.8789,5.8398,5.7851,5.7383,5.707,5.6758,5.6523,5.625,5.5976,5.5781,5.5312,5.4805,5.4297,5.3467,5.2338,5.1525,5.0985,5.0911,5.0875,5.0811,6.0781,6.1012,6.2589,6.3308,6.3551,6.5166,6.5897,6.5897,6.5897,6.5897,6.5897,6.5897,6.5897,6.5897,6.5897,6.5897,6.5897,6.5897,6.5897,6.5897,6.5897,6.5897,6.5897,6.5897,6.5897,6.5897,6.5897,6.5897,6.5897,6.5897,6.5897,6.5897,6.5897,6.5897,6.5897,6.591,6.5947,6.5943,6.5967,6.6008,6.6046,6.6119,6.6179,6.6212,6.6374,6.6446,6.6478,6.6516,6.6606,6.6675,6.6692,6.6745,6.6836,6.6914,6.6914,6.6914,6.6914,6.6914,6.6914,6.6914,6.6914,6.6875,6.6875,6.6914,6.6914,6.6914,6.6914,6.6914,6.6914,6.6914,6.6914,6.6914,6.6914,6.6836,6.6836,6.668,6.668,6.6406,6.625,6.6055,6.5859,6.5625,6.4922,6.4375,6.3515,6.2539,6.1914,6.1758,6.168,6.1601,6.1601,6.1367,6.1094,6.0703,6.0351,5.9805,5.9258,5.8476,5.8008,5.7539,5.7265,5.6953,5.668,5.6367,5.6211,5.6211,5.5781,5.5117,5.418,5.313,5.2376,5.1614,5.1008,5.0985,5.0945,6.0781,6.1012,6.2627,6.3308,6.3512,6.5166,6.5897,6.5897,6.5897,6.5897,6.5897,6.5897,6.5897,6.5897,6.5897,6.5897,6.5897,6.5897,6.5897,6.5897,6.5897,6.5897,6.5897,6.5897,6.5897,6.5897,6.5897,6.5897,6.5897,6.5897,6.5897,6.5897,6.5909,6.5933,6.5884,6.591,6.599,6.6061,6.61,6.6217,6.6283,6.6347,6.6381,6.6418,6.6521,6.6613,6.6625,6.6731,6.6797,6.6836,6.6836,6.6875,6.6875,6.6914,6.6914,6.6914,6.6914,6.6914,6.6914,6.6914,6.6914,6.6914,6.6914,6.6914,6.6914,6.6914,6.6914,6.6914,6.6914,6.6914,6.6914,6.6914,6.6914,6.6914,6.6914,6.6914,6.6914,6.6875,6.664,6.6523,6.664,6.6523,6.5664,6.4883,6.4101,6.3203,6.2265,6.1875,6.1797,6.1719,6.1719,6.164,6.1445,6.125,6.0859,6.0625,6.0078,5.9297,5.875,5.8398,5.7812,5.7344,5.707,5.6797,5.6562,5.6406,5.6172,5.5859,5.4922,5.4062,5.3125,5.2356,5.1658,5.1157,5.1247,6.0781,6.0935,6.2627,6.3308,6.3551,6.5166,6.5897,6.5897,6.5897,6.5897,6.5897,6.5897,6.5897,6.5897,6.5897,6.5897,6.5897,6.5897,6.5897,6.5897,6.5897,6.5897,6.5897,6.5897,6.5897,6.5897,6.5897,6.5897,6.5897,6.5897,6.591,6.5884,6.5981,6.6046,6.6018,6.6028,6.6109,6.626,6.6298,6.6334,6.6399,6.6561,6.6646,6.665,6.6844,6.6914,6.6953,6.7109,6.7109,6.7109,6.7148,6.7109,6.707,6.7031,6.6953,6.6953,6.6914,6.6914,6.6914,6.6914,6.6914,6.6914,6.6914,6.6914,6.6914,6.6914,6.6914,6.6914,6.6914,6.6914,6.6914,6.6914,6.6914,6.6914,6.6914,6.6914,6.6914,6.6914,6.6797,6.6797,6.6836,6.6836,6.6289,6.5703,6.4922,6.4258,6.3437,6.2344,6.1992,6.1797,6.1719,6.1719,6.1601,6.1523,6.1328,6.1094,6.0781,6.0156,5.9726,5.9492,5.8828,5.8008,5.7695,5.7539,5.707,5.6601,5.6406,5.6133,5.5742,5.5,5.418,5.3242,5.2403,5.1973,5.1791,6.1004,6.1488,6.2827,6.356,6.4,6.5293,6.5897,6.5897,6.5897,6.5897,6.5897,6.5897,6.5897,6.5897,6.5897,6.5897,6.5897,6.5897,6.5897,6.5897,6.5897,6.5897,6.5897,6.5897,6.5897,6.5897,6.5897,6.5897,6.5923,6.5943,6.6041,6.6099,6.6194,6.6477,6.654,6.6562,6.6492,6.678,6.7057,6.7287,6.7489,6.7646,6.7668,6.7715,6.7812,6.7851,6.7812,6.7773,6.7734,6.7734,6.7734,6.7734,6.7734,6.7539,6.7422,6.7344,6.7031,6.6953,6.6914,6.6914,6.6914,6.6914,6.6914,6.6914,6.6914,6.6914,6.6914,6.6914,6.6914,6.6914,6.6914,6.6914,6.6914,6.6914,6.6914,6.6914,6.6914,6.6914,6.6914,6.6914,6.6914,6.6914,6.6875,6.6445,6.582,6.5234,6.4609,6.3476,6.2422,6.2226,6.1992,6.1836,6.1797,6.168,6.164,6.1562,6.125,6.0898,6.0586,6.0273,5.9726,5.8906,5.8633,5.8242,5.7734,5.7226,5.6758,5.6406,5.6172,5.5898,5.543,5.4414,5.3281,5.2891,5.2695,6.1355,6.2361,6.3214,6.4056,6.4841,6.5577,6.5897,6.591,6.5897,6.5897,6.5897,6.5897,6.5897,6.5897,6.5897,6.5897,6.5897,6.5897,6.5897,6.5897,6.5897,6.5897,6.5897,6.5897,6.5897,6.591,6.5909,6.5955,6.5933,6.6077,6.6226,6.6496,6.6653,6.7135,6.7365,6.7408,6.7374,6.7777,6.7991,6.8325,6.8658,6.9023,6.8945,6.8945,6.8984,6.9023,6.9023,6.9023,6.9062,6.914,6.9219,6.9297,6.914,6.8672,6.8398,6.8008,6.7461,6.7344,6.7109,6.7148,6.6953,6.6953,6.6914,6.6914,6.6914,6.6914,6.6914,6.6914,6.6914,6.6914,6.6914,6.6914,6.6914,6.6914,6.6914,6.6914,6.6914,6.6914,6.6914,6.6914,6.6914,6.6914,6.6914,6.6601,6.6367,6.6055,6.5469,6.4805,6.3789,6.3125,6.2773,6.207,6.1992,6.1836,6.1797,6.1758,6.164,6.125,6.0976,6.0625,6.0156,5.9844,5.9453,5.8984,5.8398,5.793,5.7656,5.7226,5.6758,5.6484,5.6289,5.539,5.4219,5.4023,5.3828,6.1394,6.237,6.3261,6.4161,6.5032,6.5761,6.5997,6.5923,6.5897,6.5897,6.5897,6.5897,6.5897,6.5897,6.5897,6.5897,6.5897,6.5897,6.5897,6.5897,6.5897,6.5897,6.591,6.5923,6.591,6.5958,6.5986,6.6077,6.6099,6.6212,6.6834,6.7378,6.7434,6.8078,6.8531,6.8672,6.8828,6.8906,6.9023,6.9297,6.9531,6.9648,6.9648,6.9687,6.9726,6.9687,6.9687,6.9648,6.9609,6.9531,6.9453,6.9453,6.9375,6.918,6.9062,6.9062,6.8789,6.8555,6.7969,6.7812,6.7656,6.7187,6.7031,6.6914,6.6914,6.6953,6.6914,6.6914,6.6914,6.6914,6.6914,6.6914,6.6914,6.6914,6.6914,6.6914,6.6914,6.6914,6.6914,6.6914,6.6914,6.6914,6.6914,6.6836,6.664,6.6562,6.625,6.5664,6.5078,6.4336,6.3555,6.2851,6.2539,6.25,6.1992,6.1836,6.1758,6.1601,6.1328,6.1133,6.0976,6.0664,6.0234,5.9726,5.918,5.8906,5.8672,5.8164,5.7539,5.7265,5.6953,5.6094,5.5351,5.5117,5.4805,6.1669,6.2882,6.3433,6.4435,6.5628,6.6065,6.6165,6.6088,6.5982,6.5897,6.5897,6.5897,6.5897,6.5897,6.5897,6.5897,6.5897,6.5897,6.5897,6.5897,6.5897,6.5897,6.591,6.5955,6.5986,6.6035,6.6138,6.6251,6.6353,6.684,6.7438,6.7941,6.8242,6.9062,6.9609,6.9883,7.0156,7.0195,7.0234,7.0195,7.0273,7.039,7.0469,7.039,7.0351,7.039,7.039,7.039,7.039,7.043,7.043,7.043,7.0351,7.0195,6.9609,6.9531,6.9336,6.9101,6.8789,6.8672,6.8359,6.7969,6.7578,6.7461,6.7265,6.7187,6.7031,6.6914,6.6914,6.6914,6.6914,6.6914,6.6914,6.6914,6.6914,6.6914,6.6914,6.6914,6.6914,6.6914,6.6914,6.6914,6.6914,6.6914,6.6875,6.6797,6.6719,6.6484,6.5898,6.5312,6.4492,6.3672,6.3437,6.3281,6.2695,6.2148,6.207,6.1953,6.164,6.1484,6.1562,6.1328,6.0859,6.039,5.9961,5.9687,5.9375,5.8906,5.8359,5.8125,5.7812,5.7109,5.6484,5.6094,5.5703,6.2106,6.3798,6.3976,6.5113,6.6492,6.6473,6.6406,6.6368,6.6108,6.5933,6.5933,6.591,6.5897,6.5897,6.5897,6.5897,6.5897,6.5933,6.5921,6.5909,6.6036,6.5986,6.5997,6.6039,6.6119,6.6179,6.6344,6.6546,6.6824,6.7333,6.7943,6.8398,6.918,7.0,7.0664,7.0781,7.1055,7.1328,7.1172,7.1055,7.1562,7.1875,7.1992,7.1875,7.1836,7.1836,7.1875,7.1914,7.1992,7.1992,7.1914,7.1836,7.1523,7.1172,7.043,7.0117,7.0078,6.9844,6.9687,6.9531,6.9414,6.9062,6.8711,6.8398,6.8086,6.7305,6.6992,6.6914,6.6914,6.6914,6.6914,6.6914,6.6914,6.6914,6.6914,6.6914,6.6914,6.6914,6.6914,6.6914,6.6914,6.6914,6.6914,6.6914,6.6914,6.6914,6.6875,6.6836,6.6601,6.6055,6.539,6.4531,6.4375,6.4101,6.3476,6.2969,6.2578,6.2344,6.207,6.1719,6.168,6.1562,6.1406,6.1015,6.0664,6.0273,5.9883,5.9531,5.9297,5.9101,5.8711,5.8203,5.7695,5.7226,5.6601,6.2106,6.3937,6.5502,6.6437,6.675,6.6622,6.6545,6.6533,6.6361,6.6191,6.6049,6.5967,6.5884,6.5909,6.5946,6.5958,6.597,6.6024,6.5986,6.6035,6.6158,6.6148,6.61,6.622,6.6312,6.6381,6.6556,6.7031,6.7578,6.8125,6.8867,6.9922,7.043,7.082,7.1484,7.1562,7.1719,7.1953,7.1836,7.164,7.1914,7.1992,7.1992,7.1992,7.1992,7.1992,7.1992,7.1992,7.1992,7.1992,7.1992,7.1953,7.1953,7.1758,7.1601,7.1406,7.1172,7.0859,7.0547,7.0351,7.0195,6.9726,6.9336,6.918,6.8672,6.7539,6.6992,6.6953,6.6953,6.6953,6.6914,6.6914,6.6914,6.6914,6.6914,6.6914,6.6914,6.6914,6.6914,6.6914,6.6914,6.6914,6.6914,6.6914,6.6914,6.6914,6.6914,6.6875,6.6875,6.6523,6.6133,6.5469,6.5351,6.5,6.4336,6.3867,6.3515,6.3125,6.2812,6.2383,6.1875,6.168,6.1562,6.1562,6.1328,6.0937,6.0625,6.043,6.0195,6.0039,5.957,5.8984,5.8828,5.8437,5.7656,6.225,6.3993,6.6015,6.6914,6.6875,6.6787,6.6738,6.669,6.6537,6.6407,6.6302,6.6183,6.6088,6.6024,6.6088,6.6118,6.6148,6.62,6.6209,6.6234,6.6275,6.6275,6.6341,6.6418,6.6468,6.656,6.7141,6.7734,6.832,6.918,7.0039,7.0742,7.1015,7.1484,7.1992,7.1992,7.1992,7.1992,7.1992,7.1992,7.1992,7.1992,7.1992,7.1992,7.1992,7.1992,7.1992,7.1992,7.1992,7.1992,7.1992,7.1992,7.1992,7.1953,7.1953,7.1914,7.1836,7.1758,7.1406,7.1133,7.0976,7.0586,7.0078,7.0,6.9844,6.8828,6.7969,6.789,6.7656,6.7617,6.707,6.6914,6.6914,6.6914,6.6914,6.6914,6.6914,6.6914,6.6914,6.6914,6.6914,6.6914,6.6914,6.6914,6.6914,6.6914,6.6914,6.6914,6.6914,6.6914,6.6562,6.6328,6.6094,6.5703,6.5117,6.4726,6.4492,6.4062,6.3594,6.3125,6.2656,6.2031,6.168,6.1758,6.1758,6.1601,6.1328,6.1055,6.1094,6.0976,6.039,5.9726,5.9648,5.957,5.8828,6.2438,6.4086,6.6042,6.6914,6.6914,6.6875,6.6875,6.6875,6.6733,6.6622,6.6599,6.6483,6.6347,6.626,6.6298,6.6354,6.6393,6.6399,6.6399,6.6381,6.648,6.6457,6.6493,6.6584,6.6775,6.7232,6.7884,6.8359,6.8867,6.9765,7.0508,7.0937,7.1445,7.1992,7.1992,7.1992,7.1992,7.1992,7.1992,7.1992,7.1992,7.1992,7.1992,7.1992,7.1992,7.1992,7.1992,7.1992,7.1992,7.1992,7.1992,7.1992,7.1992,7.1992,7.1992,7.1992,7.1992,7.1953,7.1875,7.1797,7.1836,7.168,7.1172,7.082,7.0625,7.0156,6.9336,6.8828,6.8594,6.8086,6.75,6.7148,6.7148,6.6914,6.6914,6.6914,6.6914,6.6914,6.6914,6.6914,6.6914,6.6914,6.6914,6.6914,6.6914,6.6914,6.6914,6.6914,6.6914,6.6914,6.6758,6.664,6.6562,6.6172,6.582,6.5586,6.539,6.4883,6.4414,6.3906,6.3437,6.3008,6.2539,6.2031,6.2031,6.2031,6.1797,6.1523,6.1562,6.1601,6.1172,6.0586,6.0508,6.0351,5.9961,6.2544,6.4367,6.6172,6.6914,6.6914,6.6914,6.6914,6.6914,6.6836,6.6743,6.668,6.6737,6.6655,6.6341,6.6361,6.6451,6.6517,6.6516,6.6473,6.6418,6.6652,6.6664,6.6706,6.6926,6.7299,6.7969,6.8789,6.9531,6.9726,7.039,7.1094,7.168,7.1719,7.1992,7.1992,7.1992,7.1992,7.1992,7.1992,7.1992,7.1992,7.1992,7.1992,7.1992,7.1992,7.1992,7.1992,7.1992,7.1992,7.1992,7.1992,7.1992,7.1992,7.1992,7.1992,7.1992,7.1992,7.1992,7.1992,7.1992,7.1992,7.1992,7.1562,7.1562,7.1484,7.1484,7.0742,7.0156,6.9726,6.8906,6.8359,6.8047,6.793,6.7265,6.6992,6.6953,6.6914,6.6914,6.6914,6.6914,6.6914,6.6914,6.6914,6.6914,6.6914,6.6914,6.6914,6.6914,6.6914,6.6914,6.6914,6.6914,6.6914,6.6875,6.664,6.6445,6.6211,6.5703,6.5195,6.4687,6.4297,6.4101,6.3633,6.2969,6.2617,6.2578,6.2305,6.1992,6.1758,6.1719,6.168,6.1445,6.1328,6.1133,6.0742]}]]